<?xml version="1.0" encoding="UTF-8" standalone="no" ?>
<gpx xmlns="http://www.topografix.com/GPX/1/1" xmlns:xsi="http://www.w3.org/2001/XMLSchema-instance" xsi:schemaLocation="http://www.topografix.com/GPX/1/1 http://www.topografix.com/GPX/1/1/gpx.xsd" version="1.1" creator="VisuGPX - https://www.visugpx.com">
  <metadata>
    <name>Murviel</name>
    <desc><![CDATA[Belle rando, facile.]]></desc>
  </metadata>
  <trk>
    <name><![CDATA[Murviel]]></name>
    <trkseg>
      <trkpt lat="43.60897" lon="3.73819">
        <ele>143.91796875</ele>
        <time>2020-12-03T08:21:49Z</time>
      </trkpt>
      <trkpt lat="43.60896" lon="3.73819">
        <ele>143.87890625</ele>
        <time>2020-12-03T08:21:50Z</time>
      </trkpt>
      <trkpt lat="43.60893" lon="3.73815">
        <ele>143.6875</ele>
        <time>2020-12-03T08:21:54Z</time>
      </trkpt>
      <trkpt lat="43.60892" lon="3.73814">
        <ele>143.6484375</ele>
        <time>2020-12-03T08:21:55Z</time>
      </trkpt>
      <trkpt lat="43.60892" lon="3.73813">
        <ele>143.6015625</ele>
        <time>2020-12-03T08:21:56Z</time>
      </trkpt>
      <trkpt lat="43.60883" lon="3.73804">
        <ele>143.04296875</ele>
        <time>2020-12-03T08:22:07Z</time>
      </trkpt>
      <trkpt lat="43.60881" lon="3.73802">
        <ele>142.890625</ele>
        <time>2020-12-03T08:22:10Z</time>
      </trkpt>
      <trkpt lat="43.6088" lon="3.73787">
        <ele>142.76953125</ele>
        <time>2020-12-03T08:22:21Z</time>
      </trkpt>
      <trkpt lat="43.60886" lon="3.73773">
        <ele>143.07421875</ele>
        <time>2020-12-03T08:22:31Z</time>
      </trkpt>
      <trkpt lat="43.60892" lon="3.73761">
        <ele>142.94140625</ele>
        <time>2020-12-03T08:22:40Z</time>
      </trkpt>
      <trkpt lat="43.60894" lon="3.73758">
        <ele>142.90234375</ele>
        <time>2020-12-03T08:22:42Z</time>
      </trkpt>
      <trkpt lat="43.60905" lon="3.73747">
        <ele>142.875</ele>
        <time>2020-12-03T08:22:53Z</time>
      </trkpt>
      <trkpt lat="43.60915" lon="3.73735">
        <ele>142.6953125</ele>
        <time>2020-12-03T08:23:05Z</time>
      </trkpt>
      <trkpt lat="43.60921" lon="3.73724">
        <ele>142.51953125</ele>
        <time>2020-12-03T08:23:15Z</time>
      </trkpt>
      <trkpt lat="43.60927" lon="3.73717">
        <ele>142.55078125</ele>
        <time>2020-12-03T08:23:23Z</time>
      </trkpt>
      <trkpt lat="43.60934" lon="3.73706">
        <ele>142.7734375</ele>
        <time>2020-12-03T08:23:35Z</time>
      </trkpt>
      <trkpt lat="43.60941" lon="3.7369">
        <ele>142.94921875</ele>
        <time>2020-12-03T08:23:48Z</time>
      </trkpt>
      <trkpt lat="43.60946" lon="3.73676">
        <ele>142.9375</ele>
        <time>2020-12-03T08:23:58Z</time>
      </trkpt>
      <trkpt lat="43.60945" lon="3.73667">
        <ele>142.78125</ele>
        <time>2020-12-03T08:24:04Z</time>
      </trkpt>
      <trkpt lat="43.60945" lon="3.73662">
        <ele>142.69140625</ele>
        <time>2020-12-03T08:24:07Z</time>
      </trkpt>
      <trkpt lat="43.6094" lon="3.73639">
        <ele>143.80078125</ele>
        <time>2020-12-03T08:24:21Z</time>
      </trkpt>
      <trkpt lat="43.60932" lon="3.73617">
        <ele>144.92578125</ele>
        <time>2020-12-03T08:24:36Z</time>
      </trkpt>
      <trkpt lat="43.60924" lon="3.73594">
        <ele>146.30078125</ele>
        <time>2020-12-03T08:24:51Z</time>
      </trkpt>
      <trkpt lat="43.60918" lon="3.73579">
        <ele>147.17578125</ele>
        <time>2020-12-03T08:25:01Z</time>
      </trkpt>
      <trkpt lat="43.60913" lon="3.73564">
        <ele>147.93359375</ele>
        <time>2020-12-03T08:25:11Z</time>
      </trkpt>
      <trkpt lat="43.60907" lon="3.73547">
        <ele>148.47265625</ele>
        <time>2020-12-03T08:25:22Z</time>
      </trkpt>
      <trkpt lat="43.60904" lon="3.73534">
        <ele>148.39453125</ele>
        <time>2020-12-03T08:25:33Z</time>
      </trkpt>
      <trkpt lat="43.60903" lon="3.7353">
        <ele>148.3828125</ele>
        <time>2020-12-03T08:25:36Z</time>
      </trkpt>
      <trkpt lat="43.60909" lon="3.73512">
        <ele>149.1171875</ele>
        <time>2020-12-03T08:25:49Z</time>
      </trkpt>
      <trkpt lat="43.60913" lon="3.7351">
        <ele>149.5078125</ele>
        <time>2020-12-03T08:25:57Z</time>
      </trkpt>
      <trkpt lat="43.60916" lon="3.73508">
        <ele>149.8828125</ele>
        <time>2020-12-03T08:26:07Z</time>
      </trkpt>
      <trkpt lat="43.60917" lon="3.73507">
        <ele>150.0703125</ele>
        <time>2020-12-03T08:26:16Z</time>
      </trkpt>
      <trkpt lat="43.60917" lon="3.73504">
        <ele>150.09765625</ele>
        <time>2020-12-03T08:26:29Z</time>
      </trkpt>
      <trkpt lat="43.60909" lon="3.73492">
        <ele>149.30078125</ele>
        <time>2020-12-03T08:26:39Z</time>
      </trkpt>
      <trkpt lat="43.60909" lon="3.73489">
        <ele>149.40234375</ele>
        <time>2020-12-03T08:26:42Z</time>
      </trkpt>
      <trkpt lat="43.60918" lon="3.73481">
        <ele>150.828125</ele>
        <time>2020-12-03T08:26:54Z</time>
      </trkpt>
      <trkpt lat="43.60922" lon="3.7347">
        <ele>151.73828125</ele>
        <time>2020-12-03T08:27:03Z</time>
      </trkpt>
      <trkpt lat="43.60926" lon="3.73454">
        <ele>152.90234375</ele>
        <time>2020-12-03T08:27:13Z</time>
      </trkpt>
      <trkpt lat="43.60929" lon="3.73444">
        <ele>153.83203125</ele>
        <time>2020-12-03T08:27:21Z</time>
      </trkpt>
      <trkpt lat="43.60933" lon="3.73439">
        <ele>154.74609375</ele>
        <time>2020-12-03T08:27:29Z</time>
      </trkpt>
      <trkpt lat="43.60937" lon="3.73436">
        <ele>155.74609375</ele>
        <time>2020-12-03T08:27:44Z</time>
      </trkpt>
      <trkpt lat="43.60936" lon="3.73435">
        <ele>155.796875</ele>
        <time>2020-12-03T08:28:04Z</time>
      </trkpt>
      <trkpt lat="43.60936" lon="3.73439">
        <ele>155.3828125</ele>
        <time>2020-12-03T08:28:14Z</time>
      </trkpt>
      <trkpt lat="43.60935" lon="3.73442">
        <ele>155.140625</ele>
        <time>2020-12-03T08:28:24Z</time>
      </trkpt>
      <trkpt lat="43.60937" lon="3.73436">
        <ele>155.90625</ele>
        <time>2020-12-03T08:28:34Z</time>
      </trkpt>
      <trkpt lat="43.60939" lon="3.73432">
        <ele>156.4375</ele>
        <time>2020-12-03T08:28:46Z</time>
      </trkpt>
      <trkpt lat="43.60935" lon="3.73429">
        <ele>156.02734375</ele>
        <time>2020-12-03T08:28:56Z</time>
      </trkpt>
      <trkpt lat="43.60933" lon="3.73423">
        <ele>155.8359375</ele>
        <time>2020-12-03T08:29:05Z</time>
      </trkpt>
      <trkpt lat="43.60935" lon="3.73424">
        <ele>156.2890625</ele>
        <time>2020-12-03T08:29:15Z</time>
      </trkpt>
      <trkpt lat="43.60935" lon="3.73425">
        <ele>156.17578125</ele>
        <time>2020-12-03T08:29:30Z</time>
      </trkpt>
      <trkpt lat="43.60931" lon="3.7342">
        <ele>155.61328125</ele>
        <time>2020-12-03T08:29:40Z</time>
      </trkpt>
      <trkpt lat="43.60934" lon="3.73425">
        <ele>155.953125</ele>
        <time>2020-12-03T08:29:51Z</time>
      </trkpt>
      <trkpt lat="43.60934" lon="3.73426">
        <ele>156.01953125</ele>
        <time>2020-12-03T08:30:05Z</time>
      </trkpt>
      <trkpt lat="43.60933" lon="3.73426">
        <ele>155.63671875</ele>
        <time>2020-12-03T08:30:25Z</time>
      </trkpt>
      <trkpt lat="43.60933" lon="3.73426">
        <ele>155.72265625</ele>
        <time>2020-12-03T08:30:44Z</time>
      </trkpt>
      <trkpt lat="43.60932" lon="3.73427">
        <ele>155.51953125</ele>
        <time>2020-12-03T08:30:58Z</time>
      </trkpt>
      <trkpt lat="43.6093" lon="3.73429">
        <ele>154.87890625</ele>
        <time>2020-12-03T08:31:03Z</time>
      </trkpt>
      <trkpt lat="43.60925" lon="3.73427">
        <ele>153.97265625</ele>
        <time>2020-12-03T08:31:08Z</time>
      </trkpt>
      <trkpt lat="43.60915" lon="3.73414">
        <ele>152.4609375</ele>
        <time>2020-12-03T08:31:21Z</time>
      </trkpt>
      <trkpt lat="43.60908" lon="3.73404">
        <ele>151.3984375</ele>
        <time>2020-12-03T08:31:32Z</time>
      </trkpt>
      <trkpt lat="43.609" lon="3.73396">
        <ele>149.9921875</ele>
        <time>2020-12-03T08:31:41Z</time>
      </trkpt>
      <trkpt lat="43.60892" lon="3.7339">
        <ele>148.54296875</ele>
        <time>2020-12-03T08:31:53Z</time>
      </trkpt>
      <trkpt lat="43.60885" lon="3.73391">
        <ele>147.3515625</ele>
        <time>2020-12-03T08:32:02Z</time>
      </trkpt>
      <trkpt lat="43.60883" lon="3.73391">
        <ele>147.00390625</ele>
        <time>2020-12-03T08:32:11Z</time>
      </trkpt>
      <trkpt lat="43.60881" lon="3.73381">
        <ele>146.796875</ele>
        <time>2020-12-03T08:32:21Z</time>
      </trkpt>
      <trkpt lat="43.6088" lon="3.73376">
        <ele>146.70703125</ele>
        <time>2020-12-03T08:32:24Z</time>
      </trkpt>
      <trkpt lat="43.6088" lon="3.73367">
        <ele>146.71875</ele>
        <time>2020-12-03T08:32:34Z</time>
      </trkpt>
      <trkpt lat="43.60878" lon="3.73359">
        <ele>146.546875</ele>
        <time>2020-12-03T08:32:42Z</time>
      </trkpt>
      <trkpt lat="43.60877" lon="3.73345">
        <ele>146.4375</ele>
        <time>2020-12-03T08:32:52Z</time>
      </trkpt>
      <trkpt lat="43.60876" lon="3.73335">
        <ele>146.3828125</ele>
        <time>2020-12-03T08:33:01Z</time>
      </trkpt>
      <trkpt lat="43.60876" lon="3.73329">
        <ele>146.34375</ele>
        <time>2020-12-03T08:33:08Z</time>
      </trkpt>
      <trkpt lat="43.60875" lon="3.73311">
        <ele>146.39453125</ele>
        <time>2020-12-03T08:33:20Z</time>
      </trkpt>
      <trkpt lat="43.60876" lon="3.73299">
        <ele>146.59375</ele>
        <time>2020-12-03T08:33:29Z</time>
      </trkpt>
      <trkpt lat="43.60877" lon="3.73288">
        <ele>146.78125</ele>
        <time>2020-12-03T08:33:37Z</time>
      </trkpt>
      <trkpt lat="43.60878" lon="3.73281">
        <ele>146.984375</ele>
        <time>2020-12-03T08:33:43Z</time>
      </trkpt>
      <trkpt lat="43.60884" lon="3.73279">
        <ele>147.83203125</ele>
        <time>2020-12-03T08:33:51Z</time>
      </trkpt>
      <trkpt lat="43.60891" lon="3.73287">
        <ele>148.83203125</ele>
        <time>2020-12-03T08:34:03Z</time>
      </trkpt>
      <trkpt lat="43.60896" lon="3.73297">
        <ele>149.546875</ele>
        <time>2020-12-03T08:34:14Z</time>
      </trkpt>
      <trkpt lat="43.60896" lon="3.73299">
        <ele>149.6796875</ele>
        <time>2020-12-03T08:34:16Z</time>
      </trkpt>
      <trkpt lat="43.609" lon="3.73305">
        <ele>150.30078125</ele>
        <time>2020-12-03T08:34:24Z</time>
      </trkpt>
      <trkpt lat="43.60905" lon="3.73313">
        <ele>152.0390625</ele>
        <time>2020-12-03T08:34:35Z</time>
      </trkpt>
      <trkpt lat="43.60911" lon="3.73324">
        <ele>153.6640625</ele>
        <time>2020-12-03T08:34:48Z</time>
      </trkpt>
      <trkpt lat="43.60913" lon="3.73329">
        <ele>154.5390625</ele>
        <time>2020-12-03T08:34:55Z</time>
      </trkpt>
      <trkpt lat="43.60919" lon="3.73337">
        <ele>156.21484375</ele>
        <time>2020-12-03T08:35:06Z</time>
      </trkpt>
      <trkpt lat="43.60925" lon="3.73342">
        <ele>157.78515625</ele>
        <time>2020-12-03T08:35:19Z</time>
      </trkpt>
      <trkpt lat="43.60934" lon="3.73347">
        <ele>160.2109375</ele>
        <time>2020-12-03T08:35:35Z</time>
      </trkpt>
      <trkpt lat="43.6094" lon="3.73347">
        <ele>162.0859375</ele>
        <time>2020-12-03T08:35:49Z</time>
      </trkpt>
      <trkpt lat="43.60947" lon="3.73345">
        <ele>163.97265625</ele>
        <time>2020-12-03T08:36:01Z</time>
      </trkpt>
      <trkpt lat="43.60952" lon="3.73342">
        <ele>165.68359375</ele>
        <time>2020-12-03T08:36:13Z</time>
      </trkpt>
      <trkpt lat="43.60958" lon="3.73342">
        <ele>167.16796875</ele>
        <time>2020-12-03T08:36:23Z</time>
      </trkpt>
      <trkpt lat="43.60963" lon="3.73334">
        <ele>168.8828125</ele>
        <time>2020-12-03T08:36:35Z</time>
      </trkpt>
      <trkpt lat="43.60969" lon="3.73331">
        <ele>170.47265625</ele>
        <time>2020-12-03T08:36:46Z</time>
      </trkpt>
      <trkpt lat="43.60977" lon="3.73332">
        <ele>172.5078125</ele>
        <time>2020-12-03T08:36:59Z</time>
      </trkpt>
      <trkpt lat="43.60986" lon="3.73327">
        <ele>175.171875</ele>
        <time>2020-12-03T08:37:13Z</time>
      </trkpt>
      <trkpt lat="43.60995" lon="3.73318">
        <ele>177.11328125</ele>
        <time>2020-12-03T08:37:26Z</time>
      </trkpt>
      <trkpt lat="43.61005" lon="3.73312">
        <ele>179.78125</ele>
        <time>2020-12-03T08:37:40Z</time>
      </trkpt>
      <trkpt lat="43.61009" lon="3.73305">
        <ele>180.94921875</ele>
        <time>2020-12-03T08:37:51Z</time>
      </trkpt>
      <trkpt lat="43.61009" lon="3.73304">
        <ele>180.9609375</ele>
        <time>2020-12-03T08:38:01Z</time>
      </trkpt>
      <trkpt lat="43.6101" lon="3.73304">
        <ele>181.0078125</ele>
        <time>2020-12-03T08:38:14Z</time>
      </trkpt>
      <trkpt lat="43.6101" lon="3.73305">
        <ele>181.01171875</ele>
        <time>2020-12-03T08:38:23Z</time>
      </trkpt>
      <trkpt lat="43.61011" lon="3.73308">
        <ele>181.04296875</ele>
        <time>2020-12-03T08:38:42Z</time>
      </trkpt>
      <trkpt lat="43.6101" lon="3.73308">
        <ele>181.0234375</ele>
        <time>2020-12-03T08:38:53Z</time>
      </trkpt>
      <trkpt lat="43.61009" lon="3.73307">
        <ele>180.8359375</ele>
        <time>2020-12-03T08:39:10Z</time>
      </trkpt>
      <trkpt lat="43.61009" lon="3.73307">
        <ele>180.79296875</ele>
        <time>2020-12-03T08:39:34Z</time>
      </trkpt>
      <trkpt lat="43.61009" lon="3.73307">
        <ele>180.73828125</ele>
        <time>2020-12-03T08:39:58Z</time>
      </trkpt>
      <trkpt lat="43.61009" lon="3.73307">
        <ele>180.71875</ele>
        <time>2020-12-03T08:40:31Z</time>
      </trkpt>
      <trkpt lat="43.61009" lon="3.73305">
        <ele>180.82421875</ele>
        <time>2020-12-03T08:40:49Z</time>
      </trkpt>
      <trkpt lat="43.61009" lon="3.73304">
        <ele>180.90625</ele>
        <time>2020-12-03T08:40:59Z</time>
      </trkpt>
      <trkpt lat="43.61008" lon="3.73304">
        <ele>180.703125</ele>
        <time>2020-12-03T08:41:13Z</time>
      </trkpt>
      <trkpt lat="43.61007" lon="3.73302">
        <ele>180.375</ele>
        <time>2020-12-03T08:41:15Z</time>
      </trkpt>
      <trkpt lat="43.61004" lon="3.73296">
        <ele>179.43359375</ele>
        <time>2020-12-03T08:41:20Z</time>
      </trkpt>
      <trkpt lat="43.61003" lon="3.73284">
        <ele>179.078125</ele>
        <time>2020-12-03T08:41:28Z</time>
      </trkpt>
      <trkpt lat="43.61003" lon="3.73277">
        <ele>179.11328125</ele>
        <time>2020-12-03T08:41:32Z</time>
      </trkpt>
      <trkpt lat="43.61006" lon="3.73261">
        <ele>180.29296875</ele>
        <time>2020-12-03T08:41:43Z</time>
      </trkpt>
      <trkpt lat="43.61008" lon="3.73254">
        <ele>181.24609375</ele>
        <time>2020-12-03T08:41:51Z</time>
      </trkpt>
      <trkpt lat="43.61011" lon="3.73246">
        <ele>182.04296875</ele>
        <time>2020-12-03T08:41:58Z</time>
      </trkpt>
      <trkpt lat="43.61018" lon="3.73228">
        <ele>183.2890625</ele>
        <time>2020-12-03T08:42:11Z</time>
      </trkpt>
      <trkpt lat="43.61023" lon="3.73209">
        <ele>184.78125</ele>
        <time>2020-12-03T08:42:24Z</time>
      </trkpt>
      <trkpt lat="43.61029" lon="3.73192">
        <ele>186.5390625</ele>
        <time>2020-12-03T08:42:37Z</time>
      </trkpt>
      <trkpt lat="43.61038" lon="3.7318">
        <ele>188.19921875</ele>
        <time>2020-12-03T08:42:50Z</time>
      </trkpt>
      <trkpt lat="43.61043" lon="3.73172">
        <ele>189.25</ele>
        <time>2020-12-03T08:43:00Z</time>
      </trkpt>
      <trkpt lat="43.61046" lon="3.73168">
        <ele>189.7734375</ele>
        <time>2020-12-03T08:43:10Z</time>
      </trkpt>
      <trkpt lat="43.61046" lon="3.73168">
        <ele>189.87109375</ele>
        <time>2020-12-03T08:43:21Z</time>
      </trkpt>
      <trkpt lat="43.61049" lon="3.73173">
        <ele>189.76953125</ele>
        <time>2020-12-03T08:43:34Z</time>
      </trkpt>
      <trkpt lat="43.6106" lon="3.73175">
        <ele>190.5390625</ele>
        <time>2020-12-03T08:43:46Z</time>
      </trkpt>
      <trkpt lat="43.61064" lon="3.73174">
        <ele>190.99609375</ele>
        <time>2020-12-03T08:43:49Z</time>
      </trkpt>
      <trkpt lat="43.61073" lon="3.73168">
        <ele>190.81640625</ele>
        <time>2020-12-03T08:43:57Z</time>
      </trkpt>
      <trkpt lat="43.61083" lon="3.73159">
        <ele>190.34765625</ele>
        <time>2020-12-03T08:44:07Z</time>
      </trkpt>
      <trkpt lat="43.61089" lon="3.73151">
        <ele>189.73828125</ele>
        <time>2020-12-03T08:44:17Z</time>
      </trkpt>
      <trkpt lat="43.6109" lon="3.7315">
        <ele>189.6484375</ele>
        <time>2020-12-03T08:44:26Z</time>
      </trkpt>
      <trkpt lat="43.611" lon="3.73133">
        <ele>188.5</ele>
        <time>2020-12-03T08:44:40Z</time>
      </trkpt>
      <trkpt lat="43.61105" lon="3.73125">
        <ele>187.953125</ele>
        <time>2020-12-03T08:44:48Z</time>
      </trkpt>
      <trkpt lat="43.6111" lon="3.73121">
        <ele>187.39453125</ele>
        <time>2020-12-03T08:44:56Z</time>
      </trkpt>
      <trkpt lat="43.61117" lon="3.73126">
        <ele>186.6875</ele>
        <time>2020-12-03T08:45:09Z</time>
      </trkpt>
      <trkpt lat="43.61126" lon="3.73138">
        <ele>185.6171875</ele>
        <time>2020-12-03T08:45:23Z</time>
      </trkpt>
      <trkpt lat="43.61134" lon="3.73144">
        <ele>184.453125</ele>
        <time>2020-12-03T08:45:33Z</time>
      </trkpt>
      <trkpt lat="43.61142" lon="3.7315">
        <ele>183.2421875</ele>
        <time>2020-12-03T08:45:43Z</time>
      </trkpt>
      <trkpt lat="43.61147" lon="3.73155">
        <ele>182.578125</ele>
        <time>2020-12-03T08:45:51Z</time>
      </trkpt>
      <trkpt lat="43.61149" lon="3.73159">
        <ele>182.23828125</ele>
        <time>2020-12-03T08:45:57Z</time>
      </trkpt>
      <trkpt lat="43.61154" lon="3.73163">
        <ele>181.49609375</ele>
        <time>2020-12-03T08:46:03Z</time>
      </trkpt>
      <trkpt lat="43.61163" lon="3.73173">
        <ele>179.4453125</ele>
        <time>2020-12-03T08:46:15Z</time>
      </trkpt>
      <trkpt lat="43.61167" lon="3.73178">
        <ele>178.5078125</ele>
        <time>2020-12-03T08:46:24Z</time>
      </trkpt>
      <trkpt lat="43.6117" lon="3.7318">
        <ele>177.8359375</ele>
        <time>2020-12-03T08:46:30Z</time>
      </trkpt>
      <trkpt lat="43.61175" lon="3.73186">
        <ele>176.79296875</ele>
        <time>2020-12-03T08:46:41Z</time>
      </trkpt>
      <trkpt lat="43.61186" lon="3.73194">
        <ele>175.01953125</ele>
        <time>2020-12-03T08:46:56Z</time>
      </trkpt>
      <trkpt lat="43.61198" lon="3.73205">
        <ele>173.03125</ele>
        <time>2020-12-03T08:47:09Z</time>
      </trkpt>
      <trkpt lat="43.61206" lon="3.7321">
        <ele>172</ele>
        <time>2020-12-03T08:47:17Z</time>
      </trkpt>
      <trkpt lat="43.6122" lon="3.73221">
        <ele>169.91796875</ele>
        <time>2020-12-03T08:47:33Z</time>
      </trkpt>
      <trkpt lat="43.61231" lon="3.73224">
        <ele>168.51953125</ele>
        <time>2020-12-03T08:47:44Z</time>
      </trkpt>
      <trkpt lat="43.6124" lon="3.73223">
        <ele>167.2265625</ele>
        <time>2020-12-03T08:47:53Z</time>
      </trkpt>
      <trkpt lat="43.61247" lon="3.73219">
        <ele>166.3984375</ele>
        <time>2020-12-03T08:48:02Z</time>
      </trkpt>
      <trkpt lat="43.61258" lon="3.73209">
        <ele>164.5625</ele>
        <time>2020-12-03T08:48:17Z</time>
      </trkpt>
      <trkpt lat="43.61268" lon="3.73199">
        <ele>162.48046875</ele>
        <time>2020-12-03T08:48:33Z</time>
      </trkpt>
      <trkpt lat="43.61274" lon="3.73187">
        <ele>160.87109375</ele>
        <time>2020-12-03T08:48:49Z</time>
      </trkpt>
      <trkpt lat="43.61279" lon="3.73175">
        <ele>159.453125</ele>
        <time>2020-12-03T08:49:01Z</time>
      </trkpt>
      <trkpt lat="43.6128" lon="3.73163">
        <ele>158.62109375</ele>
        <time>2020-12-03T08:49:13Z</time>
      </trkpt>
      <trkpt lat="43.61278" lon="3.73149">
        <ele>157.35546875</ele>
        <time>2020-12-03T08:49:27Z</time>
      </trkpt>
      <trkpt lat="43.61276" lon="3.73135">
        <ele>156.12109375</ele>
        <time>2020-12-03T08:49:42Z</time>
      </trkpt>
      <trkpt lat="43.61277" lon="3.73128">
        <ele>155.0546875</ele>
        <time>2020-12-03T08:49:49Z</time>
      </trkpt>
      <trkpt lat="43.61276" lon="3.73118">
        <ele>153.84765625</ele>
        <time>2020-12-03T08:49:59Z</time>
      </trkpt>
      <trkpt lat="43.61275" lon="3.73113">
        <ele>153.62890625</ele>
        <time>2020-12-03T08:50:03Z</time>
      </trkpt>
      <trkpt lat="43.61269" lon="3.73091">
        <ele>151.328125</ele>
        <time>2020-12-03T08:50:18Z</time>
      </trkpt>
      <trkpt lat="43.61261" lon="3.73074">
        <ele>150.046875</ele>
        <time>2020-12-03T08:50:33Z</time>
      </trkpt>
      <trkpt lat="43.61251" lon="3.73061">
        <ele>149.33984375</ele>
        <time>2020-12-03T08:50:46Z</time>
      </trkpt>
      <trkpt lat="43.61243" lon="3.7305">
        <ele>148.9296875</ele>
        <time>2020-12-03T08:51:00Z</time>
      </trkpt>
      <trkpt lat="43.61234" lon="3.73033">
        <ele>149.19140625</ele>
        <time>2020-12-03T08:51:15Z</time>
      </trkpt>
      <trkpt lat="43.61221" lon="3.73017">
        <ele>149.90234375</ele>
        <time>2020-12-03T08:51:30Z</time>
      </trkpt>
      <trkpt lat="43.61208" lon="3.73005">
        <ele>150.6328125</ele>
        <time>2020-12-03T08:51:45Z</time>
      </trkpt>
      <trkpt lat="43.61197" lon="3.72988">
        <ele>150.70703125</ele>
        <time>2020-12-03T08:52:00Z</time>
      </trkpt>
      <trkpt lat="43.6119" lon="3.72972">
        <ele>150.6015625</ele>
        <time>2020-12-03T08:52:14Z</time>
      </trkpt>
      <trkpt lat="43.61182" lon="3.72962">
        <ele>150.21875</ele>
        <time>2020-12-03T08:52:27Z</time>
      </trkpt>
      <trkpt lat="43.61181" lon="3.72953">
        <ele>149.41796875</ele>
        <time>2020-12-03T08:52:35Z</time>
      </trkpt>
      <trkpt lat="43.61179" lon="3.7294">
        <ele>148.20703125</ele>
        <time>2020-12-03T08:52:43Z</time>
      </trkpt>
      <trkpt lat="43.61174" lon="3.72926">
        <ele>149.3671875</ele>
        <time>2020-12-03T08:52:55Z</time>
      </trkpt>
      <trkpt lat="43.6117" lon="3.7292">
        <ele>150.1328125</ele>
        <time>2020-12-03T08:53:01Z</time>
      </trkpt>
      <trkpt lat="43.61155" lon="3.72909">
        <ele>151.3125</ele>
        <time>2020-12-03T08:53:15Z</time>
      </trkpt>
      <trkpt lat="43.61142" lon="3.729">
        <ele>151.484375</ele>
        <time>2020-12-03T08:53:29Z</time>
      </trkpt>
      <trkpt lat="43.61131" lon="3.7289">
        <ele>150.921875</ele>
        <time>2020-12-03T08:53:43Z</time>
      </trkpt>
      <trkpt lat="43.61121" lon="3.72882">
        <ele>150.18359375</ele>
        <time>2020-12-03T08:53:55Z</time>
      </trkpt>
      <trkpt lat="43.61117" lon="3.72877">
        <ele>150.94140625</ele>
        <time>2020-12-03T08:54:00Z</time>
      </trkpt>
      <trkpt lat="43.61107" lon="3.72858">
        <ele>152.90234375</ele>
        <time>2020-12-03T08:54:16Z</time>
      </trkpt>
      <trkpt lat="43.611" lon="3.72842">
        <ele>153.56640625</ele>
        <time>2020-12-03T08:54:29Z</time>
      </trkpt>
      <trkpt lat="43.61092" lon="3.7283">
        <ele>153.453125</ele>
        <time>2020-12-03T08:54:42Z</time>
      </trkpt>
      <trkpt lat="43.61085" lon="3.7282">
        <ele>154.24609375</ele>
        <time>2020-12-03T08:54:56Z</time>
      </trkpt>
      <trkpt lat="43.61081" lon="3.72816">
        <ele>154.59375</ele>
        <time>2020-12-03T08:55:03Z</time>
      </trkpt>
      <trkpt lat="43.61078" lon="3.72813">
        <ele>154.70703125</ele>
        <time>2020-12-03T08:55:08Z</time>
      </trkpt>
      <trkpt lat="43.61062" lon="3.72803">
        <ele>154.76171875</ele>
        <time>2020-12-03T08:55:21Z</time>
      </trkpt>
      <trkpt lat="43.6105" lon="3.728">
        <ele>155.07421875</ele>
        <time>2020-12-03T08:55:31Z</time>
      </trkpt>
      <trkpt lat="43.61035" lon="3.72796">
        <ele>155.13671875</ele>
        <time>2020-12-03T08:55:45Z</time>
      </trkpt>
      <trkpt lat="43.61024" lon="3.7279">
        <ele>155.01953125</ele>
        <time>2020-12-03T08:55:57Z</time>
      </trkpt>
      <trkpt lat="43.61013" lon="3.72786">
        <ele>154.60546875</ele>
        <time>2020-12-03T08:56:07Z</time>
      </trkpt>
      <trkpt lat="43.60999" lon="3.72786">
        <ele>154.20703125</ele>
        <time>2020-12-03T08:56:21Z</time>
      </trkpt>
      <trkpt lat="43.60985" lon="3.72785">
        <ele>153.76953125</ele>
        <time>2020-12-03T08:56:34Z</time>
      </trkpt>
      <trkpt lat="43.6097" lon="3.72783">
        <ele>153.171875</ele>
        <time>2020-12-03T08:56:43Z</time>
      </trkpt>
      <trkpt lat="43.60966" lon="3.72781">
        <ele>152.96484375</ele>
        <time>2020-12-03T08:56:47Z</time>
      </trkpt>
      <trkpt lat="43.60958" lon="3.72779">
        <ele>152.5625</ele>
        <time>2020-12-03T08:56:54Z</time>
      </trkpt>
      <trkpt lat="43.60951" lon="3.72778">
        <ele>152.40234375</ele>
        <time>2020-12-03T08:57:01Z</time>
      </trkpt>
      <trkpt lat="43.60944" lon="3.72778">
        <ele>152.4921875</ele>
        <time>2020-12-03T08:57:07Z</time>
      </trkpt>
      <trkpt lat="43.60933" lon="3.72778">
        <ele>152.65625</ele>
        <time>2020-12-03T08:57:18Z</time>
      </trkpt>
      <trkpt lat="43.60926" lon="3.72778">
        <ele>152.77734375</ele>
        <time>2020-12-03T08:57:25Z</time>
      </trkpt>
      <trkpt lat="43.60904" lon="3.72779">
        <ele>153.140625</ele>
        <time>2020-12-03T08:57:46Z</time>
      </trkpt>
      <trkpt lat="43.609" lon="3.72778">
        <ele>153.15625</ele>
        <time>2020-12-03T08:57:51Z</time>
      </trkpt>
      <trkpt lat="43.60894" lon="3.72779">
        <ele>153.421875</ele>
        <time>2020-12-03T08:57:57Z</time>
      </trkpt>
      <trkpt lat="43.60878" lon="3.72779">
        <ele>154.2109375</ele>
        <time>2020-12-03T08:58:11Z</time>
      </trkpt>
      <trkpt lat="43.60863" lon="3.72779">
        <ele>154.90625</ele>
        <time>2020-12-03T08:58:20Z</time>
      </trkpt>
      <trkpt lat="43.60855" lon="3.7278">
        <ele>155.29296875</ele>
        <time>2020-12-03T08:58:28Z</time>
      </trkpt>
      <trkpt lat="43.60845" lon="3.7278">
        <ele>155.76953125</ele>
        <time>2020-12-03T08:58:38Z</time>
      </trkpt>
      <trkpt lat="43.60842" lon="3.72779">
        <ele>155.9765625</ele>
        <time>2020-12-03T08:58:41Z</time>
      </trkpt>
      <trkpt lat="43.60838" lon="3.72774">
        <ele>156.578125</ele>
        <time>2020-12-03T08:58:49Z</time>
      </trkpt>
      <trkpt lat="43.60837" lon="3.72775">
        <ele>156.75</ele>
        <time>2020-12-03T08:59:00Z</time>
      </trkpt>
      <trkpt lat="43.60837" lon="3.72776">
        <ele>156.6875</ele>
        <time>2020-12-03T08:59:27Z</time>
      </trkpt>
      <trkpt lat="43.60837" lon="3.72776">
        <ele>156.65234375</ele>
        <time>2020-12-03T08:59:43Z</time>
      </trkpt>
      <trkpt lat="43.60837" lon="3.72776">
        <ele>156.6796875</ele>
        <time>2020-12-03T09:00:00Z</time>
      </trkpt>
      <trkpt lat="43.60837" lon="3.72772">
        <ele>156.76171875</ele>
        <time>2020-12-03T09:00:08Z</time>
      </trkpt>
      <trkpt lat="43.60837" lon="3.72771">
        <ele>156.80078125</ele>
        <time>2020-12-03T09:00:19Z</time>
      </trkpt>
      <trkpt lat="43.60836" lon="3.7277">
        <ele>156.9765625</ele>
        <time>2020-12-03T09:00:36Z</time>
      </trkpt>
      <trkpt lat="43.60835" lon="3.72771">
        <ele>157.10546875</ele>
        <time>2020-12-03T09:00:52Z</time>
      </trkpt>
      <trkpt lat="43.60835" lon="3.7277">
        <ele>157.11328125</ele>
        <time>2020-12-03T09:01:09Z</time>
      </trkpt>
      <trkpt lat="43.60834" lon="3.7277">
        <ele>157.1796875</ele>
        <time>2020-12-03T09:01:30Z</time>
      </trkpt>
      <trkpt lat="43.60834" lon="3.72771">
        <ele>157.1953125</ele>
        <time>2020-12-03T09:01:46Z</time>
      </trkpt>
      <trkpt lat="43.60836" lon="3.72771">
        <ele>156.87890625</ele>
        <time>2020-12-03T09:02:02Z</time>
      </trkpt>
      <trkpt lat="43.60837" lon="3.7277">
        <ele>156.82421875</ele>
        <time>2020-12-03T09:02:18Z</time>
      </trkpt>
      <trkpt lat="43.60836" lon="3.72771">
        <ele>156.859375</ele>
        <time>2020-12-03T09:02:33Z</time>
      </trkpt>
      <trkpt lat="43.60836" lon="3.72771">
        <ele>156.890625</ele>
        <time>2020-12-03T09:02:45Z</time>
      </trkpt>
      <trkpt lat="43.60836" lon="3.72772">
        <ele>156.94921875</ele>
        <time>2020-12-03T09:03:05Z</time>
      </trkpt>
      <trkpt lat="43.60834" lon="3.72768">
        <ele>157.28515625</ele>
        <time>2020-12-03T09:03:21Z</time>
      </trkpt>
      <trkpt lat="43.60832" lon="3.7276">
        <ele>157.68359375</ele>
        <time>2020-12-03T09:03:28Z</time>
      </trkpt>
      <trkpt lat="43.6083" lon="3.72755">
        <ele>158.078125</ele>
        <time>2020-12-03T09:03:37Z</time>
      </trkpt>
      <trkpt lat="43.60829" lon="3.72748">
        <ele>158.48046875</ele>
        <time>2020-12-03T09:03:44Z</time>
      </trkpt>
      <trkpt lat="43.60824" lon="3.72728">
        <ele>159.73828125</ele>
        <time>2020-12-03T09:03:59Z</time>
      </trkpt>
      <trkpt lat="43.6082" lon="3.72716">
        <ele>160.6953125</ele>
        <time>2020-12-03T09:04:07Z</time>
      </trkpt>
      <trkpt lat="43.60818" lon="3.727">
        <ele>161.46875</ele>
        <time>2020-12-03T09:04:18Z</time>
      </trkpt>
      <trkpt lat="43.60818" lon="3.72693">
        <ele>161.69140625</ele>
        <time>2020-12-03T09:04:23Z</time>
      </trkpt>
      <trkpt lat="43.60818" lon="3.72685">
        <ele>161.98828125</ele>
        <time>2020-12-03T09:04:29Z</time>
      </trkpt>
      <trkpt lat="43.60816" lon="3.72674">
        <ele>162.52734375</ele>
        <time>2020-12-03T09:04:37Z</time>
      </trkpt>
      <trkpt lat="43.60816" lon="3.7266">
        <ele>162.94140625</ele>
        <time>2020-12-03T09:04:47Z</time>
      </trkpt>
      <trkpt lat="43.60815" lon="3.72653">
        <ele>163.0703125</ele>
        <time>2020-12-03T09:04:52Z</time>
      </trkpt>
      <trkpt lat="43.60814" lon="3.7264">
        <ele>163.37890625</ele>
        <time>2020-12-03T09:05:01Z</time>
      </trkpt>
      <trkpt lat="43.60813" lon="3.72636">
        <ele>163.52734375</ele>
        <time>2020-12-03T09:05:04Z</time>
      </trkpt>
      <trkpt lat="43.60811" lon="3.7263">
        <ele>163.86328125</ele>
        <time>2020-12-03T09:05:08Z</time>
      </trkpt>
      <trkpt lat="43.60809" lon="3.72619">
        <ele>164.3125</ele>
        <time>2020-12-03T09:05:16Z</time>
      </trkpt>
      <trkpt lat="43.60805" lon="3.72604">
        <ele>164.75</ele>
        <time>2020-12-03T09:05:27Z</time>
      </trkpt>
      <trkpt lat="43.60802" lon="3.7259">
        <ele>164.98828125</ele>
        <time>2020-12-03T09:05:36Z</time>
      </trkpt>
      <trkpt lat="43.60798" lon="3.72579">
        <ele>165.37890625</ele>
        <time>2020-12-03T09:05:46Z</time>
      </trkpt>
      <trkpt lat="43.60794" lon="3.72569">
        <ele>165.66015625</ele>
        <time>2020-12-03T09:05:54Z</time>
      </trkpt>
      <trkpt lat="43.6079" lon="3.72559">
        <ele>165.8984375</ele>
        <time>2020-12-03T09:06:03Z</time>
      </trkpt>
      <trkpt lat="43.60787" lon="3.7255">
        <ele>166.0390625</ele>
        <time>2020-12-03T09:06:13Z</time>
      </trkpt>
      <trkpt lat="43.60784" lon="3.7254">
        <ele>166.390625</ele>
        <time>2020-12-03T09:06:22Z</time>
      </trkpt>
      <trkpt lat="43.60778" lon="3.72522">
        <ele>166.89453125</ele>
        <time>2020-12-03T09:06:35Z</time>
      </trkpt>
      <trkpt lat="43.60775" lon="3.7251">
        <ele>167.14453125</ele>
        <time>2020-12-03T09:06:44Z</time>
      </trkpt>
      <trkpt lat="43.60772" lon="3.72496">
        <ele>167.42578125</ele>
        <time>2020-12-03T09:06:54Z</time>
      </trkpt>
      <trkpt lat="43.60768" lon="3.72483">
        <ele>167.96875</ele>
        <time>2020-12-03T09:07:04Z</time>
      </trkpt>
      <trkpt lat="43.60764" lon="3.72469">
        <ele>168.62109375</ele>
        <time>2020-12-03T09:07:15Z</time>
      </trkpt>
      <trkpt lat="43.6076" lon="3.72457">
        <ele>169.1328125</ele>
        <time>2020-12-03T09:07:25Z</time>
      </trkpt>
      <trkpt lat="43.60757" lon="3.72446">
        <ele>169.61328125</ele>
        <time>2020-12-03T09:07:34Z</time>
      </trkpt>
      <trkpt lat="43.60753" lon="3.72433">
        <ele>170.36328125</ele>
        <time>2020-12-03T09:07:45Z</time>
      </trkpt>
      <trkpt lat="43.60748" lon="3.72417">
        <ele>171.36328125</ele>
        <time>2020-12-03T09:07:57Z</time>
      </trkpt>
      <trkpt lat="43.60745" lon="3.72405">
        <ele>172.1015625</ele>
        <time>2020-12-03T09:08:07Z</time>
      </trkpt>
      <trkpt lat="43.60739" lon="3.72395">
        <ele>172.97265625</ele>
        <time>2020-12-03T09:08:18Z</time>
      </trkpt>
      <trkpt lat="43.60733" lon="3.72384">
        <ele>173.921875</ele>
        <time>2020-12-03T09:08:28Z</time>
      </trkpt>
      <trkpt lat="43.60727" lon="3.72369">
        <ele>174.38671875</ele>
        <time>2020-12-03T09:08:40Z</time>
      </trkpt>
      <trkpt lat="43.60722" lon="3.72358">
        <ele>174.57421875</ele>
        <time>2020-12-03T09:08:50Z</time>
      </trkpt>
      <trkpt lat="43.60721" lon="3.72356">
        <ele>174.59765625</ele>
        <time>2020-12-03T09:08:52Z</time>
      </trkpt>
      <trkpt lat="43.60714" lon="3.72349">
        <ele>174.6640625</ele>
        <time>2020-12-03T09:09:02Z</time>
      </trkpt>
      <trkpt lat="43.6071" lon="3.72344">
        <ele>174.65625</ele>
        <time>2020-12-03T09:09:13Z</time>
      </trkpt>
      <trkpt lat="43.60709" lon="3.72341">
        <ele>174.63671875</ele>
        <time>2020-12-03T09:09:16Z</time>
      </trkpt>
      <trkpt lat="43.60706" lon="3.72336">
        <ele>174.58203125</ele>
        <time>2020-12-03T09:09:20Z</time>
      </trkpt>
      <trkpt lat="43.60707" lon="3.72321">
        <ele>174.22265625</ele>
        <time>2020-12-03T09:09:30Z</time>
      </trkpt>
      <trkpt lat="43.60708" lon="3.72317">
        <ele>174.125</ele>
        <time>2020-12-03T09:09:37Z</time>
      </trkpt>
      <trkpt lat="43.6071" lon="3.72302">
        <ele>173.62890625</ele>
        <time>2020-12-03T09:09:47Z</time>
      </trkpt>
      <trkpt lat="43.60713" lon="3.72285">
        <ele>173.3125</ele>
        <time>2020-12-03T09:09:58Z</time>
      </trkpt>
      <trkpt lat="43.60717" lon="3.72271">
        <ele>173.4375</ele>
        <time>2020-12-03T09:10:07Z</time>
      </trkpt>
      <trkpt lat="43.60722" lon="3.72257">
        <ele>174.6015625</ele>
        <time>2020-12-03T09:10:16Z</time>
      </trkpt>
      <trkpt lat="43.60723" lon="3.72243">
        <ele>175.3125</ele>
        <time>2020-12-03T09:10:25Z</time>
      </trkpt>
      <trkpt lat="43.60722" lon="3.72229">
        <ele>175.6953125</ele>
        <time>2020-12-03T09:10:36Z</time>
      </trkpt>
      <trkpt lat="43.6072" lon="3.72217">
        <ele>175.97265625</ele>
        <time>2020-12-03T09:10:46Z</time>
      </trkpt>
      <trkpt lat="43.6072" lon="3.7221">
        <ele>176.3984375</ele>
        <time>2020-12-03T09:10:55Z</time>
      </trkpt>
      <trkpt lat="43.60721" lon="3.72206">
        <ele>176.93359375</ele>
        <time>2020-12-03T09:11:08Z</time>
      </trkpt>
      <trkpt lat="43.60718" lon="3.722">
        <ele>176.859375</ele>
        <time>2020-12-03T09:11:14Z</time>
      </trkpt>
      <trkpt lat="43.60718" lon="3.7219">
        <ele>177.55859375</ele>
        <time>2020-12-03T09:11:21Z</time>
      </trkpt>
      <trkpt lat="43.60718" lon="3.72181">
        <ele>178.3203125</ele>
        <time>2020-12-03T09:11:28Z</time>
      </trkpt>
      <trkpt lat="43.6072" lon="3.72166">
        <ele>179.96875</ele>
        <time>2020-12-03T09:11:39Z</time>
      </trkpt>
      <trkpt lat="43.60718" lon="3.7215">
        <ele>180.68359375</ele>
        <time>2020-12-03T09:11:52Z</time>
      </trkpt>
      <trkpt lat="43.60717" lon="3.72145">
        <ele>180.81640625</ele>
        <time>2020-12-03T09:11:59Z</time>
      </trkpt>
      <trkpt lat="43.60716" lon="3.72138">
        <ele>181.11328125</ele>
        <time>2020-12-03T09:12:05Z</time>
      </trkpt>
      <trkpt lat="43.60717" lon="3.72131">
        <ele>181.859375</ele>
        <time>2020-12-03T09:12:12Z</time>
      </trkpt>
      <trkpt lat="43.60717" lon="3.72125">
        <ele>182.38671875</ele>
        <time>2020-12-03T09:12:18Z</time>
      </trkpt>
      <trkpt lat="43.60717" lon="3.72116">
        <ele>182.95703125</ele>
        <time>2020-12-03T09:12:24Z</time>
      </trkpt>
      <trkpt lat="43.60717" lon="3.72108">
        <ele>183.6953125</ele>
        <time>2020-12-03T09:12:30Z</time>
      </trkpt>
      <trkpt lat="43.60719" lon="3.72096">
        <ele>185.8046875</ele>
        <time>2020-12-03T09:12:39Z</time>
      </trkpt>
      <trkpt lat="43.6072" lon="3.72087">
        <ele>187.0078125</ele>
        <time>2020-12-03T09:12:45Z</time>
      </trkpt>
      <trkpt lat="43.6072" lon="3.72079">
        <ele>188.12890625</ele>
        <time>2020-12-03T09:12:51Z</time>
      </trkpt>
      <trkpt lat="43.6072" lon="3.72072">
        <ele>189.2109375</ele>
        <time>2020-12-03T09:12:56Z</time>
      </trkpt>
      <trkpt lat="43.60721" lon="3.72066">
        <ele>190.27734375</ele>
        <time>2020-12-03T09:13:01Z</time>
      </trkpt>
      <trkpt lat="43.60724" lon="3.72055">
        <ele>192.05859375</ele>
        <time>2020-12-03T09:13:08Z</time>
      </trkpt>
      <trkpt lat="43.60725" lon="3.72044">
        <ele>193.81640625</ele>
        <time>2020-12-03T09:13:16Z</time>
      </trkpt>
      <trkpt lat="43.60725" lon="3.72037">
        <ele>194.625</ele>
        <time>2020-12-03T09:13:22Z</time>
      </trkpt>
      <trkpt lat="43.60723" lon="3.72029">
        <ele>195.41796875</ele>
        <time>2020-12-03T09:13:28Z</time>
      </trkpt>
      <trkpt lat="43.60715" lon="3.72013">
        <ele>196.3671875</ele>
        <time>2020-12-03T09:13:45Z</time>
      </trkpt>
      <trkpt lat="43.60705" lon="3.72">
        <ele>196.9296875</ele>
        <time>2020-12-03T09:14:01Z</time>
      </trkpt>
      <trkpt lat="43.60696" lon="3.71986">
        <ele>197.390625</ele>
        <time>2020-12-03T09:14:18Z</time>
      </trkpt>
      <trkpt lat="43.60692" lon="3.71981">
        <ele>197.4609375</ele>
        <time>2020-12-03T09:14:23Z</time>
      </trkpt>
      <trkpt lat="43.60684" lon="3.71966">
        <ele>198.08203125</ele>
        <time>2020-12-03T09:14:38Z</time>
      </trkpt>
      <trkpt lat="43.60682" lon="3.71958">
        <ele>198.66015625</ele>
        <time>2020-12-03T09:14:47Z</time>
      </trkpt>
      <trkpt lat="43.6068" lon="3.71953">
        <ele>199.01171875</ele>
        <time>2020-12-03T09:14:51Z</time>
      </trkpt>
      <trkpt lat="43.60679" lon="3.71945">
        <ele>199.73828125</ele>
        <time>2020-12-03T09:14:58Z</time>
      </trkpt>
      <trkpt lat="43.60679" lon="3.71936">
        <ele>200.4765625</ele>
        <time>2020-12-03T09:15:05Z</time>
      </trkpt>
      <trkpt lat="43.6068" lon="3.71923">
        <ele>201.2109375</ele>
        <time>2020-12-03T09:15:14Z</time>
      </trkpt>
      <trkpt lat="43.60677" lon="3.71913">
        <ele>201.49609375</ele>
        <time>2020-12-03T09:15:22Z</time>
      </trkpt>
      <trkpt lat="43.60675" lon="3.71908">
        <ele>201.5859375</ele>
        <time>2020-12-03T09:15:26Z</time>
      </trkpt>
      <trkpt lat="43.60672" lon="3.71901">
        <ele>201.67578125</ele>
        <time>2020-12-03T09:15:32Z</time>
      </trkpt>
      <trkpt lat="43.60672" lon="3.71891">
        <ele>202.28125</ele>
        <time>2020-12-03T09:15:40Z</time>
      </trkpt>
      <trkpt lat="43.60668" lon="3.71872">
        <ele>201.734375</ele>
        <time>2020-12-03T09:15:54Z</time>
      </trkpt>
      <trkpt lat="43.60664" lon="3.71865">
        <ele>201.3125</ele>
        <time>2020-12-03T09:16:01Z</time>
      </trkpt>
      <trkpt lat="43.60663" lon="3.71863">
        <ele>201.25</ele>
        <time>2020-12-03T09:16:03Z</time>
      </trkpt>
      <trkpt lat="43.60659" lon="3.71862">
        <ele>201.13671875</ele>
        <time>2020-12-03T09:16:13Z</time>
      </trkpt>
      <trkpt lat="43.60654" lon="3.71856">
        <ele>200.9921875</ele>
        <time>2020-12-03T09:16:20Z</time>
      </trkpt>
      <trkpt lat="43.60646" lon="3.71844">
        <ele>201.08984375</ele>
        <time>2020-12-03T09:16:32Z</time>
      </trkpt>
      <trkpt lat="43.60647" lon="3.71837">
        <ele>201.09765625</ele>
        <time>2020-12-03T09:16:38Z</time>
      </trkpt>
      <trkpt lat="43.60648" lon="3.71827">
        <ele>200.8515625</ele>
        <time>2020-12-03T09:16:49Z</time>
      </trkpt>
      <trkpt lat="43.60651" lon="3.71826">
        <ele>200.62109375</ele>
        <time>2020-12-03T09:16:52Z</time>
      </trkpt>
      <trkpt lat="43.60655" lon="3.71826">
        <ele>200.2734375</ele>
        <time>2020-12-03T09:16:56Z</time>
      </trkpt>
      <trkpt lat="43.60657" lon="3.71816">
        <ele>199.16796875</ele>
        <time>2020-12-03T09:17:05Z</time>
      </trkpt>
      <trkpt lat="43.60651" lon="3.71804">
        <ele>198.69921875</ele>
        <time>2020-12-03T09:17:17Z</time>
      </trkpt>
      <trkpt lat="43.60649" lon="3.71799">
        <ele>198.53515625</ele>
        <time>2020-12-03T09:17:25Z</time>
      </trkpt>
      <trkpt lat="43.60643" lon="3.71786">
        <ele>198.29296875</ele>
        <time>2020-12-03T09:17:37Z</time>
      </trkpt>
      <trkpt lat="43.60638" lon="3.71776">
        <ele>198.41796875</ele>
        <time>2020-12-03T09:17:47Z</time>
      </trkpt>
      <trkpt lat="43.60632" lon="3.71762">
        <ele>198.81640625</ele>
        <time>2020-12-03T09:17:59Z</time>
      </trkpt>
      <trkpt lat="43.60627" lon="3.71753">
        <ele>199.23046875</ele>
        <time>2020-12-03T09:18:07Z</time>
      </trkpt>
      <trkpt lat="43.60624" lon="3.71747">
        <ele>199.44140625</ele>
        <time>2020-12-03T09:18:15Z</time>
      </trkpt>
      <trkpt lat="43.60616" lon="3.71736">
        <ele>200.65625</ele>
        <time>2020-12-03T09:18:27Z</time>
      </trkpt>
      <trkpt lat="43.60612" lon="3.71726">
        <ele>201.4453125</ele>
        <time>2020-12-03T09:18:37Z</time>
      </trkpt>
      <trkpt lat="43.60611" lon="3.71719">
        <ele>201.54296875</ele>
        <time>2020-12-03T09:18:42Z</time>
      </trkpt>
      <trkpt lat="43.60611" lon="3.71712">
        <ele>202.16796875</ele>
        <time>2020-12-03T09:18:47Z</time>
      </trkpt>
      <trkpt lat="43.60612" lon="3.71704">
        <ele>202.609375</ele>
        <time>2020-12-03T09:18:53Z</time>
      </trkpt>
      <trkpt lat="43.60624" lon="3.71689">
        <ele>201.51953125</ele>
        <time>2020-12-03T09:19:10Z</time>
      </trkpt>
      <trkpt lat="43.60631" lon="3.71683">
        <ele>200.9453125</ele>
        <time>2020-12-03T09:19:19Z</time>
      </trkpt>
      <trkpt lat="43.60639" lon="3.71677">
        <ele>200.4296875</ele>
        <time>2020-12-03T09:19:28Z</time>
      </trkpt>
      <trkpt lat="43.6065" lon="3.71674">
        <ele>198.875</ele>
        <time>2020-12-03T09:19:39Z</time>
      </trkpt>
      <trkpt lat="43.60659" lon="3.71671">
        <ele>197.76953125</ele>
        <time>2020-12-03T09:19:48Z</time>
      </trkpt>
      <trkpt lat="43.60666" lon="3.71669">
        <ele>196.828125</ele>
        <time>2020-12-03T09:19:54Z</time>
      </trkpt>
      <trkpt lat="43.60684" lon="3.71662">
        <ele>194.6015625</ele>
        <time>2020-12-03T09:20:11Z</time>
      </trkpt>
      <trkpt lat="43.60692" lon="3.71656">
        <ele>193.50390625</ele>
        <time>2020-12-03T09:20:20Z</time>
      </trkpt>
      <trkpt lat="43.60698" lon="3.71653">
        <ele>192.67578125</ele>
        <time>2020-12-03T09:20:27Z</time>
      </trkpt>
      <trkpt lat="43.60704" lon="3.71648">
        <ele>191.90625</ele>
        <time>2020-12-03T09:20:34Z</time>
      </trkpt>
      <trkpt lat="43.6071" lon="3.71636">
        <ele>191.29296875</ele>
        <time>2020-12-03T09:20:45Z</time>
      </trkpt>
      <trkpt lat="43.60714" lon="3.71613">
        <ele>191.6796875</ele>
        <time>2020-12-03T09:20:58Z</time>
      </trkpt>
      <trkpt lat="43.60714" lon="3.71601">
        <ele>191.25390625</ele>
        <time>2020-12-03T09:21:05Z</time>
      </trkpt>
      <trkpt lat="43.60715" lon="3.71589">
        <ele>189.9609375</ele>
        <time>2020-12-03T09:21:13Z</time>
      </trkpt>
      <trkpt lat="43.60715" lon="3.71578">
        <ele>188.87109375</ele>
        <time>2020-12-03T09:21:20Z</time>
      </trkpt>
      <trkpt lat="43.60715" lon="3.71576">
        <ele>188.69921875</ele>
        <time>2020-12-03T09:21:22Z</time>
      </trkpt>
      <trkpt lat="43.60716" lon="3.7157">
        <ele>188.02734375</ele>
        <time>2020-12-03T09:21:25Z</time>
      </trkpt>
      <trkpt lat="43.60714" lon="3.71562">
        <ele>187.46875</ele>
        <time>2020-12-03T09:21:31Z</time>
      </trkpt>
      <trkpt lat="43.60714" lon="3.7156">
        <ele>187.34765625</ele>
        <time>2020-12-03T09:21:32Z</time>
      </trkpt>
      <trkpt lat="43.60712" lon="3.71552">
        <ele>187.09765625</ele>
        <time>2020-12-03T09:21:38Z</time>
      </trkpt>
      <trkpt lat="43.60707" lon="3.71539">
        <ele>185.46875</ele>
        <time>2020-12-03T09:21:48Z</time>
      </trkpt>
      <trkpt lat="43.60703" lon="3.71523">
        <ele>183.36328125</ele>
        <time>2020-12-03T09:21:59Z</time>
      </trkpt>
      <trkpt lat="43.60701" lon="3.71517">
        <ele>182.4140625</ele>
        <time>2020-12-03T09:22:04Z</time>
      </trkpt>
      <trkpt lat="43.60698" lon="3.71507">
        <ele>180.94921875</ele>
        <time>2020-12-03T09:22:11Z</time>
      </trkpt>
      <trkpt lat="43.60697" lon="3.71495">
        <ele>178.9609375</ele>
        <time>2020-12-03T09:22:20Z</time>
      </trkpt>
      <trkpt lat="43.60696" lon="3.71494">
        <ele>178.81640625</ele>
        <time>2020-12-03T09:22:21Z</time>
      </trkpt>
      <trkpt lat="43.60694" lon="3.71479">
        <ele>177.13671875</ele>
        <time>2020-12-03T09:22:32Z</time>
      </trkpt>
      <trkpt lat="43.60693" lon="3.7148">
        <ele>177.5390625</ele>
        <time>2020-12-03T09:22:39Z</time>
      </trkpt>
      <trkpt lat="43.60689" lon="3.71488">
        <ele>178.96875</ele>
        <time>2020-12-03T09:22:50Z</time>
      </trkpt>
      <trkpt lat="43.60689" lon="3.71488">
        <ele>179.02734375</ele>
        <time>2020-12-03T09:23:00Z</time>
      </trkpt>
      <trkpt lat="43.60687" lon="3.71485">
        <ele>178.90625</ele>
        <time>2020-12-03T09:23:13Z</time>
      </trkpt>
      <trkpt lat="43.60686" lon="3.71481">
        <ele>178.52734375</ele>
        <time>2020-12-03T09:23:22Z</time>
      </trkpt>
      <trkpt lat="43.60683" lon="3.71479">
        <ele>178.46484375</ele>
        <time>2020-12-03T09:23:25Z</time>
      </trkpt>
      <trkpt lat="43.6067" lon="3.71472">
        <ele>178.9453125</ele>
        <time>2020-12-03T09:23:40Z</time>
      </trkpt>
      <trkpt lat="43.60667" lon="3.7147">
        <ele>179.0859375</ele>
        <time>2020-12-03T09:23:44Z</time>
      </trkpt>
      <trkpt lat="43.60659" lon="3.71463">
        <ele>178.7890625</ele>
        <time>2020-12-03T09:23:58Z</time>
      </trkpt>
      <trkpt lat="43.6065" lon="3.71451">
        <ele>177.8671875</ele>
        <time>2020-12-03T09:24:12Z</time>
      </trkpt>
      <trkpt lat="43.60643" lon="3.71448">
        <ele>177.9609375</ele>
        <time>2020-12-03T09:24:19Z</time>
      </trkpt>
      <trkpt lat="43.60632" lon="3.71447">
        <ele>179.02734375</ele>
        <time>2020-12-03T09:24:29Z</time>
      </trkpt>
      <trkpt lat="43.60627" lon="3.71441">
        <ele>178.41796875</ele>
        <time>2020-12-03T09:24:37Z</time>
      </trkpt>
      <trkpt lat="43.60624" lon="3.71438">
        <ele>178.23828125</ele>
        <time>2020-12-03T09:24:41Z</time>
      </trkpt>
      <trkpt lat="43.60623" lon="3.71435">
        <ele>178.0546875</ele>
        <time>2020-12-03T09:24:43Z</time>
      </trkpt>
      <trkpt lat="43.60617" lon="3.71429">
        <ele>178.20703125</ele>
        <time>2020-12-03T09:24:51Z</time>
      </trkpt>
      <trkpt lat="43.60612" lon="3.71424">
        <ele>178.60546875</ele>
        <time>2020-12-03T09:24:58Z</time>
      </trkpt>
      <trkpt lat="43.60607" lon="3.71415">
        <ele>178.328125</ele>
        <time>2020-12-03T09:25:06Z</time>
      </trkpt>
      <trkpt lat="43.60606" lon="3.7141">
        <ele>177.8828125</ele>
        <time>2020-12-03T09:25:11Z</time>
      </trkpt>
      <trkpt lat="43.60602" lon="3.71401">
        <ele>177.53125</ele>
        <time>2020-12-03T09:25:19Z</time>
      </trkpt>
      <trkpt lat="43.60599" lon="3.71395">
        <ele>177.1328125</ele>
        <time>2020-12-03T09:25:25Z</time>
      </trkpt>
      <trkpt lat="43.60595" lon="3.71388">
        <ele>177.1484375</ele>
        <time>2020-12-03T09:25:31Z</time>
      </trkpt>
      <trkpt lat="43.60591" lon="3.71384">
        <ele>177.47265625</ele>
        <time>2020-12-03T09:25:36Z</time>
      </trkpt>
      <trkpt lat="43.60587" lon="3.71379">
        <ele>177.78515625</ele>
        <time>2020-12-03T09:25:41Z</time>
      </trkpt>
      <trkpt lat="43.6058" lon="3.71364">
        <ele>177.62890625</ele>
        <time>2020-12-03T09:25:53Z</time>
      </trkpt>
      <trkpt lat="43.60577" lon="3.71357">
        <ele>177.6171875</ele>
        <time>2020-12-03T09:26:00Z</time>
      </trkpt>
      <trkpt lat="43.60574" lon="3.71351">
        <ele>177.515625</ele>
        <time>2020-12-03T09:26:06Z</time>
      </trkpt>
      <trkpt lat="43.60571" lon="3.71333">
        <ele>176.36328125</ele>
        <time>2020-12-03T09:26:22Z</time>
      </trkpt>
      <trkpt lat="43.60567" lon="3.71306">
        <ele>172.97265625</ele>
        <time>2020-12-03T09:26:43Z</time>
      </trkpt>
      <trkpt lat="43.60563" lon="3.71286">
        <ele>170.34765625</ele>
        <time>2020-12-03T09:26:54Z</time>
      </trkpt>
      <trkpt lat="43.60557" lon="3.7127">
        <ele>168.6875</ele>
        <time>2020-12-03T09:27:03Z</time>
      </trkpt>
      <trkpt lat="43.60554" lon="3.71265">
        <ele>168.26171875</ele>
        <time>2020-12-03T09:27:08Z</time>
      </trkpt>
      <trkpt lat="43.60548" lon="3.71258">
        <ele>167.77734375</ele>
        <time>2020-12-03T09:27:15Z</time>
      </trkpt>
      <trkpt lat="43.60544" lon="3.71252">
        <ele>167.22265625</ele>
        <time>2020-12-03T09:28:03Z</time>
      </trkpt>
      <trkpt lat="43.60539" lon="3.71248">
        <ele>167.05078125</ele>
        <time>2020-12-03T09:28:15Z</time>
      </trkpt>
      <trkpt lat="43.60538" lon="3.71247">
        <ele>166.921875</ele>
        <time>2020-12-03T09:28:16Z</time>
      </trkpt>
      <trkpt lat="43.60536" lon="3.71243">
        <ele>166.265625</ele>
        <time>2020-12-03T09:28:23Z</time>
      </trkpt>
      <trkpt lat="43.60532" lon="3.71238">
        <ele>165.59765625</ele>
        <time>2020-12-03T09:28:32Z</time>
      </trkpt>
      <trkpt lat="43.60527" lon="3.71228">
        <ele>163.90234375</ele>
        <time>2020-12-03T09:28:42Z</time>
      </trkpt>
      <trkpt lat="43.60522" lon="3.71218">
        <ele>162.109375</ele>
        <time>2020-12-03T09:28:51Z</time>
      </trkpt>
      <trkpt lat="43.60519" lon="3.71213">
        <ele>161.5234375</ele>
        <time>2020-12-03T09:28:56Z</time>
      </trkpt>
      <trkpt lat="43.60516" lon="3.71207">
        <ele>160.8984375</ele>
        <time>2020-12-03T09:29:01Z</time>
      </trkpt>
      <trkpt lat="43.60515" lon="3.71205">
        <ele>160.56640625</ele>
        <time>2020-12-03T09:29:03Z</time>
      </trkpt>
      <trkpt lat="43.60504" lon="3.71195">
        <ele>159.44140625</ele>
        <time>2020-12-03T09:29:17Z</time>
      </trkpt>
      <trkpt lat="43.60498" lon="3.71188">
        <ele>158.4140625</ele>
        <time>2020-12-03T09:29:28Z</time>
      </trkpt>
      <trkpt lat="43.60493" lon="3.71183">
        <ele>157.7421875</ele>
        <time>2020-12-03T09:29:35Z</time>
      </trkpt>
      <trkpt lat="43.60488" lon="3.71177">
        <ele>156.78515625</ele>
        <time>2020-12-03T09:29:43Z</time>
      </trkpt>
      <trkpt lat="43.60485" lon="3.71175">
        <ele>156.31640625</ele>
        <time>2020-12-03T09:29:48Z</time>
      </trkpt>
      <trkpt lat="43.60477" lon="3.71167">
        <ele>154.83984375</ele>
        <time>2020-12-03T09:29:57Z</time>
      </trkpt>
      <trkpt lat="43.60473" lon="3.71163">
        <ele>154.02734375</ele>
        <time>2020-12-03T09:30:03Z</time>
      </trkpt>
      <trkpt lat="43.60465" lon="3.71157">
        <ele>153.0625</ele>
        <time>2020-12-03T09:30:13Z</time>
      </trkpt>
      <trkpt lat="43.60458" lon="3.71151">
        <ele>152.07421875</ele>
        <time>2020-12-03T09:30:21Z</time>
      </trkpt>
      <trkpt lat="43.6045" lon="3.71149">
        <ele>151.73046875</ele>
        <time>2020-12-03T09:30:31Z</time>
      </trkpt>
      <trkpt lat="43.60446" lon="3.71148">
        <ele>151.59765625</ele>
        <time>2020-12-03T09:30:38Z</time>
      </trkpt>
      <trkpt lat="43.60443" lon="3.71146">
        <ele>151.23046875</ele>
        <time>2020-12-03T09:30:45Z</time>
      </trkpt>
      <trkpt lat="43.60439" lon="3.71141">
        <ele>150.41015625</ele>
        <time>2020-12-03T09:30:53Z</time>
      </trkpt>
      <trkpt lat="43.60439" lon="3.71139">
        <ele>150.0390625</ele>
        <time>2020-12-03T09:31:03Z</time>
      </trkpt>
      <trkpt lat="43.60439" lon="3.71136">
        <ele>149.54296875</ele>
        <time>2020-12-03T09:31:17Z</time>
      </trkpt>
      <trkpt lat="43.60437" lon="3.71137">
        <ele>149.6015625</ele>
        <time>2020-12-03T09:31:28Z</time>
      </trkpt>
      <trkpt lat="43.60437" lon="3.71138">
        <ele>149.89453125</ele>
        <time>2020-12-03T09:31:38Z</time>
      </trkpt>
      <trkpt lat="43.60434" lon="3.71136">
        <ele>149.48828125</ele>
        <time>2020-12-03T09:32:01Z</time>
      </trkpt>
      <trkpt lat="43.60429" lon="3.71134">
        <ele>149.046875</ele>
        <time>2020-12-03T09:32:07Z</time>
      </trkpt>
      <trkpt lat="43.60423" lon="3.71133">
        <ele>148.8515625</ele>
        <time>2020-12-03T09:32:20Z</time>
      </trkpt>
      <trkpt lat="43.60426" lon="3.71133">
        <ele>148.90234375</ele>
        <time>2020-12-03T09:32:53Z</time>
      </trkpt>
      <trkpt lat="43.60432" lon="3.71134">
        <ele>149.1171875</ele>
        <time>2020-12-03T09:33:20Z</time>
      </trkpt>
      <trkpt lat="43.6043" lon="3.71133">
        <ele>148.88671875</ele>
        <time>2020-12-03T09:33:32Z</time>
      </trkpt>
      <trkpt lat="43.60424" lon="3.71128">
        <ele>147.98828125</ele>
        <time>2020-12-03T09:33:42Z</time>
      </trkpt>
      <trkpt lat="43.6042" lon="3.71127">
        <ele>147.87890625</ele>
        <time>2020-12-03T09:33:49Z</time>
      </trkpt>
      <trkpt lat="43.60416" lon="3.71128">
        <ele>148.015625</ele>
        <time>2020-12-03T09:33:54Z</time>
      </trkpt>
      <trkpt lat="43.6041" lon="3.7113">
        <ele>148.22265625</ele>
        <time>2020-12-03T09:34:02Z</time>
      </trkpt>
      <trkpt lat="43.60407" lon="3.7113">
        <ele>148.1640625</ele>
        <time>2020-12-03T09:34:05Z</time>
      </trkpt>
      <trkpt lat="43.60403" lon="3.71128">
        <ele>147.8203125</ele>
        <time>2020-12-03T09:34:10Z</time>
      </trkpt>
      <trkpt lat="43.60396" lon="3.71128">
        <ele>147.68359375</ele>
        <time>2020-12-03T09:34:17Z</time>
      </trkpt>
      <trkpt lat="43.60395" lon="3.71128">
        <ele>147.609375</ele>
        <time>2020-12-03T09:34:18Z</time>
      </trkpt>
      <trkpt lat="43.60391" lon="3.71123">
        <ele>146.6171875</ele>
        <time>2020-12-03T09:34:26Z</time>
      </trkpt>
      <trkpt lat="43.60394" lon="3.7112">
        <ele>146.07421875</ele>
        <time>2020-12-03T09:34:33Z</time>
      </trkpt>
      <trkpt lat="43.60399" lon="3.71114">
        <ele>145.20703125</ele>
        <time>2020-12-03T09:34:40Z</time>
      </trkpt>
      <trkpt lat="43.60403" lon="3.71111">
        <ele>144.6640625</ele>
        <time>2020-12-03T09:34:49Z</time>
      </trkpt>
      <trkpt lat="43.60402" lon="3.71111">
        <ele>144.79296875</ele>
        <time>2020-12-03T09:35:05Z</time>
      </trkpt>
      <trkpt lat="43.604" lon="3.71111">
        <ele>144.68359375</ele>
        <time>2020-12-03T09:35:23Z</time>
      </trkpt>
      <trkpt lat="43.60407" lon="3.71109">
        <ele>144.50390625</ele>
        <time>2020-12-03T09:35:37Z</time>
      </trkpt>
      <trkpt lat="43.60414" lon="3.71108">
        <ele>144.4140625</ele>
        <time>2020-12-03T09:35:46Z</time>
      </trkpt>
      <trkpt lat="43.6042" lon="3.71107">
        <ele>144.375</ele>
        <time>2020-12-03T09:35:53Z</time>
      </trkpt>
      <trkpt lat="43.60428" lon="3.71105">
        <ele>144.45703125</ele>
        <time>2020-12-03T09:36:01Z</time>
      </trkpt>
      <trkpt lat="43.60434" lon="3.71102">
        <ele>144.48046875</ele>
        <time>2020-12-03T09:36:07Z</time>
      </trkpt>
      <trkpt lat="43.60436" lon="3.71102">
        <ele>144.52734375</ele>
        <time>2020-12-03T09:36:16Z</time>
      </trkpt>
      <trkpt lat="43.60444" lon="3.71096">
        <ele>144.4453125</ele>
        <time>2020-12-03T09:36:25Z</time>
      </trkpt>
      <trkpt lat="43.60451" lon="3.71087">
        <ele>144.234375</ele>
        <time>2020-12-03T09:36:37Z</time>
      </trkpt>
      <trkpt lat="43.60454" lon="3.7108">
        <ele>144.01953125</ele>
        <time>2020-12-03T09:36:43Z</time>
      </trkpt>
      <trkpt lat="43.60462" lon="3.71061">
        <ele>143.62890625</ele>
        <time>2020-12-03T09:36:59Z</time>
      </trkpt>
      <trkpt lat="43.60463" lon="3.7106">
        <ele>143.6171875</ele>
        <time>2020-12-03T09:37:00Z</time>
      </trkpt>
      <trkpt lat="43.60466" lon="3.71055">
        <ele>143.5390625</ele>
        <time>2020-12-03T09:37:04Z</time>
      </trkpt>
      <trkpt lat="43.60479" lon="3.71039">
        <ele>144.25</ele>
        <time>2020-12-03T09:37:19Z</time>
      </trkpt>
      <trkpt lat="43.60489" lon="3.71031">
        <ele>144.74609375</ele>
        <time>2020-12-03T09:37:30Z</time>
      </trkpt>
      <trkpt lat="43.60502" lon="3.71018">
        <ele>145.42578125</ele>
        <time>2020-12-03T09:37:46Z</time>
      </trkpt>
      <trkpt lat="43.60507" lon="3.71012">
        <ele>145.640625</ele>
        <time>2020-12-03T09:37:51Z</time>
      </trkpt>
      <trkpt lat="43.6051" lon="3.71007">
        <ele>145.81640625</ele>
        <time>2020-12-03T09:37:56Z</time>
      </trkpt>
      <trkpt lat="43.60515" lon="3.71003">
        <ele>145.99609375</ele>
        <time>2020-12-03T09:38:02Z</time>
      </trkpt>
      <trkpt lat="43.60523" lon="3.71001">
        <ele>146.1875</ele>
        <time>2020-12-03T09:38:09Z</time>
      </trkpt>
      <trkpt lat="43.6053" lon="3.71">
        <ele>146.3515625</ele>
        <time>2020-12-03T09:38:16Z</time>
      </trkpt>
      <trkpt lat="43.60532" lon="3.71">
        <ele>146.37890625</ele>
        <time>2020-12-03T09:38:17Z</time>
      </trkpt>
      <trkpt lat="43.60538" lon="3.71">
        <ele>146.5</ele>
        <time>2020-12-03T09:38:23Z</time>
      </trkpt>
      <trkpt lat="43.60544" lon="3.71001">
        <ele>146.625</ele>
        <time>2020-12-03T09:38:28Z</time>
      </trkpt>
      <trkpt lat="43.60549" lon="3.71001">
        <ele>146.75</ele>
        <time>2020-12-03T09:38:33Z</time>
      </trkpt>
      <trkpt lat="43.60554" lon="3.71002">
        <ele>146.85546875</ele>
        <time>2020-12-03T09:38:38Z</time>
      </trkpt>
      <trkpt lat="43.60558" lon="3.71003">
        <ele>146.96484375</ele>
        <time>2020-12-03T09:38:43Z</time>
      </trkpt>
      <trkpt lat="43.60564" lon="3.71004">
        <ele>147.11328125</ele>
        <time>2020-12-03T09:38:49Z</time>
      </trkpt>
      <trkpt lat="43.60565" lon="3.71004">
        <ele>147.13671875</ele>
        <time>2020-12-03T09:38:50Z</time>
      </trkpt>
      <trkpt lat="43.60573" lon="3.71001">
        <ele>146.96484375</ele>
        <time>2020-12-03T09:38:57Z</time>
      </trkpt>
      <trkpt lat="43.6058" lon="3.70998">
        <ele>146.76953125</ele>
        <time>2020-12-03T09:39:04Z</time>
      </trkpt>
      <trkpt lat="43.60585" lon="3.70995">
        <ele>146.69140625</ele>
        <time>2020-12-03T09:39:08Z</time>
      </trkpt>
      <trkpt lat="43.6059" lon="3.70992">
        <ele>146.8046875</ele>
        <time>2020-12-03T09:39:13Z</time>
      </trkpt>
      <trkpt lat="43.60594" lon="3.70988">
        <ele>146.9375</ele>
        <time>2020-12-03T09:39:17Z</time>
      </trkpt>
      <trkpt lat="43.60601" lon="3.70984">
        <ele>147.04296875</ele>
        <time>2020-12-03T09:39:24Z</time>
      </trkpt>
      <trkpt lat="43.60604" lon="3.70983">
        <ele>147.03515625</ele>
        <time>2020-12-03T09:39:27Z</time>
      </trkpt>
      <trkpt lat="43.60611" lon="3.70982">
        <ele>146.96875</ele>
        <time>2020-12-03T09:39:32Z</time>
      </trkpt>
      <trkpt lat="43.60619" lon="3.70983">
        <ele>146.76953125</ele>
        <time>2020-12-03T09:39:38Z</time>
      </trkpt>
      <trkpt lat="43.60627" lon="3.70983">
        <ele>146.921875</ele>
        <time>2020-12-03T09:39:45Z</time>
      </trkpt>
      <trkpt lat="43.60634" lon="3.70983">
        <ele>147.1328125</ele>
        <time>2020-12-03T09:39:51Z</time>
      </trkpt>
      <trkpt lat="43.60642" lon="3.70985">
        <ele>147.2734375</ele>
        <time>2020-12-03T09:39:59Z</time>
      </trkpt>
      <trkpt lat="43.60646" lon="3.70989">
        <ele>147.23046875</ele>
        <time>2020-12-03T09:40:05Z</time>
      </trkpt>
      <trkpt lat="43.60652" lon="3.70994">
        <ele>147.21484375</ele>
        <time>2020-12-03T09:40:12Z</time>
      </trkpt>
      <trkpt lat="43.60667" lon="3.71008">
        <ele>148.09765625</ele>
        <time>2020-12-03T09:40:34Z</time>
      </trkpt>
      <trkpt lat="43.60677" lon="3.71009">
        <ele>148.515625</ele>
        <time>2020-12-03T09:40:46Z</time>
      </trkpt>
      <trkpt lat="43.60693" lon="3.71016">
        <ele>149.75390625</ele>
        <time>2020-12-03T09:40:55Z</time>
      </trkpt>
      <trkpt lat="43.60705" lon="3.71022">
        <ele>150.5390625</ele>
        <time>2020-12-03T09:41:06Z</time>
      </trkpt>
      <trkpt lat="43.60716" lon="3.71027">
        <ele>151.12109375</ele>
        <time>2020-12-03T09:41:19Z</time>
      </trkpt>
      <trkpt lat="43.6072" lon="3.71027">
        <ele>151.30078125</ele>
        <time>2020-12-03T09:41:24Z</time>
      </trkpt>
      <trkpt lat="43.60728" lon="3.71025">
        <ele>151.7265625</ele>
        <time>2020-12-03T09:41:31Z</time>
      </trkpt>
      <trkpt lat="43.60737" lon="3.71028">
        <ele>151.796875</ele>
        <time>2020-12-03T09:41:40Z</time>
      </trkpt>
      <trkpt lat="43.60747" lon="3.71035">
        <ele>151.41796875</ele>
        <time>2020-12-03T09:41:54Z</time>
      </trkpt>
      <trkpt lat="43.60753" lon="3.71037">
        <ele>151.25</ele>
        <time>2020-12-03T09:42:01Z</time>
      </trkpt>
      <trkpt lat="43.60754" lon="3.71038">
        <ele>151.1953125</ele>
        <time>2020-12-03T09:42:14Z</time>
      </trkpt>
      <trkpt lat="43.60755" lon="3.71044">
        <ele>150.91015625</ele>
        <time>2020-12-03T09:42:25Z</time>
      </trkpt>
      <trkpt lat="43.60755" lon="3.71045">
        <ele>150.86328125</ele>
        <time>2020-12-03T09:42:38Z</time>
      </trkpt>
      <trkpt lat="43.6076" lon="3.71047">
        <ele>150.7109375</ele>
        <time>2020-12-03T09:42:50Z</time>
      </trkpt>
      <trkpt lat="43.60764" lon="3.71047">
        <ele>150.6328125</ele>
        <time>2020-12-03T09:42:57Z</time>
      </trkpt>
      <trkpt lat="43.60767" lon="3.71046">
        <ele>150.640625</ele>
        <time>2020-12-03T09:43:15Z</time>
      </trkpt>
      <trkpt lat="43.60768" lon="3.71048">
        <ele>150.5234375</ele>
        <time>2020-12-03T09:43:40Z</time>
      </trkpt>
      <trkpt lat="43.60769" lon="3.71047">
        <ele>150.5625</ele>
        <time>2020-12-03T09:43:56Z</time>
      </trkpt>
      <trkpt lat="43.60771" lon="3.71045">
        <ele>150.6171875</ele>
        <time>2020-12-03T09:44:18Z</time>
      </trkpt>
      <trkpt lat="43.6077" lon="3.71042">
        <ele>150.79296875</ele>
        <time>2020-12-03T09:44:36Z</time>
      </trkpt>
      <trkpt lat="43.6077" lon="3.7104">
        <ele>150.88671875</ele>
        <time>2020-12-03T09:44:41Z</time>
      </trkpt>
      <trkpt lat="43.60767" lon="3.7104">
        <ele>150.9296875</ele>
        <time>2020-12-03T09:44:51Z</time>
      </trkpt>
      <trkpt lat="43.60766" lon="3.71041">
        <ele>150.87890625</ele>
        <time>2020-12-03T09:45:01Z</time>
      </trkpt>
      <trkpt lat="43.60764" lon="3.71046">
        <ele>150.7109375</ele>
        <time>2020-12-03T09:45:18Z</time>
      </trkpt>
      <trkpt lat="43.60764" lon="3.71047">
        <ele>150.64453125</ele>
        <time>2020-12-03T09:45:35Z</time>
      </trkpt>
      <trkpt lat="43.60763" lon="3.71048">
        <ele>150.62109375</ele>
        <time>2020-12-03T09:45:48Z</time>
      </trkpt>
      <trkpt lat="43.60764" lon="3.71047">
        <ele>150.65625</ele>
        <time>2020-12-03T09:46:04Z</time>
      </trkpt>
      <trkpt lat="43.60766" lon="3.71044">
        <ele>150.7265625</ele>
        <time>2020-12-03T09:46:10Z</time>
      </trkpt>
      <trkpt lat="43.60773" lon="3.7104">
        <ele>150.85546875</ele>
        <time>2020-12-03T09:46:16Z</time>
      </trkpt>
      <trkpt lat="43.60777" lon="3.71037">
        <ele>150.9296875</ele>
        <time>2020-12-03T09:46:19Z</time>
      </trkpt>
      <trkpt lat="43.60785" lon="3.71032">
        <ele>151.0703125</ele>
        <time>2020-12-03T09:46:27Z</time>
      </trkpt>
      <trkpt lat="43.60791" lon="3.71029">
        <ele>151.43359375</ele>
        <time>2020-12-03T09:46:34Z</time>
      </trkpt>
      <trkpt lat="43.60797" lon="3.71026">
        <ele>151.84375</ele>
        <time>2020-12-03T09:46:38Z</time>
      </trkpt>
      <trkpt lat="43.60806" lon="3.71017">
        <ele>152.49609375</ele>
        <time>2020-12-03T09:46:49Z</time>
      </trkpt>
      <trkpt lat="43.6081" lon="3.71015">
        <ele>152.6796875</ele>
        <time>2020-12-03T09:46:56Z</time>
      </trkpt>
      <trkpt lat="43.60813" lon="3.71013">
        <ele>152.79296875</ele>
        <time>2020-12-03T09:46:58Z</time>
      </trkpt>
      <trkpt lat="43.60823" lon="3.71003">
        <ele>153.01953125</ele>
        <time>2020-12-03T09:47:09Z</time>
      </trkpt>
      <trkpt lat="43.60824" lon="3.71002">
        <ele>153.02734375</ele>
        <time>2020-12-03T09:47:10Z</time>
      </trkpt>
      <trkpt lat="43.60832" lon="3.70996">
        <ele>153</ele>
        <time>2020-12-03T09:47:19Z</time>
      </trkpt>
      <trkpt lat="43.60848" lon="3.70983">
        <ele>154.60546875</ele>
        <time>2020-12-03T09:47:33Z</time>
      </trkpt>
      <trkpt lat="43.6085" lon="3.70981">
        <ele>154.9140625</ele>
        <time>2020-12-03T09:47:35Z</time>
      </trkpt>
      <trkpt lat="43.6086" lon="3.70977">
        <ele>156.3125</ele>
        <time>2020-12-03T09:47:45Z</time>
      </trkpt>
      <trkpt lat="43.60867" lon="3.70972">
        <ele>157.359375</ele>
        <time>2020-12-03T09:47:52Z</time>
      </trkpt>
      <trkpt lat="43.60883" lon="3.70968">
        <ele>159.15625</ele>
        <time>2020-12-03T09:48:07Z</time>
      </trkpt>
      <trkpt lat="43.60893" lon="3.70968">
        <ele>159.99609375</ele>
        <time>2020-12-03T09:48:14Z</time>
      </trkpt>
      <trkpt lat="43.60901" lon="3.70968">
        <ele>160.58984375</ele>
        <time>2020-12-03T09:48:20Z</time>
      </trkpt>
      <trkpt lat="43.60908" lon="3.70963">
        <ele>160.97265625</ele>
        <time>2020-12-03T09:48:28Z</time>
      </trkpt>
      <trkpt lat="43.60913" lon="3.7096">
        <ele>161.19921875</ele>
        <time>2020-12-03T09:48:32Z</time>
      </trkpt>
      <trkpt lat="43.60915" lon="3.70957">
        <ele>161.34375</ele>
        <time>2020-12-03T09:48:36Z</time>
      </trkpt>
      <trkpt lat="43.60922" lon="3.70952">
        <ele>161.546875</ele>
        <time>2020-12-03T09:48:45Z</time>
      </trkpt>
      <trkpt lat="43.60928" lon="3.70949">
        <ele>161.58203125</ele>
        <time>2020-12-03T09:48:52Z</time>
      </trkpt>
      <trkpt lat="43.60936" lon="3.70945">
        <ele>161.4921875</ele>
        <time>2020-12-03T09:49:00Z</time>
      </trkpt>
      <trkpt lat="43.60943" lon="3.70943">
        <ele>161.3515625</ele>
        <time>2020-12-03T09:49:07Z</time>
      </trkpt>
      <trkpt lat="43.60949" lon="3.70941">
        <ele>161.19140625</ele>
        <time>2020-12-03T09:49:14Z</time>
      </trkpt>
      <trkpt lat="43.60954" lon="3.70937">
        <ele>161.421875</ele>
        <time>2020-12-03T09:49:20Z</time>
      </trkpt>
      <trkpt lat="43.60968" lon="3.70932">
        <ele>161.75</ele>
        <time>2020-12-03T09:49:32Z</time>
      </trkpt>
      <trkpt lat="43.60972" lon="3.7093">
        <ele>161.83984375</ele>
        <time>2020-12-03T09:49:37Z</time>
      </trkpt>
      <trkpt lat="43.6098" lon="3.70927">
        <ele>161.88671875</ele>
        <time>2020-12-03T09:49:44Z</time>
      </trkpt>
      <trkpt lat="43.60988" lon="3.70927">
        <ele>161.703125</ele>
        <time>2020-12-03T09:49:52Z</time>
      </trkpt>
      <trkpt lat="43.60994" lon="3.70928">
        <ele>161.57421875</ele>
        <time>2020-12-03T09:50:03Z</time>
      </trkpt>
      <trkpt lat="43.60999" lon="3.70926">
        <ele>161.4921875</ele>
        <time>2020-12-03T09:50:10Z</time>
      </trkpt>
      <trkpt lat="43.61004" lon="3.70927">
        <ele>161.375</ele>
        <time>2020-12-03T09:50:16Z</time>
      </trkpt>
      <trkpt lat="43.61012" lon="3.70928">
        <ele>161.22265625</ele>
        <time>2020-12-03T09:50:24Z</time>
      </trkpt>
      <trkpt lat="43.61024" lon="3.70932">
        <ele>161.16015625</ele>
        <time>2020-12-03T09:50:36Z</time>
      </trkpt>
      <trkpt lat="43.61029" lon="3.70933">
        <ele>161.1328125</ele>
        <time>2020-12-03T09:50:43Z</time>
      </trkpt>
      <trkpt lat="43.61039" lon="3.70937">
        <ele>161.0625</ele>
        <time>2020-12-03T09:50:54Z</time>
      </trkpt>
      <trkpt lat="43.61045" lon="3.70938">
        <ele>161.046875</ele>
        <time>2020-12-03T09:51:02Z</time>
      </trkpt>
      <trkpt lat="43.61052" lon="3.70939">
        <ele>161.01953125</ele>
        <time>2020-12-03T09:51:10Z</time>
      </trkpt>
      <trkpt lat="43.6106" lon="3.70944">
        <ele>161.3125</ele>
        <time>2020-12-03T09:51:19Z</time>
      </trkpt>
      <trkpt lat="43.61077" lon="3.7095">
        <ele>162.359375</ele>
        <time>2020-12-03T09:51:32Z</time>
      </trkpt>
      <trkpt lat="43.61093" lon="3.70952">
        <ele>163.13671875</ele>
        <time>2020-12-03T09:51:47Z</time>
      </trkpt>
      <trkpt lat="43.61104" lon="3.70954">
        <ele>163.6484375</ele>
        <time>2020-12-03T09:51:58Z</time>
      </trkpt>
      <trkpt lat="43.61118" lon="3.70959">
        <ele>164.26171875</ele>
        <time>2020-12-03T09:52:12Z</time>
      </trkpt>
      <trkpt lat="43.61134" lon="3.70966">
        <ele>165.4453125</ele>
        <time>2020-12-03T09:52:27Z</time>
      </trkpt>
      <trkpt lat="43.61144" lon="3.70968">
        <ele>166.2265625</ele>
        <time>2020-12-03T09:52:39Z</time>
      </trkpt>
      <trkpt lat="43.6116" lon="3.70968">
        <ele>167.32421875</ele>
        <time>2020-12-03T09:52:53Z</time>
      </trkpt>
      <trkpt lat="43.61176" lon="3.70966">
        <ele>168.59375</ele>
        <time>2020-12-03T09:53:09Z</time>
      </trkpt>
      <trkpt lat="43.61192" lon="3.70964">
        <ele>169.73046875</ele>
        <time>2020-12-03T09:53:25Z</time>
      </trkpt>
      <trkpt lat="43.61208" lon="3.70963">
        <ele>170.85546875</ele>
        <time>2020-12-03T09:53:42Z</time>
      </trkpt>
      <trkpt lat="43.61222" lon="3.70962">
        <ele>171.8203125</ele>
        <time>2020-12-03T09:53:55Z</time>
      </trkpt>
      <trkpt lat="43.61227" lon="3.70962">
        <ele>172.125</ele>
        <time>2020-12-03T09:54:00Z</time>
      </trkpt>
      <trkpt lat="43.61231" lon="3.70962">
        <ele>172.38671875</ele>
        <time>2020-12-03T09:54:06Z</time>
      </trkpt>
      <trkpt lat="43.61241" lon="3.70963">
        <ele>172.70703125</ele>
        <time>2020-12-03T09:54:19Z</time>
      </trkpt>
      <trkpt lat="43.61248" lon="3.70964">
        <ele>172.8828125</ele>
        <time>2020-12-03T09:54:28Z</time>
      </trkpt>
      <trkpt lat="43.61255" lon="3.70967">
        <ele>172.94921875</ele>
        <time>2020-12-03T09:54:35Z</time>
      </trkpt>
      <trkpt lat="43.61262" lon="3.70968">
        <ele>173.09375</ele>
        <time>2020-12-03T09:54:41Z</time>
      </trkpt>
      <trkpt lat="43.61268" lon="3.7097">
        <ele>173.21484375</ele>
        <time>2020-12-03T09:54:47Z</time>
      </trkpt>
      <trkpt lat="43.61276" lon="3.70971">
        <ele>173.48046875</ele>
        <time>2020-12-03T09:54:55Z</time>
      </trkpt>
      <trkpt lat="43.61281" lon="3.70974">
        <ele>173.546875</ele>
        <time>2020-12-03T09:55:01Z</time>
      </trkpt>
      <trkpt lat="43.61285" lon="3.70979">
        <ele>173.55078125</ele>
        <time>2020-12-03T09:55:08Z</time>
      </trkpt>
      <trkpt lat="43.6129" lon="3.70981">
        <ele>173.74609375</ele>
        <time>2020-12-03T09:55:14Z</time>
      </trkpt>
      <trkpt lat="43.61294" lon="3.70984">
        <ele>174.046875</ele>
        <time>2020-12-03T09:55:20Z</time>
      </trkpt>
      <trkpt lat="43.61299" lon="3.70985">
        <ele>174.4140625</ele>
        <time>2020-12-03T09:55:27Z</time>
      </trkpt>
      <trkpt lat="43.61303" lon="3.70987">
        <ele>174.65625</ele>
        <time>2020-12-03T09:55:32Z</time>
      </trkpt>
      <trkpt lat="43.61309" lon="3.70989">
        <ele>175.15234375</ele>
        <time>2020-12-03T09:55:40Z</time>
      </trkpt>
      <trkpt lat="43.61314" lon="3.7099">
        <ele>175.5234375</ele>
        <time>2020-12-03T09:55:45Z</time>
      </trkpt>
      <trkpt lat="43.6132" lon="3.70991">
        <ele>176.07421875</ele>
        <time>2020-12-03T09:55:54Z</time>
      </trkpt>
      <trkpt lat="43.61324" lon="3.70991">
        <ele>176.41796875</ele>
        <time>2020-12-03T09:55:59Z</time>
      </trkpt>
      <trkpt lat="43.61333" lon="3.70991">
        <ele>177.19140625</ele>
        <time>2020-12-03T09:56:10Z</time>
      </trkpt>
      <trkpt lat="43.61334" lon="3.70991">
        <ele>177.23828125</ele>
        <time>2020-12-03T09:56:21Z</time>
      </trkpt>
      <trkpt lat="43.61333" lon="3.70991">
        <ele>177.17578125</ele>
        <time>2020-12-03T09:56:36Z</time>
      </trkpt>
      <trkpt lat="43.61339" lon="3.70991">
        <ele>177.68359375</ele>
        <time>2020-12-03T09:56:51Z</time>
      </trkpt>
      <trkpt lat="43.61345" lon="3.70991">
        <ele>178.27734375</ele>
        <time>2020-12-03T09:56:59Z</time>
      </trkpt>
      <trkpt lat="43.61346" lon="3.70992">
        <ele>178.35546875</ele>
        <time>2020-12-03T09:57:09Z</time>
      </trkpt>
      <trkpt lat="43.61346" lon="3.70991">
        <ele>178.30078125</ele>
        <time>2020-12-03T09:57:27Z</time>
      </trkpt>
      <trkpt lat="43.61347" lon="3.70991">
        <ele>178.49609375</ele>
        <time>2020-12-03T09:57:43Z</time>
      </trkpt>
      <trkpt lat="43.61345" lon="3.70994">
        <ele>178.27734375</ele>
        <time>2020-12-03T09:58:07Z</time>
      </trkpt>
      <trkpt lat="43.61344" lon="3.70993">
        <ele>178.1328125</ele>
        <time>2020-12-03T09:58:25Z</time>
      </trkpt>
      <trkpt lat="43.61345" lon="3.70992">
        <ele>178.23828125</ele>
        <time>2020-12-03T09:58:42Z</time>
      </trkpt>
      <trkpt lat="43.61347" lon="3.70992">
        <ele>178.44140625</ele>
        <time>2020-12-03T09:58:59Z</time>
      </trkpt>
      <trkpt lat="43.61346" lon="3.70991">
        <ele>178.34765625</ele>
        <time>2020-12-03T09:59:14Z</time>
      </trkpt>
      <trkpt lat="43.61351" lon="3.70993">
        <ele>178.875</ele>
        <time>2020-12-03T09:59:23Z</time>
      </trkpt>
      <trkpt lat="43.61353" lon="3.71002">
        <ele>179.4453125</ele>
        <time>2020-12-03T09:59:33Z</time>
      </trkpt>
      <trkpt lat="43.61354" lon="3.71008">
        <ele>179.8203125</ele>
        <time>2020-12-03T09:59:38Z</time>
      </trkpt>
      <trkpt lat="43.61354" lon="3.7102">
        <ele>180.4296875</ele>
        <time>2020-12-03T09:59:51Z</time>
      </trkpt>
      <trkpt lat="43.61357" lon="3.7102">
        <ele>180.67578125</ele>
        <time>2020-12-03T10:00:05Z</time>
      </trkpt>
      <trkpt lat="43.61353" lon="3.71027">
        <ele>180.68359375</ele>
        <time>2020-12-03T10:00:17Z</time>
      </trkpt>
      <trkpt lat="43.61352" lon="3.71043">
        <ele>181.375</ele>
        <time>2020-12-03T10:00:30Z</time>
      </trkpt>
      <trkpt lat="43.61351" lon="3.71056">
        <ele>182.04296875</ele>
        <time>2020-12-03T10:00:42Z</time>
      </trkpt>
      <trkpt lat="43.6135" lon="3.71074">
        <ele>183.40625</ele>
        <time>2020-12-03T10:00:55Z</time>
      </trkpt>
      <trkpt lat="43.61347" lon="3.71093">
        <ele>184.8828125</ele>
        <time>2020-12-03T10:01:10Z</time>
      </trkpt>
      <trkpt lat="43.61339" lon="3.71113">
        <ele>186.25390625</ele>
        <time>2020-12-03T10:01:25Z</time>
      </trkpt>
      <trkpt lat="43.61331" lon="3.71125">
        <ele>186.8984375</ele>
        <time>2020-12-03T10:01:36Z</time>
      </trkpt>
      <trkpt lat="43.61324" lon="3.71134">
        <ele>187.40625</ele>
        <time>2020-12-03T10:01:45Z</time>
      </trkpt>
      <trkpt lat="43.61318" lon="3.71144">
        <ele>188.078125</ele>
        <time>2020-12-03T10:01:55Z</time>
      </trkpt>
      <trkpt lat="43.61312" lon="3.71154">
        <ele>188.734375</ele>
        <time>2020-12-03T10:02:05Z</time>
      </trkpt>
      <trkpt lat="43.6131" lon="3.7116">
        <ele>189.23046875</ele>
        <time>2020-12-03T10:02:14Z</time>
      </trkpt>
      <trkpt lat="43.61309" lon="3.71163">
        <ele>189.40625</ele>
        <time>2020-12-03T10:02:22Z</time>
      </trkpt>
      <trkpt lat="43.61309" lon="3.71162">
        <ele>189.29296875</ele>
        <time>2020-12-03T10:02:37Z</time>
      </trkpt>
      <trkpt lat="43.61309" lon="3.71167">
        <ele>189.6328125</ele>
        <time>2020-12-03T10:02:51Z</time>
      </trkpt>
      <trkpt lat="43.61308" lon="3.71168">
        <ele>189.70703125</ele>
        <time>2020-12-03T10:02:52Z</time>
      </trkpt>
      <trkpt lat="43.61304" lon="3.71175">
        <ele>190.0703125</ele>
        <time>2020-12-03T10:03:00Z</time>
      </trkpt>
      <trkpt lat="43.61301" lon="3.7118">
        <ele>190.26171875</ele>
        <time>2020-12-03T10:03:11Z</time>
      </trkpt>
      <trkpt lat="43.613" lon="3.71181">
        <ele>190.265625</ele>
        <time>2020-12-03T10:03:12Z</time>
      </trkpt>
      <trkpt lat="43.61291" lon="3.7119">
        <ele>190.546875</ele>
        <time>2020-12-03T10:03:21Z</time>
      </trkpt>
      <trkpt lat="43.61279" lon="3.71202">
        <ele>190.8125</ele>
        <time>2020-12-03T10:03:34Z</time>
      </trkpt>
      <trkpt lat="43.61271" lon="3.7121">
        <ele>190.94921875</ele>
        <time>2020-12-03T10:03:43Z</time>
      </trkpt>
      <trkpt lat="43.61263" lon="3.71217">
        <ele>191.078125</ele>
        <time>2020-12-03T10:03:52Z</time>
      </trkpt>
      <trkpt lat="43.61254" lon="3.71229">
        <ele>191.39453125</ele>
        <time>2020-12-03T10:04:04Z</time>
      </trkpt>
      <trkpt lat="43.61247" lon="3.71235">
        <ele>191.47265625</ele>
        <time>2020-12-03T10:04:13Z</time>
      </trkpt>
      <trkpt lat="43.6124" lon="3.71243">
        <ele>191.609375</ele>
        <time>2020-12-03T10:04:23Z</time>
      </trkpt>
      <trkpt lat="43.6123" lon="3.71257">
        <ele>192.17578125</ele>
        <time>2020-12-03T10:04:36Z</time>
      </trkpt>
      <trkpt lat="43.61223" lon="3.7127">
        <ele>193.26171875</ele>
        <time>2020-12-03T10:04:46Z</time>
      </trkpt>
      <trkpt lat="43.61215" lon="3.7128">
        <ele>194.04296875</ele>
        <time>2020-12-03T10:04:56Z</time>
      </trkpt>
      <trkpt lat="43.61209" lon="3.71294">
        <ele>194.76171875</ele>
        <time>2020-12-03T10:05:07Z</time>
      </trkpt>
      <trkpt lat="43.61207" lon="3.71306">
        <ele>195.20703125</ele>
        <time>2020-12-03T10:05:16Z</time>
      </trkpt>
      <trkpt lat="43.61208" lon="3.71311">
        <ele>195.2421875</ele>
        <time>2020-12-03T10:05:21Z</time>
      </trkpt>
      <trkpt lat="43.61214" lon="3.7133">
        <ele>195.28125</ele>
        <time>2020-12-03T10:05:37Z</time>
      </trkpt>
      <trkpt lat="43.61213" lon="3.71347">
        <ele>195.1328125</ele>
        <time>2020-12-03T10:05:51Z</time>
      </trkpt>
      <trkpt lat="43.61208" lon="3.71353">
        <ele>195.453125</ele>
        <time>2020-12-03T10:05:58Z</time>
      </trkpt>
      <trkpt lat="43.612" lon="3.71364">
        <ele>196.0234375</ele>
        <time>2020-12-03T10:06:12Z</time>
      </trkpt>
      <trkpt lat="43.61199" lon="3.71379">
        <ele>195.9375</ele>
        <time>2020-12-03T10:06:25Z</time>
      </trkpt>
      <trkpt lat="43.61201" lon="3.71387">
        <ele>195.71875</ele>
        <time>2020-12-03T10:06:33Z</time>
      </trkpt>
      <trkpt lat="43.61203" lon="3.71395">
        <ele>195.31640625</ele>
        <time>2020-12-03T10:06:40Z</time>
      </trkpt>
      <trkpt lat="43.61207" lon="3.7141">
        <ele>194.546875</ele>
        <time>2020-12-03T10:06:52Z</time>
      </trkpt>
      <trkpt lat="43.6121" lon="3.71422">
        <ele>193.859375</ele>
        <time>2020-12-03T10:07:02Z</time>
      </trkpt>
      <trkpt lat="43.61211" lon="3.7143">
        <ele>193.5703125</ele>
        <time>2020-12-03T10:07:08Z</time>
      </trkpt>
      <trkpt lat="43.61211" lon="3.71431">
        <ele>193.53125</ele>
        <time>2020-12-03T10:07:09Z</time>
      </trkpt>
      <trkpt lat="43.6121" lon="3.7145">
        <ele>193.04296875</ele>
        <time>2020-12-03T10:07:23Z</time>
      </trkpt>
      <trkpt lat="43.61208" lon="3.71467">
        <ele>192.65234375</ele>
        <time>2020-12-03T10:07:35Z</time>
      </trkpt>
      <trkpt lat="43.61206" lon="3.71482">
        <ele>192.25</ele>
        <time>2020-12-03T10:07:46Z</time>
      </trkpt>
      <trkpt lat="43.61205" lon="3.71496">
        <ele>191.84765625</ele>
        <time>2020-12-03T10:07:56Z</time>
      </trkpt>
      <trkpt lat="43.61206" lon="3.71508">
        <ele>191.0625</ele>
        <time>2020-12-03T10:08:06Z</time>
      </trkpt>
      <trkpt lat="43.61206" lon="3.71513">
        <ele>190.671875</ele>
        <time>2020-12-03T10:08:14Z</time>
      </trkpt>
      <trkpt lat="43.61206" lon="3.7152">
        <ele>190.265625</ele>
        <time>2020-12-03T10:08:25Z</time>
      </trkpt>
      <trkpt lat="43.61206" lon="3.71527">
        <ele>189.8359375</ele>
        <time>2020-12-03T10:08:36Z</time>
      </trkpt>
      <trkpt lat="43.61205" lon="3.71545">
        <ele>188.73828125</ele>
        <time>2020-12-03T10:08:48Z</time>
      </trkpt>
      <trkpt lat="43.61206" lon="3.71552">
        <ele>188.23828125</ele>
        <time>2020-12-03T10:08:57Z</time>
      </trkpt>
      <trkpt lat="43.61206" lon="3.71552">
        <ele>188.15625</ele>
        <time>2020-12-03T10:09:13Z</time>
      </trkpt>
      <trkpt lat="43.61206" lon="3.71552">
        <ele>188.16015625</ele>
        <time>2020-12-03T10:09:31Z</time>
      </trkpt>
      <trkpt lat="43.61206" lon="3.71553">
        <ele>188.16796875</ele>
        <time>2020-12-03T10:09:49Z</time>
      </trkpt>
      <trkpt lat="43.61209" lon="3.71561">
        <ele>187.2421875</ele>
        <time>2020-12-03T10:10:02Z</time>
      </trkpt>
      <trkpt lat="43.61213" lon="3.71576">
        <ele>185.69921875</ele>
        <time>2020-12-03T10:10:16Z</time>
      </trkpt>
      <trkpt lat="43.61216" lon="3.71583">
        <ele>184.9140625</ele>
        <time>2020-12-03T10:10:23Z</time>
      </trkpt>
      <trkpt lat="43.61216" lon="3.71584">
        <ele>184.734375</ele>
        <time>2020-12-03T10:10:33Z</time>
      </trkpt>
      <trkpt lat="43.61218" lon="3.71589">
        <ele>184.1484375</ele>
        <time>2020-12-03T10:10:49Z</time>
      </trkpt>
      <trkpt lat="43.61221" lon="3.71599">
        <ele>183.1171875</ele>
        <time>2020-12-03T10:11:00Z</time>
      </trkpt>
      <trkpt lat="43.61223" lon="3.71608">
        <ele>182.16015625</ele>
        <time>2020-12-03T10:11:12Z</time>
      </trkpt>
      <trkpt lat="43.61223" lon="3.71608">
        <ele>182.1796875</ele>
        <time>2020-12-03T10:11:20Z</time>
      </trkpt>
      <trkpt lat="43.61226" lon="3.71614">
        <ele>181.4453125</ele>
        <time>2020-12-03T10:11:25Z</time>
      </trkpt>
      <trkpt lat="43.61233" lon="3.71624">
        <ele>180.11328125</ele>
        <time>2020-12-03T10:11:35Z</time>
      </trkpt>
      <trkpt lat="43.61237" lon="3.71631">
        <ele>179.9296875</ele>
        <time>2020-12-03T10:11:41Z</time>
      </trkpt>
      <trkpt lat="43.61247" lon="3.71654">
        <ele>178.8046875</ele>
        <time>2020-12-03T10:12:00Z</time>
      </trkpt>
      <trkpt lat="43.61254" lon="3.71674">
        <ele>177.54296875</ele>
        <time>2020-12-03T10:12:15Z</time>
      </trkpt>
      <trkpt lat="43.61259" lon="3.71684">
        <ele>176.96875</ele>
        <time>2020-12-03T10:12:22Z</time>
      </trkpt>
      <trkpt lat="43.61265" lon="3.717">
        <ele>175.9140625</ele>
        <time>2020-12-03T10:12:35Z</time>
      </trkpt>
      <trkpt lat="43.61267" lon="3.71708">
        <ele>175.3671875</ele>
        <time>2020-12-03T10:12:41Z</time>
      </trkpt>
      <trkpt lat="43.61267" lon="3.71708">
        <ele>175.3671875</ele>
        <time>2020-12-03T10:12:42Z</time>
      </trkpt>
      <trkpt lat="43.6127" lon="3.71716">
        <ele>174.86328125</ele>
        <time>2020-12-03T10:12:47Z</time>
      </trkpt>
      <trkpt lat="43.61275" lon="3.71725">
        <ele>174.5</ele>
        <time>2020-12-03T10:12:55Z</time>
      </trkpt>
      <trkpt lat="43.61277" lon="3.71733">
        <ele>174.21875</ele>
        <time>2020-12-03T10:13:01Z</time>
      </trkpt>
      <trkpt lat="43.6128" lon="3.71742">
        <ele>173.796875</ele>
        <time>2020-12-03T10:13:09Z</time>
      </trkpt>
      <trkpt lat="43.61287" lon="3.71763">
        <ele>172.5625</ele>
        <time>2020-12-03T10:13:25Z</time>
      </trkpt>
      <trkpt lat="43.61291" lon="3.71777">
        <ele>172.28125</ele>
        <time>2020-12-03T10:13:38Z</time>
      </trkpt>
      <trkpt lat="43.61291" lon="3.71783">
        <ele>172.1875</ele>
        <time>2020-12-03T10:13:43Z</time>
      </trkpt>
      <trkpt lat="43.61294" lon="3.71794">
        <ele>172.23046875</ele>
        <time>2020-12-03T10:13:55Z</time>
      </trkpt>
      <trkpt lat="43.613" lon="3.71814">
        <ele>172.12109375</ele>
        <time>2020-12-03T10:14:12Z</time>
      </trkpt>
      <trkpt lat="43.61305" lon="3.71838">
        <ele>171.578125</ele>
        <time>2020-12-03T10:14:30Z</time>
      </trkpt>
      <trkpt lat="43.61307" lon="3.71845">
        <ele>171.35546875</ele>
        <time>2020-12-03T10:14:36Z</time>
      </trkpt>
      <trkpt lat="43.61311" lon="3.71862">
        <ele>170.6640625</ele>
        <time>2020-12-03T10:14:51Z</time>
      </trkpt>
      <trkpt lat="43.61315" lon="3.71871">
        <ele>170.20703125</ele>
        <time>2020-12-03T10:14:59Z</time>
      </trkpt>
      <trkpt lat="43.61323" lon="3.7189">
        <ele>169.1796875</ele>
        <time>2020-12-03T10:15:16Z</time>
      </trkpt>
      <trkpt lat="43.61328" lon="3.71899">
        <ele>168.71484375</ele>
        <time>2020-12-03T10:15:28Z</time>
      </trkpt>
      <trkpt lat="43.61331" lon="3.71911">
        <ele>168.0703125</ele>
        <time>2020-12-03T10:15:39Z</time>
      </trkpt>
      <trkpt lat="43.61333" lon="3.71918">
        <ele>167.6953125</ele>
        <time>2020-12-03T10:15:44Z</time>
      </trkpt>
      <trkpt lat="43.61335" lon="3.71925">
        <ele>167.23828125</ele>
        <time>2020-12-03T10:15:49Z</time>
      </trkpt>
      <trkpt lat="43.61335" lon="3.71941">
        <ele>166.57421875</ele>
        <time>2020-12-03T10:15:59Z</time>
      </trkpt>
      <trkpt lat="43.61333" lon="3.71948">
        <ele>166.66015625</ele>
        <time>2020-12-03T10:16:05Z</time>
      </trkpt>
      <trkpt lat="43.61329" lon="3.71954">
        <ele>166.88671875</ele>
        <time>2020-12-03T10:16:11Z</time>
      </trkpt>
      <trkpt lat="43.61326" lon="3.71965">
        <ele>167.078125</ele>
        <time>2020-12-03T10:16:21Z</time>
      </trkpt>
      <trkpt lat="43.61322" lon="3.71974">
        <ele>167.26171875</ele>
        <time>2020-12-03T10:16:30Z</time>
      </trkpt>
      <trkpt lat="43.61314" lon="3.71991">
        <ele>167.59375</ele>
        <time>2020-12-03T10:16:47Z</time>
      </trkpt>
      <trkpt lat="43.61306" lon="3.72008">
        <ele>168.8515625</ele>
        <time>2020-12-03T10:17:03Z</time>
      </trkpt>
      <trkpt lat="43.61299" lon="3.72019">
        <ele>169.88671875</ele>
        <time>2020-12-03T10:17:16Z</time>
      </trkpt>
      <trkpt lat="43.61291" lon="3.72034">
        <ele>171.046875</ele>
        <time>2020-12-03T10:17:33Z</time>
      </trkpt>
      <trkpt lat="43.61285" lon="3.72047">
        <ele>171.93359375</ele>
        <time>2020-12-03T10:17:48Z</time>
      </trkpt>
      <trkpt lat="43.61279" lon="3.72061">
        <ele>173.265625</ele>
        <time>2020-12-03T10:18:03Z</time>
      </trkpt>
      <trkpt lat="43.61272" lon="3.72071">
        <ele>174.41015625</ele>
        <time>2020-12-03T10:18:17Z</time>
      </trkpt>
      <trkpt lat="43.61265" lon="3.72084">
        <ele>175.671875</ele>
        <time>2020-12-03T10:18:31Z</time>
      </trkpt>
      <trkpt lat="43.61261" lon="3.72099">
        <ele>176.95703125</ele>
        <time>2020-12-03T10:18:47Z</time>
      </trkpt>
      <trkpt lat="43.61266" lon="3.72113">
        <ele>177.81640625</ele>
        <time>2020-12-03T10:19:00Z</time>
      </trkpt>
      <trkpt lat="43.61269" lon="3.72117">
        <ele>178.05859375</ele>
        <time>2020-12-03T10:19:06Z</time>
      </trkpt>
      <trkpt lat="43.61276" lon="3.72122">
        <ele>178.31640625</ele>
        <time>2020-12-03T10:19:15Z</time>
      </trkpt>
      <trkpt lat="43.61281" lon="3.72126">
        <ele>178.4765625</ele>
        <time>2020-12-03T10:19:23Z</time>
      </trkpt>
      <trkpt lat="43.61282" lon="3.72127">
        <ele>178.51953125</ele>
        <time>2020-12-03T10:19:24Z</time>
      </trkpt>
      <trkpt lat="43.61292" lon="3.72136">
        <ele>179.2734375</ele>
        <time>2020-12-03T10:19:36Z</time>
      </trkpt>
      <trkpt lat="43.61297" lon="3.72141">
        <ele>179.84375</ele>
        <time>2020-12-03T10:19:43Z</time>
      </trkpt>
      <trkpt lat="43.61304" lon="3.72149">
        <ele>180.6484375</ele>
        <time>2020-12-03T10:19:53Z</time>
      </trkpt>
      <trkpt lat="43.61309" lon="3.72152">
        <ele>181.05078125</ele>
        <time>2020-12-03T10:19:58Z</time>
      </trkpt>
      <trkpt lat="43.61314" lon="3.72159">
        <ele>181.78125</ele>
        <time>2020-12-03T10:20:07Z</time>
      </trkpt>
      <trkpt lat="43.61319" lon="3.72164">
        <ele>182.23046875</ele>
        <time>2020-12-03T10:20:14Z</time>
      </trkpt>
      <trkpt lat="43.61329" lon="3.72172">
        <ele>182.80859375</ele>
        <time>2020-12-03T10:20:26Z</time>
      </trkpt>
      <trkpt lat="43.61337" lon="3.72176">
        <ele>183.27734375</ele>
        <time>2020-12-03T10:20:35Z</time>
      </trkpt>
      <trkpt lat="43.61342" lon="3.72177">
        <ele>183.515625</ele>
        <time>2020-12-03T10:20:40Z</time>
      </trkpt>
      <trkpt lat="43.61347" lon="3.72179">
        <ele>183.93359375</ele>
        <time>2020-12-03T10:20:45Z</time>
      </trkpt>
      <trkpt lat="43.61363" lon="3.72185">
        <ele>185.43359375</ele>
        <time>2020-12-03T10:21:03Z</time>
      </trkpt>
      <trkpt lat="43.61376" lon="3.7219">
        <ele>186.66796875</ele>
        <time>2020-12-03T10:21:19Z</time>
      </trkpt>
      <trkpt lat="43.61384" lon="3.72194">
        <ele>187.54296875</ele>
        <time>2020-12-03T10:21:30Z</time>
      </trkpt>
      <trkpt lat="43.61388" lon="3.72197">
        <ele>188.015625</ele>
        <time>2020-12-03T10:21:36Z</time>
      </trkpt>
      <trkpt lat="43.61396" lon="3.72205">
        <ele>189.11328125</ele>
        <time>2020-12-03T10:21:48Z</time>
      </trkpt>
      <trkpt lat="43.61401" lon="3.72211">
        <ele>189.8125</ele>
        <time>2020-12-03T10:21:56Z</time>
      </trkpt>
      <trkpt lat="43.61414" lon="3.72223">
        <ele>191.09765625</ele>
        <time>2020-12-03T10:22:13Z</time>
      </trkpt>
      <trkpt lat="43.61424" lon="3.72232">
        <ele>191.8203125</ele>
        <time>2020-12-03T10:22:26Z</time>
      </trkpt>
      <trkpt lat="43.61431" lon="3.72237">
        <ele>192.421875</ele>
        <time>2020-12-03T10:22:35Z</time>
      </trkpt>
      <trkpt lat="43.61441" lon="3.72248">
        <ele>193.359375</ele>
        <time>2020-12-03T10:22:49Z</time>
      </trkpt>
      <trkpt lat="43.61444" lon="3.72252">
        <ele>193.66015625</ele>
        <time>2020-12-03T10:22:53Z</time>
      </trkpt>
      <trkpt lat="43.61452" lon="3.72262">
        <ele>194.578125</ele>
        <time>2020-12-03T10:23:04Z</time>
      </trkpt>
      <trkpt lat="43.61455" lon="3.72267">
        <ele>194.91015625</ele>
        <time>2020-12-03T10:23:09Z</time>
      </trkpt>
      <trkpt lat="43.6146" lon="3.72271">
        <ele>195.16796875</ele>
        <time>2020-12-03T10:23:15Z</time>
      </trkpt>
      <trkpt lat="43.61467" lon="3.7228">
        <ele>195.30859375</ele>
        <time>2020-12-03T10:23:25Z</time>
      </trkpt>
      <trkpt lat="43.61472" lon="3.72284">
        <ele>195.45703125</ele>
        <time>2020-12-03T10:23:31Z</time>
      </trkpt>
      <trkpt lat="43.61477" lon="3.72291">
        <ele>195.62890625</ele>
        <time>2020-12-03T10:23:38Z</time>
      </trkpt>
      <trkpt lat="43.61488" lon="3.72302">
        <ele>196.12890625</ele>
        <time>2020-12-03T10:23:51Z</time>
      </trkpt>
      <trkpt lat="43.61501" lon="3.72316">
        <ele>197.125</ele>
        <time>2020-12-03T10:24:07Z</time>
      </trkpt>
      <trkpt lat="43.61513" lon="3.72332">
        <ele>197.9765625</ele>
        <time>2020-12-03T10:24:23Z</time>
      </trkpt>
      <trkpt lat="43.61526" lon="3.72349">
        <ele>197.79296875</ele>
        <time>2020-12-03T10:24:40Z</time>
      </trkpt>
      <trkpt lat="43.61535" lon="3.72363">
        <ele>197.8203125</ele>
        <time>2020-12-03T10:24:54Z</time>
      </trkpt>
      <trkpt lat="43.6154" lon="3.7237">
        <ele>197.93359375</ele>
        <time>2020-12-03T10:25:01Z</time>
      </trkpt>
      <trkpt lat="43.61547" lon="3.72378">
        <ele>198.33203125</ele>
        <time>2020-12-03T10:25:10Z</time>
      </trkpt>
      <trkpt lat="43.61558" lon="3.72396">
        <ele>198.55859375</ele>
        <time>2020-12-03T10:25:27Z</time>
      </trkpt>
      <trkpt lat="43.61567" lon="3.72412">
        <ele>198.58203125</ele>
        <time>2020-12-03T10:25:42Z</time>
      </trkpt>
      <trkpt lat="43.61573" lon="3.72429">
        <ele>198.21875</ele>
        <time>2020-12-03T10:25:57Z</time>
      </trkpt>
      <trkpt lat="43.61581" lon="3.72448">
        <ele>198.09375</ele>
        <time>2020-12-03T10:26:13Z</time>
      </trkpt>
      <trkpt lat="43.6159" lon="3.72465">
        <ele>198.26171875</ele>
        <time>2020-12-03T10:26:28Z</time>
      </trkpt>
      <trkpt lat="43.61595" lon="3.72478">
        <ele>198.38671875</ele>
        <time>2020-12-03T10:26:39Z</time>
      </trkpt>
      <trkpt lat="43.61601" lon="3.7249">
        <ele>198.70703125</ele>
        <time>2020-12-03T10:26:48Z</time>
      </trkpt>
      <trkpt lat="43.61609" lon="3.72505">
        <ele>199.32421875</ele>
        <time>2020-12-03T10:27:02Z</time>
      </trkpt>
      <trkpt lat="43.61611" lon="3.72513">
        <ele>199.47265625</ele>
        <time>2020-12-03T10:27:08Z</time>
      </trkpt>
      <trkpt lat="43.61617" lon="3.72534">
        <ele>199.7890625</ele>
        <time>2020-12-03T10:27:24Z</time>
      </trkpt>
      <trkpt lat="43.61624" lon="3.72554">
        <ele>199.8515625</ele>
        <time>2020-12-03T10:27:40Z</time>
      </trkpt>
      <trkpt lat="43.61629" lon="3.72563">
        <ele>199.36328125</ele>
        <time>2020-12-03T10:27:49Z</time>
      </trkpt>
      <trkpt lat="43.61636" lon="3.72579">
        <ele>198.48828125</ele>
        <time>2020-12-03T10:28:05Z</time>
      </trkpt>
      <trkpt lat="43.61643" lon="3.72587">
        <ele>198.03515625</ele>
        <time>2020-12-03T10:28:16Z</time>
      </trkpt>
      <trkpt lat="43.61651" lon="3.726">
        <ele>197.3515625</ele>
        <time>2020-12-03T10:28:30Z</time>
      </trkpt>
      <trkpt lat="43.61661" lon="3.7261">
        <ele>196.76953125</ele>
        <time>2020-12-03T10:28:43Z</time>
      </trkpt>
      <trkpt lat="43.61667" lon="3.72618">
        <ele>196.1953125</ele>
        <time>2020-12-03T10:28:54Z</time>
      </trkpt>
      <trkpt lat="43.61672" lon="3.72625">
        <ele>195.6640625</ele>
        <time>2020-12-03T10:29:05Z</time>
      </trkpt>
      <trkpt lat="43.61672" lon="3.72625">
        <ele>195.65234375</ele>
        <time>2020-12-03T10:29:22Z</time>
      </trkpt>
      <trkpt lat="43.61672" lon="3.72625">
        <ele>195.6640625</ele>
        <time>2020-12-03T10:29:36Z</time>
      </trkpt>
      <trkpt lat="43.61674" lon="3.72625">
        <ele>195.6796875</ele>
        <time>2020-12-03T10:29:53Z</time>
      </trkpt>
      <trkpt lat="43.61678" lon="3.72629">
        <ele>195.22265625</ele>
        <time>2020-12-03T10:30:04Z</time>
      </trkpt>
      <trkpt lat="43.61684" lon="3.7264">
        <ele>194.14453125</ele>
        <time>2020-12-03T10:30:15Z</time>
      </trkpt>
      <trkpt lat="43.6169" lon="3.72654">
        <ele>192.953125</ele>
        <time>2020-12-03T10:30:29Z</time>
      </trkpt>
      <trkpt lat="43.61697" lon="3.72666">
        <ele>191.890625</ele>
        <time>2020-12-03T10:30:42Z</time>
      </trkpt>
      <trkpt lat="43.61706" lon="3.72683">
        <ele>190.26171875</ele>
        <time>2020-12-03T10:31:00Z</time>
      </trkpt>
      <trkpt lat="43.61716" lon="3.72702">
        <ele>188.7734375</ele>
        <time>2020-12-03T10:31:17Z</time>
      </trkpt>
      <trkpt lat="43.61728" lon="3.72723">
        <ele>187.6171875</ele>
        <time>2020-12-03T10:31:35Z</time>
      </trkpt>
      <trkpt lat="43.61737" lon="3.7274">
        <ele>186.71875</ele>
        <time>2020-12-03T10:31:49Z</time>
      </trkpt>
      <trkpt lat="43.61746" lon="3.72759">
        <ele>185.80078125</ele>
        <time>2020-12-03T10:32:05Z</time>
      </trkpt>
      <trkpt lat="43.61754" lon="3.72778">
        <ele>185.359375</ele>
        <time>2020-12-03T10:32:19Z</time>
      </trkpt>
      <trkpt lat="43.61759" lon="3.72792">
        <ele>185.328125</ele>
        <time>2020-12-03T10:32:29Z</time>
      </trkpt>
      <trkpt lat="43.61764" lon="3.72805">
        <ele>185.34375</ele>
        <time>2020-12-03T10:32:39Z</time>
      </trkpt>
      <trkpt lat="43.61768" lon="3.72818">
        <ele>185.390625</ele>
        <time>2020-12-03T10:32:49Z</time>
      </trkpt>
      <trkpt lat="43.61773" lon="3.72833">
        <ele>185.40625</ele>
        <time>2020-12-03T10:33:00Z</time>
      </trkpt>
      <trkpt lat="43.61776" lon="3.72846">
        <ele>185.2890625</ele>
        <time>2020-12-03T10:33:09Z</time>
      </trkpt>
      <trkpt lat="43.61781" lon="3.72862">
        <ele>185.1875</ele>
        <time>2020-12-03T10:33:21Z</time>
      </trkpt>
      <trkpt lat="43.61785" lon="3.72873">
        <ele>185.14453125</ele>
        <time>2020-12-03T10:33:30Z</time>
      </trkpt>
      <trkpt lat="43.61789" lon="3.72887">
        <ele>184.69140625</ele>
        <time>2020-12-03T10:33:41Z</time>
      </trkpt>
      <trkpt lat="43.61791" lon="3.72894">
        <ele>184.34765625</ele>
        <time>2020-12-03T10:33:46Z</time>
      </trkpt>
      <trkpt lat="43.61796" lon="3.72906">
        <ele>183.59765625</ele>
        <time>2020-12-03T10:33:57Z</time>
      </trkpt>
      <trkpt lat="43.61801" lon="3.7292">
        <ele>182.859375</ele>
        <time>2020-12-03T10:34:09Z</time>
      </trkpt>
      <trkpt lat="43.61804" lon="3.72931">
        <ele>182.30078125</ele>
        <time>2020-12-03T10:34:18Z</time>
      </trkpt>
      <trkpt lat="43.61807" lon="3.72938">
        <ele>181.92578125</ele>
        <time>2020-12-03T10:34:24Z</time>
      </trkpt>
      <trkpt lat="43.61809" lon="3.72945">
        <ele>181.40234375</ele>
        <time>2020-12-03T10:34:29Z</time>
      </trkpt>
      <trkpt lat="43.61815" lon="3.72954">
        <ele>180.5546875</ele>
        <time>2020-12-03T10:34:39Z</time>
      </trkpt>
      <trkpt lat="43.61819" lon="3.72961">
        <ele>179.99609375</ele>
        <time>2020-12-03T10:34:45Z</time>
      </trkpt>
      <trkpt lat="43.61825" lon="3.7298">
        <ele>178.76953125</ele>
        <time>2020-12-03T10:35:01Z</time>
      </trkpt>
      <trkpt lat="43.61836" lon="3.73">
        <ele>177.69921875</ele>
        <time>2020-12-03T10:35:18Z</time>
      </trkpt>
      <trkpt lat="43.61845" lon="3.73017">
        <ele>176.58203125</ele>
        <time>2020-12-03T10:35:33Z</time>
      </trkpt>
      <trkpt lat="43.61853" lon="3.73033">
        <ele>175.1796875</ele>
        <time>2020-12-03T10:35:48Z</time>
      </trkpt>
      <trkpt lat="43.6186" lon="3.7305">
        <ele>174.06640625</ele>
        <time>2020-12-03T10:36:03Z</time>
      </trkpt>
      <trkpt lat="43.61865" lon="3.73067">
        <ele>173.44140625</ele>
        <time>2020-12-03T10:36:16Z</time>
      </trkpt>
      <trkpt lat="43.61873" lon="3.73092">
        <ele>172.66015625</ele>
        <time>2020-12-03T10:36:35Z</time>
      </trkpt>
      <trkpt lat="43.6188" lon="3.73112">
        <ele>172.390625</ele>
        <time>2020-12-03T10:36:51Z</time>
      </trkpt>
      <trkpt lat="43.61882" lon="3.73118">
        <ele>172.4453125</ele>
        <time>2020-12-03T10:36:56Z</time>
      </trkpt>
      <trkpt lat="43.61891" lon="3.73137">
        <ele>172.609375</ele>
        <time>2020-12-03T10:37:12Z</time>
      </trkpt>
      <trkpt lat="43.619" lon="3.73157">
        <ele>172.68359375</ele>
        <time>2020-12-03T10:37:28Z</time>
      </trkpt>
      <trkpt lat="43.61902" lon="3.73162">
        <ele>172.6015625</ele>
        <time>2020-12-03T10:37:32Z</time>
      </trkpt>
      <trkpt lat="43.61905" lon="3.73172">
        <ele>172.359375</ele>
        <time>2020-12-03T10:37:40Z</time>
      </trkpt>
      <trkpt lat="43.61905" lon="3.73184">
        <ele>172.35546875</ele>
        <time>2020-12-03T10:37:48Z</time>
      </trkpt>
      <trkpt lat="43.61906" lon="3.73191">
        <ele>172.2578125</ele>
        <time>2020-12-03T10:37:53Z</time>
      </trkpt>
      <trkpt lat="43.61907" lon="3.732">
        <ele>172.2109375</ele>
        <time>2020-12-03T10:37:59Z</time>
      </trkpt>
      <trkpt lat="43.61909" lon="3.73209">
        <ele>171.96484375</ele>
        <time>2020-12-03T10:38:06Z</time>
      </trkpt>
      <trkpt lat="43.61913" lon="3.73232">
        <ele>171.3125</ele>
        <time>2020-12-03T10:38:23Z</time>
      </trkpt>
      <trkpt lat="43.61914" lon="3.73239">
        <ele>171.0625</ele>
        <time>2020-12-03T10:38:28Z</time>
      </trkpt>
      <trkpt lat="43.61915" lon="3.73251">
        <ele>170.6328125</ele>
        <time>2020-12-03T10:38:37Z</time>
      </trkpt>
      <trkpt lat="43.61917" lon="3.73258">
        <ele>170.328125</ele>
        <time>2020-12-03T10:38:42Z</time>
      </trkpt>
      <trkpt lat="43.61921" lon="3.73279">
        <ele>169.26171875</ele>
        <time>2020-12-03T10:38:57Z</time>
      </trkpt>
      <trkpt lat="43.61924" lon="3.73292">
        <ele>168.4921875</ele>
        <time>2020-12-03T10:39:07Z</time>
      </trkpt>
      <trkpt lat="43.61931" lon="3.73313">
        <ele>166.93359375</ele>
        <time>2020-12-03T10:39:24Z</time>
      </trkpt>
      <trkpt lat="43.61937" lon="3.73336">
        <ele>165.6171875</ele>
        <time>2020-12-03T10:39:42Z</time>
      </trkpt>
      <trkpt lat="43.61943" lon="3.73359">
        <ele>164.26953125</ele>
        <time>2020-12-03T10:40:00Z</time>
      </trkpt>
      <trkpt lat="43.61942" lon="3.73379">
        <ele>163.8046875</ele>
        <time>2020-12-03T10:40:15Z</time>
      </trkpt>
      <trkpt lat="43.61942" lon="3.73385">
        <ele>163.65625</ele>
        <time>2020-12-03T10:40:20Z</time>
      </trkpt>
      <trkpt lat="43.61942" lon="3.73394">
        <ele>163.1953125</ele>
        <time>2020-12-03T10:40:28Z</time>
      </trkpt>
      <trkpt lat="43.61948" lon="3.73409">
        <ele>161.41796875</ele>
        <time>2020-12-03T10:40:42Z</time>
      </trkpt>
      <trkpt lat="43.61951" lon="3.73418">
        <ele>160.48046875</ele>
        <time>2020-12-03T10:40:51Z</time>
      </trkpt>
      <trkpt lat="43.61953" lon="3.73424">
        <ele>159.83984375</ele>
        <time>2020-12-03T10:40:59Z</time>
      </trkpt>
      <trkpt lat="43.61957" lon="3.73444">
        <ele>158.18359375</ele>
        <time>2020-12-03T10:41:13Z</time>
      </trkpt>
      <trkpt lat="43.61959" lon="3.73455">
        <ele>157.19921875</ele>
        <time>2020-12-03T10:41:20Z</time>
      </trkpt>
      <trkpt lat="43.61961" lon="3.73472">
        <ele>156.00390625</ele>
        <time>2020-12-03T10:41:31Z</time>
      </trkpt>
      <trkpt lat="43.61961" lon="3.73486">
        <ele>155.02734375</ele>
        <time>2020-12-03T10:41:42Z</time>
      </trkpt>
      <trkpt lat="43.61965" lon="3.73496">
        <ele>153.87109375</ele>
        <time>2020-12-03T10:41:51Z</time>
      </trkpt>
      <trkpt lat="43.6197" lon="3.73508">
        <ele>152.61328125</ele>
        <time>2020-12-03T10:42:01Z</time>
      </trkpt>
      <trkpt lat="43.61975" lon="3.73518">
        <ele>151.4609375</ele>
        <time>2020-12-03T10:42:12Z</time>
      </trkpt>
      <trkpt lat="43.61981" lon="3.73529">
        <ele>150.19140625</ele>
        <time>2020-12-03T10:42:22Z</time>
      </trkpt>
      <trkpt lat="43.61985" lon="3.73539">
        <ele>149.14453125</ele>
        <time>2020-12-03T10:42:31Z</time>
      </trkpt>
      <trkpt lat="43.61988" lon="3.73549">
        <ele>148.2578125</ele>
        <time>2020-12-03T10:42:40Z</time>
      </trkpt>
      <trkpt lat="43.61986" lon="3.73555">
        <ele>148.50390625</ele>
        <time>2020-12-03T10:42:49Z</time>
      </trkpt>
      <trkpt lat="43.61988" lon="3.73556">
        <ele>148.23046875</ele>
        <time>2020-12-03T10:43:03Z</time>
      </trkpt>
      <trkpt lat="43.61988" lon="3.73559">
        <ele>148.3203125</ele>
        <time>2020-12-03T10:43:19Z</time>
      </trkpt>
      <trkpt lat="43.6199" lon="3.73555">
        <ele>147.90234375</ele>
        <time>2020-12-03T10:43:29Z</time>
      </trkpt>
      <trkpt lat="43.61996" lon="3.7355">
        <ele>146.60546875</ele>
        <time>2020-12-03T10:43:38Z</time>
      </trkpt>
      <trkpt lat="43.62002" lon="3.73549">
        <ele>145.484375</ele>
        <time>2020-12-03T10:43:46Z</time>
      </trkpt>
      <trkpt lat="43.62006" lon="3.73549">
        <ele>144.56640625</ele>
        <time>2020-12-03T10:43:53Z</time>
      </trkpt>
      <trkpt lat="43.62008" lon="3.73548">
        <ele>144.171875</ele>
        <time>2020-12-03T10:43:55Z</time>
      </trkpt>
      <trkpt lat="43.62017" lon="3.73549">
        <ele>143.19140625</ele>
        <time>2020-12-03T10:44:05Z</time>
      </trkpt>
      <trkpt lat="43.62019" lon="3.73549">
        <ele>143.0078125</ele>
        <time>2020-12-03T10:44:07Z</time>
      </trkpt>
      <trkpt lat="43.62025" lon="3.7355">
        <ele>142.2734375</ele>
        <time>2020-12-03T10:44:17Z</time>
      </trkpt>
      <trkpt lat="43.62037" lon="3.7355">
        <ele>141</ele>
        <time>2020-12-03T10:44:30Z</time>
      </trkpt>
      <trkpt lat="43.6205" lon="3.73552">
        <ele>139.61328125</ele>
        <time>2020-12-03T10:44:44Z</time>
      </trkpt>
      <trkpt lat="43.62065" lon="3.73561">
        <ele>137.9921875</ele>
        <time>2020-12-03T10:45:00Z</time>
      </trkpt>
      <trkpt lat="43.62072" lon="3.73565">
        <ele>137.54296875</ele>
        <time>2020-12-03T10:45:11Z</time>
      </trkpt>
      <trkpt lat="43.62085" lon="3.7357">
        <ele>136.77734375</ele>
        <time>2020-12-03T10:45:23Z</time>
      </trkpt>
      <trkpt lat="43.62101" lon="3.73578">
        <ele>135.68359375</ele>
        <time>2020-12-03T10:45:38Z</time>
      </trkpt>
      <trkpt lat="43.62112" lon="3.73582">
        <ele>134.9140625</ele>
        <time>2020-12-03T10:45:48Z</time>
      </trkpt>
      <trkpt lat="43.6212" lon="3.73587">
        <ele>134.359375</ele>
        <time>2020-12-03T10:45:57Z</time>
      </trkpt>
      <trkpt lat="43.62133" lon="3.73596">
        <ele>133.31640625</ele>
        <time>2020-12-03T10:46:10Z</time>
      </trkpt>
      <trkpt lat="43.6214" lon="3.73602">
        <ele>132.65625</ele>
        <time>2020-12-03T10:46:17Z</time>
      </trkpt>
      <trkpt lat="43.62151" lon="3.73607">
        <ele>131.828125</ele>
        <time>2020-12-03T10:46:25Z</time>
      </trkpt>
      <trkpt lat="43.62155" lon="3.73608">
        <ele>131.54296875</ele>
        <time>2020-12-03T10:46:28Z</time>
      </trkpt>
      <trkpt lat="43.62161" lon="3.73608">
        <ele>131.08203125</ele>
        <time>2020-12-03T10:46:33Z</time>
      </trkpt>
      <trkpt lat="43.62167" lon="3.7361">
        <ele>130.70703125</ele>
        <time>2020-12-03T10:46:38Z</time>
      </trkpt>
      <trkpt lat="43.62173" lon="3.73614">
        <ele>130.30859375</ele>
        <time>2020-12-03T10:46:45Z</time>
      </trkpt>
      <trkpt lat="43.62182" lon="3.73617">
        <ele>129.92578125</ele>
        <time>2020-12-03T10:46:54Z</time>
      </trkpt>
      <trkpt lat="43.62186" lon="3.73617">
        <ele>129.765625</ele>
        <time>2020-12-03T10:46:57Z</time>
      </trkpt>
      <trkpt lat="43.62201" lon="3.73619">
        <ele>129.1171875</ele>
        <time>2020-12-03T10:47:10Z</time>
      </trkpt>
      <trkpt lat="43.62202" lon="3.73619">
        <ele>129.05859375</ele>
        <time>2020-12-03T10:47:11Z</time>
      </trkpt>
      <trkpt lat="43.62216" lon="3.73623">
        <ele>128.40625</ele>
        <time>2020-12-03T10:47:27Z</time>
      </trkpt>
      <trkpt lat="43.62228" lon="3.73629">
        <ele>127.75390625</ele>
        <time>2020-12-03T10:47:41Z</time>
      </trkpt>
      <trkpt lat="43.62243" lon="3.73633">
        <ele>127.515625</ele>
        <time>2020-12-03T10:47:56Z</time>
      </trkpt>
      <trkpt lat="43.62251" lon="3.73642">
        <ele>127.2265625</ele>
        <time>2020-12-03T10:48:07Z</time>
      </trkpt>
      <trkpt lat="43.62257" lon="3.73649">
        <ele>126.96484375</ele>
        <time>2020-12-03T10:48:15Z</time>
      </trkpt>
      <trkpt lat="43.62262" lon="3.73656">
        <ele>126.64453125</ele>
        <time>2020-12-03T10:48:27Z</time>
      </trkpt>
      <trkpt lat="43.62264" lon="3.73665">
        <ele>126.328125</ele>
        <time>2020-12-03T10:48:36Z</time>
      </trkpt>
      <trkpt lat="43.62274" lon="3.73678">
        <ele>125.7578125</ele>
        <time>2020-12-03T10:48:50Z</time>
      </trkpt>
      <trkpt lat="43.62279" lon="3.73684">
        <ele>125.4296875</ele>
        <time>2020-12-03T10:48:56Z</time>
      </trkpt>
      <trkpt lat="43.62283" lon="3.73687">
        <ele>125.21484375</ele>
        <time>2020-12-03T10:49:00Z</time>
      </trkpt>
      <trkpt lat="43.62294" lon="3.73696">
        <ele>124.98828125</ele>
        <time>2020-12-03T10:49:12Z</time>
      </trkpt>
      <trkpt lat="43.62298" lon="3.73697">
        <ele>125.06640625</ele>
        <time>2020-12-03T10:49:18Z</time>
      </trkpt>
      <trkpt lat="43.62299" lon="3.73696">
        <ele>125.11328125</ele>
        <time>2020-12-03T10:49:19Z</time>
      </trkpt>
      <trkpt lat="43.62306" lon="3.73694">
        <ele>125.47265625</ele>
        <time>2020-12-03T10:49:26Z</time>
      </trkpt>
      <trkpt lat="43.62317" lon="3.73689">
        <ele>126.08984375</ele>
        <time>2020-12-03T10:49:37Z</time>
      </trkpt>
      <trkpt lat="43.62328" lon="3.73681">
        <ele>127.0078125</ele>
        <time>2020-12-03T10:49:51Z</time>
      </trkpt>
      <trkpt lat="43.62337" lon="3.73677">
        <ele>127.69140625</ele>
        <time>2020-12-03T10:50:03Z</time>
      </trkpt>
      <trkpt lat="43.62352" lon="3.73678">
        <ele>127.76953125</ele>
        <time>2020-12-03T10:50:17Z</time>
      </trkpt>
      <trkpt lat="43.62361" lon="3.73681">
        <ele>127.60546875</ele>
        <time>2020-12-03T10:50:25Z</time>
      </trkpt>
      <trkpt lat="43.62373" lon="3.73685">
        <ele>127.2890625</ele>
        <time>2020-12-03T10:50:37Z</time>
      </trkpt>
      <trkpt lat="43.62383" lon="3.73687">
        <ele>127.17578125</ele>
        <time>2020-12-03T10:50:49Z</time>
      </trkpt>
      <trkpt lat="43.62386" lon="3.73688">
        <ele>127.0703125</ele>
        <time>2020-12-03T10:50:57Z</time>
      </trkpt>
      <trkpt lat="43.62391" lon="3.73692">
        <ele>126.75390625</ele>
        <time>2020-12-03T10:51:08Z</time>
      </trkpt>
      <trkpt lat="43.62399" lon="3.73696">
        <ele>126.37109375</ele>
        <time>2020-12-03T10:51:18Z</time>
      </trkpt>
      <trkpt lat="43.62406" lon="3.73691">
        <ele>126.0703125</ele>
        <time>2020-12-03T10:51:27Z</time>
      </trkpt>
      <trkpt lat="43.62416" lon="3.73687">
        <ele>125.42578125</ele>
        <time>2020-12-03T10:51:37Z</time>
      </trkpt>
      <trkpt lat="43.62424" lon="3.73686">
        <ele>124.81640625</ele>
        <time>2020-12-03T10:51:47Z</time>
      </trkpt>
      <trkpt lat="43.62435" lon="3.73684">
        <ele>124.01953125</ele>
        <time>2020-12-03T10:51:58Z</time>
      </trkpt>
      <trkpt lat="43.62445" lon="3.73675">
        <ele>123.76171875</ele>
        <time>2020-12-03T10:52:10Z</time>
      </trkpt>
      <trkpt lat="43.62447" lon="3.73674">
        <ele>123.6640625</ele>
        <time>2020-12-03T10:52:12Z</time>
      </trkpt>
      <trkpt lat="43.62455" lon="3.73672">
        <ele>122.9609375</ele>
        <time>2020-12-03T10:52:22Z</time>
      </trkpt>
      <trkpt lat="43.62462" lon="3.73669">
        <ele>122.37109375</ele>
        <time>2020-12-03T10:52:32Z</time>
      </trkpt>
      <trkpt lat="43.62469" lon="3.73667">
        <ele>121.58203125</ele>
        <time>2020-12-03T10:52:43Z</time>
      </trkpt>
      <trkpt lat="43.62471" lon="3.73676">
        <ele>120.8203125</ele>
        <time>2020-12-03T10:52:53Z</time>
      </trkpt>
      <trkpt lat="43.62467" lon="3.73686">
        <ele>120.72265625</ele>
        <time>2020-12-03T10:53:03Z</time>
      </trkpt>
      <trkpt lat="43.62464" lon="3.73696">
        <ele>120.33984375</ele>
        <time>2020-12-03T10:53:11Z</time>
      </trkpt>
      <trkpt lat="43.62463" lon="3.737">
        <ele>120.24609375</ele>
        <time>2020-12-03T10:53:19Z</time>
      </trkpt>
      <trkpt lat="43.62463" lon="3.73699">
        <ele>120.22265625</ele>
        <time>2020-12-03T10:53:35Z</time>
      </trkpt>
      <trkpt lat="43.62464" lon="3.73698">
        <ele>120.21875</ele>
        <time>2020-12-03T10:54:01Z</time>
      </trkpt>
      <trkpt lat="43.62464" lon="3.73699">
        <ele>120.1484375</ele>
        <time>2020-12-03T10:54:15Z</time>
      </trkpt>
      <trkpt lat="43.62463" lon="3.73698">
        <ele>120.3359375</ele>
        <time>2020-12-03T10:54:31Z</time>
      </trkpt>
      <trkpt lat="43.62463" lon="3.73699">
        <ele>120.2734375</ele>
        <time>2020-12-03T10:54:50Z</time>
      </trkpt>
      <trkpt lat="43.62461" lon="3.73711">
        <ele>119.73046875</ele>
        <time>2020-12-03T10:55:00Z</time>
      </trkpt>
      <trkpt lat="43.62458" lon="3.73713">
        <ele>119.81640625</ele>
        <time>2020-12-03T10:55:07Z</time>
      </trkpt>
      <trkpt lat="43.62456" lon="3.7372">
        <ele>119.59765625</ele>
        <time>2020-12-03T10:55:16Z</time>
      </trkpt>
      <trkpt lat="43.62453" lon="3.73733">
        <ele>119.14453125</ele>
        <time>2020-12-03T10:55:25Z</time>
      </trkpt>
      <trkpt lat="43.62452" lon="3.73738">
        <ele>118.93359375</ele>
        <time>2020-12-03T10:55:29Z</time>
      </trkpt>
      <trkpt lat="43.6245" lon="3.73753">
        <ele>118.26171875</ele>
        <time>2020-12-03T10:55:39Z</time>
      </trkpt>
      <trkpt lat="43.62446" lon="3.73765">
        <ele>117.8984375</ele>
        <time>2020-12-03T10:55:48Z</time>
      </trkpt>
      <trkpt lat="43.62442" lon="3.73778">
        <ele>117.47265625</ele>
        <time>2020-12-03T10:55:58Z</time>
      </trkpt>
      <trkpt lat="43.6244" lon="3.73793">
        <ele>116.84765625</ele>
        <time>2020-12-03T10:56:09Z</time>
      </trkpt>
      <trkpt lat="43.62435" lon="3.73812">
        <ele>116.15625</ele>
        <time>2020-12-03T10:56:22Z</time>
      </trkpt>
      <trkpt lat="43.62433" lon="3.73821">
        <ele>115.8125</ele>
        <time>2020-12-03T10:56:29Z</time>
      </trkpt>
      <trkpt lat="43.62427" lon="3.73835">
        <ele>115.46484375</ele>
        <time>2020-12-03T10:56:40Z</time>
      </trkpt>
      <trkpt lat="43.62424" lon="3.73853">
        <ele>114.71484375</ele>
        <time>2020-12-03T10:56:53Z</time>
      </trkpt>
      <trkpt lat="43.62422" lon="3.73866">
        <ele>114.11328125</ele>
        <time>2020-12-03T10:57:03Z</time>
      </trkpt>
      <trkpt lat="43.62421" lon="3.73875">
        <ele>113.6328125</ele>
        <time>2020-12-03T10:57:10Z</time>
      </trkpt>
      <trkpt lat="43.62421" lon="3.73888">
        <ele>113.0546875</ele>
        <time>2020-12-03T10:57:20Z</time>
      </trkpt>
      <trkpt lat="43.62429" lon="3.73891">
        <ele>112.71875</ele>
        <time>2020-12-03T10:57:31Z</time>
      </trkpt>
      <trkpt lat="43.62436" lon="3.7388">
        <ele>112.80078125</ele>
        <time>2020-12-03T10:57:44Z</time>
      </trkpt>
      <trkpt lat="43.62436" lon="3.7388">
        <ele>112.7734375</ele>
        <time>2020-12-03T10:57:53Z</time>
      </trkpt>
      <trkpt lat="43.62438" lon="3.73887">
        <ele>112.48046875</ele>
        <time>2020-12-03T10:58:00Z</time>
      </trkpt>
      <trkpt lat="43.6244" lon="3.73887">
        <ele>112.3984375</ele>
        <time>2020-12-03T10:58:03Z</time>
      </trkpt>
      <trkpt lat="43.62444" lon="3.73887">
        <ele>112.265625</ele>
        <time>2020-12-03T10:58:07Z</time>
      </trkpt>
      <trkpt lat="43.62455" lon="3.73886">
        <ele>112.01953125</ele>
        <time>2020-12-03T10:58:18Z</time>
      </trkpt>
      <trkpt lat="43.62463" lon="3.73887">
        <ele>112.3125</ele>
        <time>2020-12-03T10:58:27Z</time>
      </trkpt>
      <trkpt lat="43.62473" lon="3.73891">
        <ele>112.62890625</ele>
        <time>2020-12-03T10:58:39Z</time>
      </trkpt>
      <trkpt lat="43.62477" lon="3.73891">
        <ele>112.77734375</ele>
        <time>2020-12-03T10:58:46Z</time>
      </trkpt>
      <trkpt lat="43.62477" lon="3.73894">
        <ele>112.765625</ele>
        <time>2020-12-03T10:58:57Z</time>
      </trkpt>
      <trkpt lat="43.62479" lon="3.73897">
        <ele>112.7890625</ele>
        <time>2020-12-03T10:59:00Z</time>
      </trkpt>
      <trkpt lat="43.62484" lon="3.73909">
        <ele>112.890625</ele>
        <time>2020-12-03T10:59:10Z</time>
      </trkpt>
      <trkpt lat="43.62488" lon="3.73918">
        <ele>113.0390625</ele>
        <time>2020-12-03T10:59:18Z</time>
      </trkpt>
      <trkpt lat="43.62496" lon="3.73926">
        <ele>113.34765625</ele>
        <time>2020-12-03T10:59:28Z</time>
      </trkpt>
      <trkpt lat="43.62509" lon="3.7393">
        <ele>114.02734375</ele>
        <time>2020-12-03T10:59:42Z</time>
      </trkpt>
      <trkpt lat="43.62523" lon="3.7393">
        <ele>114.8125</ele>
        <time>2020-12-03T10:59:56Z</time>
      </trkpt>
      <trkpt lat="43.62532" lon="3.73932">
        <ele>115.31640625</ele>
        <time>2020-12-03T11:00:07Z</time>
      </trkpt>
      <trkpt lat="43.62528" lon="3.73938">
        <ele>115.078125</ele>
        <time>2020-12-03T11:00:16Z</time>
      </trkpt>
      <trkpt lat="43.62524" lon="3.73944">
        <ele>114.734375</ele>
        <time>2020-12-03T11:00:26Z</time>
      </trkpt>
      <trkpt lat="43.62526" lon="3.7395">
        <ele>114.6875</ele>
        <time>2020-12-03T11:00:38Z</time>
      </trkpt>
      <trkpt lat="43.62528" lon="3.73962">
        <ele>114.4921875</ele>
        <time>2020-12-03T11:00:48Z</time>
      </trkpt>
      <trkpt lat="43.62528" lon="3.73964">
        <ele>114.4375</ele>
        <time>2020-12-03T11:00:54Z</time>
      </trkpt>
      <trkpt lat="43.62527" lon="3.73965">
        <ele>114.375</ele>
        <time>2020-12-03T11:01:13Z</time>
      </trkpt>
      <trkpt lat="43.62528" lon="3.73966">
        <ele>114.3671875</ele>
        <time>2020-12-03T11:01:24Z</time>
      </trkpt>
      <trkpt lat="43.62528" lon="3.73966">
        <ele>114.38671875</ele>
        <time>2020-12-03T11:01:48Z</time>
      </trkpt>
      <trkpt lat="43.62526" lon="3.73969">
        <ele>114.2265625</ele>
        <time>2020-12-03T11:02:03Z</time>
      </trkpt>
      <trkpt lat="43.62524" lon="3.7397">
        <ele>114.13671875</ele>
        <time>2020-12-03T11:02:16Z</time>
      </trkpt>
      <trkpt lat="43.62524" lon="3.73971">
        <ele>114.11328125</ele>
        <time>2020-12-03T11:02:34Z</time>
      </trkpt>
      <trkpt lat="43.62525" lon="3.73974">
        <ele>114.078125</ele>
        <time>2020-12-03T11:02:50Z</time>
      </trkpt>
      <trkpt lat="43.62526" lon="3.73974">
        <ele>114.12109375</ele>
        <time>2020-12-03T11:03:08Z</time>
      </trkpt>
      <trkpt lat="43.62525" lon="3.73968">
        <ele>114.1953125</ele>
        <time>2020-12-03T11:03:25Z</time>
      </trkpt>
      <trkpt lat="43.62522" lon="3.73969">
        <ele>114.0390625</ele>
        <time>2020-12-03T11:03:43Z</time>
      </trkpt>
      <trkpt lat="43.62523" lon="3.73969">
        <ele>114.08984375</ele>
        <time>2020-12-03T11:03:59Z</time>
      </trkpt>
      <trkpt lat="43.62523" lon="3.73967">
        <ele>114.13671875</ele>
        <time>2020-12-03T11:04:15Z</time>
      </trkpt>
      <trkpt lat="43.62525" lon="3.73973">
        <ele>114.08984375</ele>
        <time>2020-12-03T11:04:26Z</time>
      </trkpt>
      <trkpt lat="43.62525" lon="3.73968">
        <ele>114.1953125</ele>
        <time>2020-12-03T11:04:36Z</time>
      </trkpt>
      <trkpt lat="43.62526" lon="3.73968">
        <ele>114.24609375</ele>
        <time>2020-12-03T11:04:54Z</time>
      </trkpt>
      <trkpt lat="43.62526" lon="3.73967">
        <ele>114.25390625</ele>
        <time>2020-12-03T11:05:08Z</time>
      </trkpt>
      <trkpt lat="43.62525" lon="3.73967">
        <ele>114.234375</ele>
        <time>2020-12-03T11:05:23Z</time>
      </trkpt>
      <trkpt lat="43.62525" lon="3.73969">
        <ele>114.20703125</ele>
        <time>2020-12-03T11:05:32Z</time>
      </trkpt>
      <trkpt lat="43.62526" lon="3.73967">
        <ele>114.2578125</ele>
        <time>2020-12-03T11:05:49Z</time>
      </trkpt>
      <trkpt lat="43.62526" lon="3.73966">
        <ele>114.30078125</ele>
        <time>2020-12-03T11:06:07Z</time>
      </trkpt>
      <trkpt lat="43.62525" lon="3.73968">
        <ele>114.1953125</ele>
        <time>2020-12-03T11:06:23Z</time>
      </trkpt>
      <trkpt lat="43.62526" lon="3.73968">
        <ele>114.265625</ele>
        <time>2020-12-03T11:06:41Z</time>
      </trkpt>
      <trkpt lat="43.62526" lon="3.73968">
        <ele>114.23828125</ele>
        <time>2020-12-03T11:06:58Z</time>
      </trkpt>
      <trkpt lat="43.62525" lon="3.73966">
        <ele>114.23046875</ele>
        <time>2020-12-03T11:07:10Z</time>
      </trkpt>
      <trkpt lat="43.62525" lon="3.73967">
        <ele>114.22265625</ele>
        <time>2020-12-03T11:07:23Z</time>
      </trkpt>
      <trkpt lat="43.62525" lon="3.73966">
        <ele>114.2578125</ele>
        <time>2020-12-03T11:07:46Z</time>
      </trkpt>
      <trkpt lat="43.62525" lon="3.73965">
        <ele>114.2734375</ele>
        <time>2020-12-03T11:07:56Z</time>
      </trkpt>
      <trkpt lat="43.62525" lon="3.73964">
        <ele>114.26953125</ele>
        <time>2020-12-03T11:08:09Z</time>
      </trkpt>
      <trkpt lat="43.62525" lon="3.73965">
        <ele>114.2578125</ele>
        <time>2020-12-03T11:08:25Z</time>
      </trkpt>
      <trkpt lat="43.62525" lon="3.73965">
        <ele>114.25</ele>
        <time>2020-12-03T11:08:38Z</time>
      </trkpt>
      <trkpt lat="43.62525" lon="3.73965">
        <ele>114.25</ele>
        <time>2020-12-03T11:08:47Z</time>
      </trkpt>
      <trkpt lat="43.62524" lon="3.73966">
        <ele>114.22265625</ele>
        <time>2020-12-03T11:09:06Z</time>
      </trkpt>
      <trkpt lat="43.62526" lon="3.7397">
        <ele>114.19921875</ele>
        <time>2020-12-03T11:09:25Z</time>
      </trkpt>
      <trkpt lat="43.62528" lon="3.73976">
        <ele>114.1328125</ele>
        <time>2020-12-03T11:09:33Z</time>
      </trkpt>
      <trkpt lat="43.62528" lon="3.73979">
        <ele>114.08203125</ele>
        <time>2020-12-03T11:09:40Z</time>
      </trkpt>
      <trkpt lat="43.6253" lon="3.73987">
        <ele>113.953125</ele>
        <time>2020-12-03T11:09:49Z</time>
      </trkpt>
      <trkpt lat="43.62531" lon="3.7399">
        <ele>113.89453125</ele>
        <time>2020-12-03T11:09:57Z</time>
      </trkpt>
      <trkpt lat="43.6253" lon="3.73991">
        <ele>113.84375</ele>
        <time>2020-12-03T11:10:08Z</time>
      </trkpt>
      <trkpt lat="43.6253" lon="3.73991">
        <ele>113.8671875</ele>
        <time>2020-12-03T11:10:32Z</time>
      </trkpt>
      <trkpt lat="43.6253" lon="3.73991">
        <ele>113.875</ele>
        <time>2020-12-03T11:10:49Z</time>
      </trkpt>
      <trkpt lat="43.6253" lon="3.73991">
        <ele>113.8671875</ele>
        <time>2020-12-03T11:11:03Z</time>
      </trkpt>
      <trkpt lat="43.6253" lon="3.7399">
        <ele>113.88671875</ele>
        <time>2020-12-03T11:11:29Z</time>
      </trkpt>
      <trkpt lat="43.6253" lon="3.7399">
        <ele>113.890625</ele>
        <time>2020-12-03T11:11:53Z</time>
      </trkpt>
      <trkpt lat="43.6253" lon="3.73991">
        <ele>113.87109375</ele>
        <time>2020-12-03T11:12:06Z</time>
      </trkpt>
      <trkpt lat="43.6253" lon="3.73991">
        <ele>113.8671875</ele>
        <time>2020-12-03T11:12:16Z</time>
      </trkpt>
      <trkpt lat="43.62531" lon="3.7399">
        <ele>113.8984375</ele>
        <time>2020-12-03T11:12:35Z</time>
      </trkpt>
      <trkpt lat="43.62531" lon="3.7399">
        <ele>113.91796875</ele>
        <time>2020-12-03T11:12:49Z</time>
      </trkpt>
      <trkpt lat="43.62531" lon="3.7399">
        <ele>113.91796875</ele>
        <time>2020-12-03T11:13:19Z</time>
      </trkpt>
      <trkpt lat="43.62534" lon="3.73991">
        <ele>114.0234375</ele>
        <time>2020-12-03T11:13:30Z</time>
      </trkpt>
      <trkpt lat="43.62533" lon="3.7399">
        <ele>113.98828125</ele>
        <time>2020-12-03T11:13:44Z</time>
      </trkpt>
      <trkpt lat="43.62532" lon="3.73989">
        <ele>113.97265625</ele>
        <time>2020-12-03T11:13:54Z</time>
      </trkpt>
      <trkpt lat="43.62531" lon="3.73984">
        <ele>114.09375</ele>
        <time>2020-12-03T11:14:05Z</time>
      </trkpt>
      <trkpt lat="43.62532" lon="3.73983">
        <ele>114.1171875</ele>
        <time>2020-12-03T11:14:14Z</time>
      </trkpt>
      <trkpt lat="43.62532" lon="3.73986">
        <ele>114.06640625</ele>
        <time>2020-12-03T11:14:34Z</time>
      </trkpt>
      <trkpt lat="43.6253" lon="3.73988">
        <ele>113.92578125</ele>
        <time>2020-12-03T11:14:40Z</time>
      </trkpt>
      <trkpt lat="43.6253" lon="3.73988">
        <ele>113.9140625</ele>
        <time>2020-12-03T11:14:51Z</time>
      </trkpt>
      <trkpt lat="43.6253" lon="3.73989">
        <ele>113.91015625</ele>
        <time>2020-12-03T11:15:01Z</time>
      </trkpt>
      <trkpt lat="43.6253" lon="3.73989">
        <ele>113.89453125</ele>
        <time>2020-12-03T11:15:18Z</time>
      </trkpt>
      <trkpt lat="43.6253" lon="3.73989">
        <ele>113.890625</ele>
        <time>2020-12-03T11:15:31Z</time>
      </trkpt>
      <trkpt lat="43.6253" lon="3.73988">
        <ele>113.92578125</ele>
        <time>2020-12-03T11:15:42Z</time>
      </trkpt>
      <trkpt lat="43.6253" lon="3.73988">
        <ele>113.921875</ele>
        <time>2020-12-03T11:16:04Z</time>
      </trkpt>
      <trkpt lat="43.62531" lon="3.73987">
        <ele>113.97265625</ele>
        <time>2020-12-03T11:16:18Z</time>
      </trkpt>
      <trkpt lat="43.6253" lon="3.73987">
        <ele>113.96875</ele>
        <time>2020-12-03T11:16:39Z</time>
      </trkpt>
      <trkpt lat="43.6253" lon="3.73987">
        <ele>113.9765625</ele>
        <time>2020-12-03T11:17:03Z</time>
      </trkpt>
      <trkpt lat="43.62531" lon="3.73987">
        <ele>113.984375</ele>
        <time>2020-12-03T11:17:37Z</time>
      </trkpt>
      <trkpt lat="43.62531" lon="3.73992">
        <ele>113.86328125</ele>
        <time>2020-12-03T11:17:45Z</time>
      </trkpt>
      <trkpt lat="43.6253" lon="3.73992">
        <ele>113.82421875</ele>
        <time>2020-12-03T11:17:51Z</time>
      </trkpt>
      <trkpt lat="43.62531" lon="3.73987">
        <ele>113.97265625</ele>
        <time>2020-12-03T11:18:00Z</time>
      </trkpt>
      <trkpt lat="43.62531" lon="3.73987">
        <ele>113.98828125</ele>
        <time>2020-12-03T11:18:11Z</time>
      </trkpt>
      <trkpt lat="43.6253" lon="3.73987">
        <ele>113.9609375</ele>
        <time>2020-12-03T11:18:28Z</time>
      </trkpt>
      <trkpt lat="43.6253" lon="3.73987">
        <ele>113.96484375</ele>
        <time>2020-12-03T11:18:49Z</time>
      </trkpt>
      <trkpt lat="43.62531" lon="3.73989">
        <ele>113.94921875</ele>
        <time>2020-12-03T11:18:59Z</time>
      </trkpt>
      <trkpt lat="43.62531" lon="3.73999">
        <ele>113.6953125</ele>
        <time>2020-12-03T11:19:08Z</time>
      </trkpt>
      <trkpt lat="43.62533" lon="3.74007">
        <ele>113.546875</ele>
        <time>2020-12-03T11:19:15Z</time>
      </trkpt>
      <trkpt lat="43.62533" lon="3.74021">
        <ele>113.1796875</ele>
        <time>2020-12-03T11:19:26Z</time>
      </trkpt>
      <trkpt lat="43.62532" lon="3.74037">
        <ele>112.75</ele>
        <time>2020-12-03T11:19:38Z</time>
      </trkpt>
      <trkpt lat="43.62533" lon="3.74049">
        <ele>112.46875</ele>
        <time>2020-12-03T11:19:47Z</time>
      </trkpt>
      <trkpt lat="43.62534" lon="3.74056">
        <ele>112.35546875</ele>
        <time>2020-12-03T11:19:53Z</time>
      </trkpt>
      <trkpt lat="43.62534" lon="3.7406">
        <ele>112.27734375</ele>
        <time>2020-12-03T11:20:00Z</time>
      </trkpt>
      <trkpt lat="43.62534" lon="3.74064">
        <ele>112.21484375</ele>
        <time>2020-12-03T11:20:03Z</time>
      </trkpt>
      <trkpt lat="43.62537" lon="3.74078">
        <ele>111.9921875</ele>
        <time>2020-12-03T11:20:13Z</time>
      </trkpt>
      <trkpt lat="43.62537" lon="3.74085">
        <ele>111.890625</ele>
        <time>2020-12-03T11:20:21Z</time>
      </trkpt>
      <trkpt lat="43.62538" lon="3.74094">
        <ele>111.734375</ele>
        <time>2020-12-03T11:20:31Z</time>
      </trkpt>
      <trkpt lat="43.62534" lon="3.74099">
        <ele>111.56640625</ele>
        <time>2020-12-03T11:20:38Z</time>
      </trkpt>
      <trkpt lat="43.62532" lon="3.74101">
        <ele>111.49609375</ele>
        <time>2020-12-03T11:20:48Z</time>
      </trkpt>
      <trkpt lat="43.62531" lon="3.74099">
        <ele>111.51953125</ele>
        <time>2020-12-03T11:21:00Z</time>
      </trkpt>
      <trkpt lat="43.62532" lon="3.74099">
        <ele>111.53125</ele>
        <time>2020-12-03T11:21:15Z</time>
      </trkpt>
      <trkpt lat="43.62534" lon="3.74098">
        <ele>111.59765625</ele>
        <time>2020-12-03T11:21:27Z</time>
      </trkpt>
      <trkpt lat="43.62534" lon="3.74097">
        <ele>111.61328125</ele>
        <time>2020-12-03T11:21:44Z</time>
      </trkpt>
      <trkpt lat="43.62534" lon="3.74097">
        <ele>111.62109375</ele>
        <time>2020-12-03T11:22:02Z</time>
      </trkpt>
      <trkpt lat="43.62535" lon="3.74096">
        <ele>111.6328125</ele>
        <time>2020-12-03T11:22:20Z</time>
      </trkpt>
      <trkpt lat="43.62533" lon="3.74098">
        <ele>111.578125</ele>
        <time>2020-12-03T11:22:39Z</time>
      </trkpt>
      <trkpt lat="43.62534" lon="3.74097">
        <ele>111.6015625</ele>
        <time>2020-12-03T11:22:55Z</time>
      </trkpt>
      <trkpt lat="43.62531" lon="3.74099">
        <ele>111.52734375</ele>
        <time>2020-12-03T11:23:12Z</time>
      </trkpt>
      <trkpt lat="43.62531" lon="3.741">
        <ele>111.5078125</ele>
        <time>2020-12-03T11:23:30Z</time>
      </trkpt>
      <trkpt lat="43.62532" lon="3.74098">
        <ele>111.5546875</ele>
        <time>2020-12-03T11:23:57Z</time>
      </trkpt>
      <trkpt lat="43.62533" lon="3.74098">
        <ele>111.5625</ele>
        <time>2020-12-03T11:24:30Z</time>
      </trkpt>
      <trkpt lat="43.62533" lon="3.74098">
        <ele>111.578125</ele>
        <time>2020-12-03T11:24:58Z</time>
      </trkpt>
      <trkpt lat="43.62535" lon="3.74097">
        <ele>111.6328125</ele>
        <time>2020-12-03T11:25:18Z</time>
      </trkpt>
      <trkpt lat="43.62535" lon="3.74096">
        <ele>111.63671875</ele>
        <time>2020-12-03T11:25:37Z</time>
      </trkpt>
      <trkpt lat="43.62536" lon="3.74096">
        <ele>111.66796875</ele>
        <time>2020-12-03T11:25:54Z</time>
      </trkpt>
      <trkpt lat="43.62535" lon="3.74095">
        <ele>111.65234375</ele>
        <time>2020-12-03T11:26:18Z</time>
      </trkpt>
      <trkpt lat="43.62533" lon="3.74096">
        <ele>111.609375</ele>
        <time>2020-12-03T11:26:33Z</time>
      </trkpt>
      <trkpt lat="43.62533" lon="3.74096">
        <ele>111.6171875</ele>
        <time>2020-12-03T11:26:47Z</time>
      </trkpt>
      <trkpt lat="43.62534" lon="3.74098">
        <ele>111.58984375</ele>
        <time>2020-12-03T11:27:04Z</time>
      </trkpt>
      <trkpt lat="43.62534" lon="3.74097">
        <ele>111.61328125</ele>
        <time>2020-12-03T11:27:21Z</time>
      </trkpt>
      <trkpt lat="43.62534" lon="3.74095">
        <ele>111.64453125</ele>
        <time>2020-12-03T11:27:41Z</time>
      </trkpt>
      <trkpt lat="43.62535" lon="3.74096">
        <ele>111.640625</ele>
        <time>2020-12-03T11:28:00Z</time>
      </trkpt>
      <trkpt lat="43.62534" lon="3.74097">
        <ele>111.609375</ele>
        <time>2020-12-03T11:28:17Z</time>
      </trkpt>
      <trkpt lat="43.62534" lon="3.74098">
        <ele>111.58984375</ele>
        <time>2020-12-03T11:28:32Z</time>
      </trkpt>
      <trkpt lat="43.62534" lon="3.74097">
        <ele>111.59765625</ele>
        <time>2020-12-03T11:28:52Z</time>
      </trkpt>
      <trkpt lat="43.62535" lon="3.74097">
        <ele>111.62109375</ele>
        <time>2020-12-03T11:29:13Z</time>
      </trkpt>
      <trkpt lat="43.62534" lon="3.74098">
        <ele>111.58984375</ele>
        <time>2020-12-03T11:29:32Z</time>
      </trkpt>
      <trkpt lat="43.62533" lon="3.74097">
        <ele>111.59765625</ele>
        <time>2020-12-03T11:29:52Z</time>
      </trkpt>
      <trkpt lat="43.62533" lon="3.74097">
        <ele>111.59375</ele>
        <time>2020-12-03T11:30:11Z</time>
      </trkpt>
      <trkpt lat="43.62535" lon="3.74096">
        <ele>111.6328125</ele>
        <time>2020-12-03T11:30:29Z</time>
      </trkpt>
      <trkpt lat="43.62535" lon="3.74098">
        <ele>111.60546875</ele>
        <time>2020-12-03T11:30:43Z</time>
      </trkpt>
      <trkpt lat="43.62536" lon="3.74097">
        <ele>111.65625</ele>
        <time>2020-12-03T11:31:00Z</time>
      </trkpt>
      <trkpt lat="43.62536" lon="3.74098">
        <ele>111.6328125</ele>
        <time>2020-12-03T11:31:16Z</time>
      </trkpt>
      <trkpt lat="43.62536" lon="3.74097">
        <ele>111.64453125</ele>
        <time>2020-12-03T11:31:34Z</time>
      </trkpt>
      <trkpt lat="43.62535" lon="3.74098">
        <ele>111.609375</ele>
        <time>2020-12-03T11:31:53Z</time>
      </trkpt>
      <trkpt lat="43.62537" lon="3.74095">
        <ele>111.6953125</ele>
        <time>2020-12-03T11:32:14Z</time>
      </trkpt>
      <trkpt lat="43.62535" lon="3.74098">
        <ele>111.625</ele>
        <time>2020-12-03T11:32:32Z</time>
      </trkpt>
      <trkpt lat="43.62535" lon="3.74098">
        <ele>111.6015625</ele>
        <time>2020-12-03T11:32:47Z</time>
      </trkpt>
      <trkpt lat="43.62535" lon="3.74097">
        <ele>111.62890625</ele>
        <time>2020-12-03T11:33:00Z</time>
      </trkpt>
      <trkpt lat="43.62534" lon="3.741">
        <ele>111.5390625</ele>
        <time>2020-12-03T11:33:18Z</time>
      </trkpt>
      <trkpt lat="43.62534" lon="3.74101">
        <ele>111.52734375</ele>
        <time>2020-12-03T11:33:37Z</time>
      </trkpt>
      <trkpt lat="43.62538" lon="3.74095">
        <ele>111.7265625</ele>
        <time>2020-12-03T11:33:55Z</time>
      </trkpt>
      <trkpt lat="43.62533" lon="3.74099">
        <ele>111.55078125</ele>
        <time>2020-12-03T11:35:09Z</time>
      </trkpt>
      <trkpt lat="43.62531" lon="3.74098">
        <ele>111.53515625</ele>
        <time>2020-12-03T11:35:28Z</time>
      </trkpt>
      <trkpt lat="43.62531" lon="3.74099">
        <ele>111.51171875</ele>
        <time>2020-12-03T11:35:47Z</time>
      </trkpt>
      <trkpt lat="43.62531" lon="3.741">
        <ele>111.50390625</ele>
        <time>2020-12-03T11:36:05Z</time>
      </trkpt>
      <trkpt lat="43.62531" lon="3.74101">
        <ele>111.48828125</ele>
        <time>2020-12-03T11:36:23Z</time>
      </trkpt>
      <trkpt lat="43.62531" lon="3.741">
        <ele>111.48828125</ele>
        <time>2020-12-03T11:36:42Z</time>
      </trkpt>
      <trkpt lat="43.62531" lon="3.741">
        <ele>111.5</ele>
        <time>2020-12-03T11:37:02Z</time>
      </trkpt>
      <trkpt lat="43.6253" lon="3.741">
        <ele>111.4921875</ele>
        <time>2020-12-03T11:37:20Z</time>
      </trkpt>
      <trkpt lat="43.6253" lon="3.74099">
        <ele>111.50390625</ele>
        <time>2020-12-03T11:37:39Z</time>
      </trkpt>
      <trkpt lat="43.6253" lon="3.74099">
        <ele>111.5078125</ele>
        <time>2020-12-03T11:37:55Z</time>
      </trkpt>
      <trkpt lat="43.62532" lon="3.74099">
        <ele>111.5234375</ele>
        <time>2020-12-03T11:38:13Z</time>
      </trkpt>
      <trkpt lat="43.62531" lon="3.74101">
        <ele>111.49609375</ele>
        <time>2020-12-03T11:38:31Z</time>
      </trkpt>
      <trkpt lat="43.62532" lon="3.74101">
        <ele>111.5</ele>
        <time>2020-12-03T11:38:49Z</time>
      </trkpt>
      <trkpt lat="43.62531" lon="3.741">
        <ele>111.51171875</ele>
        <time>2020-12-03T11:39:06Z</time>
      </trkpt>
      <trkpt lat="43.62531" lon="3.74101">
        <ele>111.4921875</ele>
        <time>2020-12-03T11:39:25Z</time>
      </trkpt>
      <trkpt lat="43.62533" lon="3.741">
        <ele>111.53125</ele>
        <time>2020-12-03T11:39:42Z</time>
      </trkpt>
      <trkpt lat="43.62534" lon="3.74099">
        <ele>111.56640625</ele>
        <time>2020-12-03T11:39:59Z</time>
      </trkpt>
      <trkpt lat="43.62533" lon="3.74097">
        <ele>111.58203125</ele>
        <time>2020-12-03T11:40:14Z</time>
      </trkpt>
      <trkpt lat="43.62533" lon="3.741">
        <ele>111.53515625</ele>
        <time>2020-12-03T11:40:32Z</time>
      </trkpt>
      <trkpt lat="43.62532" lon="3.741">
        <ele>111.52734375</ele>
        <time>2020-12-03T11:40:50Z</time>
      </trkpt>
      <trkpt lat="43.62531" lon="3.74101">
        <ele>111.48828125</ele>
        <time>2020-12-03T11:41:07Z</time>
      </trkpt>
      <trkpt lat="43.62531" lon="3.74102">
        <ele>111.4609375</ele>
        <time>2020-12-03T11:41:25Z</time>
      </trkpt>
      <trkpt lat="43.62534" lon="3.74101">
        <ele>111.53515625</ele>
        <time>2020-12-03T11:41:38Z</time>
      </trkpt>
      <trkpt lat="43.62533" lon="3.741">
        <ele>111.546875</ele>
        <time>2020-12-03T11:41:52Z</time>
      </trkpt>
      <trkpt lat="43.62533" lon="3.741">
        <ele>111.54296875</ele>
        <time>2020-12-03T11:42:11Z</time>
      </trkpt>
      <trkpt lat="43.62534" lon="3.74102">
        <ele>111.51953125</ele>
        <time>2020-12-03T11:42:27Z</time>
      </trkpt>
      <trkpt lat="43.62533" lon="3.74102">
        <ele>111.50390625</ele>
        <time>2020-12-03T11:42:45Z</time>
      </trkpt>
      <trkpt lat="43.62533" lon="3.74099">
        <ele>111.5546875</ele>
        <time>2020-12-03T11:43:01Z</time>
      </trkpt>
      <trkpt lat="43.62535" lon="3.741">
        <ele>111.55859375</ele>
        <time>2020-12-03T11:43:15Z</time>
      </trkpt>
      <trkpt lat="43.62534" lon="3.74102">
        <ele>111.51953125</ele>
        <time>2020-12-03T11:43:32Z</time>
      </trkpt>
      <trkpt lat="43.62533" lon="3.74099">
        <ele>111.55859375</ele>
        <time>2020-12-03T11:44:03Z</time>
      </trkpt>
      <trkpt lat="43.62534" lon="3.74099">
        <ele>111.578125</ele>
        <time>2020-12-03T11:44:06Z</time>
      </trkpt>
      <trkpt lat="43.62531" lon="3.741">
        <ele>111.50390625</ele>
        <time>2020-12-03T11:44:27Z</time>
      </trkpt>
      <trkpt lat="43.62531" lon="3.74101">
        <ele>111.47265625</ele>
        <time>2020-12-03T11:44:44Z</time>
      </trkpt>
      <trkpt lat="43.62531" lon="3.74101">
        <ele>111.4765625</ele>
        <time>2020-12-03T11:45:01Z</time>
      </trkpt>
      <trkpt lat="43.62533" lon="3.74101">
        <ele>111.51171875</ele>
        <time>2020-12-03T11:45:16Z</time>
      </trkpt>
      <trkpt lat="43.62536" lon="3.74099">
        <ele>111.60546875</ele>
        <time>2020-12-03T11:45:40Z</time>
      </trkpt>
      <trkpt lat="43.62536" lon="3.74099">
        <ele>111.62109375</ele>
        <time>2020-12-03T11:45:58Z</time>
      </trkpt>
      <trkpt lat="43.62535" lon="3.74099">
        <ele>111.59375</ele>
        <time>2020-12-03T11:46:17Z</time>
      </trkpt>
      <trkpt lat="43.62535" lon="3.74097">
        <ele>111.6171875</ele>
        <time>2020-12-03T11:46:30Z</time>
      </trkpt>
      <trkpt lat="43.62533" lon="3.741">
        <ele>111.53515625</ele>
        <time>2020-12-03T11:46:41Z</time>
      </trkpt>
      <trkpt lat="43.62531" lon="3.74099">
        <ele>111.51953125</ele>
        <time>2020-12-03T11:46:58Z</time>
      </trkpt>
      <trkpt lat="43.62531" lon="3.741">
        <ele>111.5</ele>
        <time>2020-12-03T11:47:14Z</time>
      </trkpt>
      <trkpt lat="43.62531" lon="3.741">
        <ele>111.5</ele>
        <time>2020-12-03T11:47:34Z</time>
      </trkpt>
      <trkpt lat="43.6253" lon="3.741">
        <ele>111.48828125</ele>
        <time>2020-12-03T11:47:53Z</time>
      </trkpt>
      <trkpt lat="43.62529" lon="3.74099">
        <ele>111.484375</ele>
        <time>2020-12-03T11:48:13Z</time>
      </trkpt>
      <trkpt lat="43.62529" lon="3.74099">
        <ele>111.48046875</ele>
        <time>2020-12-03T11:48:30Z</time>
      </trkpt>
      <trkpt lat="43.62529" lon="3.74099">
        <ele>111.484375</ele>
        <time>2020-12-03T11:48:46Z</time>
      </trkpt>
      <trkpt lat="43.62531" lon="3.741">
        <ele>111.49609375</ele>
        <time>2020-12-03T11:49:02Z</time>
      </trkpt>
      <trkpt lat="43.6253" lon="3.74098">
        <ele>111.5234375</ele>
        <time>2020-12-03T11:49:21Z</time>
      </trkpt>
      <trkpt lat="43.6253" lon="3.74098">
        <ele>111.515625</ele>
        <time>2020-12-03T11:49:39Z</time>
      </trkpt>
      <trkpt lat="43.6253" lon="3.741">
        <ele>111.4921875</ele>
        <time>2020-12-03T11:49:55Z</time>
      </trkpt>
      <trkpt lat="43.62531" lon="3.74101">
        <ele>111.4765625</ele>
        <time>2020-12-03T11:50:13Z</time>
      </trkpt>
      <trkpt lat="43.6253" lon="3.74101">
        <ele>111.4609375</ele>
        <time>2020-12-03T11:50:31Z</time>
      </trkpt>
      <trkpt lat="43.62531" lon="3.741">
        <ele>111.5078125</ele>
        <time>2020-12-03T11:51:05Z</time>
      </trkpt>
      <trkpt lat="43.62532" lon="3.74101">
        <ele>111.50390625</ele>
        <time>2020-12-03T11:51:22Z</time>
      </trkpt>
      <trkpt lat="43.62533" lon="3.74101">
        <ele>111.5078125</ele>
        <time>2020-12-03T11:51:40Z</time>
      </trkpt>
      <trkpt lat="43.62532" lon="3.741">
        <ele>111.52734375</ele>
        <time>2020-12-03T11:51:58Z</time>
      </trkpt>
      <trkpt lat="43.62533" lon="3.74099">
        <ele>111.54296875</ele>
        <time>2020-12-03T11:52:08Z</time>
      </trkpt>
      <trkpt lat="43.62532" lon="3.74099">
        <ele>111.53125</ele>
        <time>2020-12-03T11:52:28Z</time>
      </trkpt>
      <trkpt lat="43.62532" lon="3.741">
        <ele>111.5234375</ele>
        <time>2020-12-03T11:52:29Z</time>
      </trkpt>
      <trkpt lat="43.62533" lon="3.74102">
        <ele>111.4921875</ele>
        <time>2020-12-03T11:52:48Z</time>
      </trkpt>
      <trkpt lat="43.62534" lon="3.74101">
        <ele>111.5390625</ele>
        <time>2020-12-03T11:53:06Z</time>
      </trkpt>
      <trkpt lat="43.62532" lon="3.74101">
        <ele>111.50390625</ele>
        <time>2020-12-03T11:53:18Z</time>
      </trkpt>
      <trkpt lat="43.62531" lon="3.74098">
        <ele>111.5234375</ele>
        <time>2020-12-03T11:53:30Z</time>
      </trkpt>
      <trkpt lat="43.62532" lon="3.74095">
        <ele>111.59765625</ele>
        <time>2020-12-03T11:53:42Z</time>
      </trkpt>
      <trkpt lat="43.62537" lon="3.74096">
        <ele>111.69140625</ele>
        <time>2020-12-03T11:53:52Z</time>
      </trkpt>
      <trkpt lat="43.62539" lon="3.741">
        <ele>111.6484375</ele>
        <time>2020-12-03T11:54:00Z</time>
      </trkpt>
      <trkpt lat="43.62542" lon="3.741">
        <ele>111.7109375</ele>
        <time>2020-12-03T11:54:15Z</time>
      </trkpt>
      <trkpt lat="43.62543" lon="3.74101">
        <ele>111.6953125</ele>
        <time>2020-12-03T11:54:29Z</time>
      </trkpt>
      <trkpt lat="43.62542" lon="3.74099">
        <ele>111.70703125</ele>
        <time>2020-12-03T11:54:46Z</time>
      </trkpt>
      <trkpt lat="43.62541" lon="3.74098">
        <ele>111.71484375</ele>
        <time>2020-12-03T11:55:10Z</time>
      </trkpt>
      <trkpt lat="43.6254" lon="3.74098">
        <ele>111.6953125</ele>
        <time>2020-12-03T11:55:26Z</time>
      </trkpt>
      <trkpt lat="43.62542" lon="3.74103">
        <ele>111.64453125</ele>
        <time>2020-12-03T11:55:37Z</time>
      </trkpt>
      <trkpt lat="43.62547" lon="3.74118">
        <ele>111.6171875</ele>
        <time>2020-12-03T11:55:50Z</time>
      </trkpt>
      <trkpt lat="43.6255" lon="3.74124">
        <ele>111.671875</ele>
        <time>2020-12-03T11:55:56Z</time>
      </trkpt>
      <trkpt lat="43.62558" lon="3.74135">
        <ele>111.828125</ele>
        <time>2020-12-03T11:56:08Z</time>
      </trkpt>
      <trkpt lat="43.62562" lon="3.74143">
        <ele>111.9375</ele>
        <time>2020-12-03T11:56:17Z</time>
      </trkpt>
      <trkpt lat="43.6256" lon="3.74156">
        <ele>111.859375</ele>
        <time>2020-12-03T11:56:30Z</time>
      </trkpt>
      <trkpt lat="43.6256" lon="3.74161">
        <ele>111.8359375</ele>
        <time>2020-12-03T11:56:42Z</time>
      </trkpt>
      <trkpt lat="43.62559" lon="3.7417">
        <ele>111.9609375</ele>
        <time>2020-12-03T11:56:49Z</time>
      </trkpt>
      <trkpt lat="43.62561" lon="3.74179">
        <ele>112.22265625</ele>
        <time>2020-12-03T11:56:57Z</time>
      </trkpt>
      <trkpt lat="43.62565" lon="3.74187">
        <ele>112.49609375</ele>
        <time>2020-12-03T11:57:02Z</time>
      </trkpt>
      <trkpt lat="43.62568" lon="3.74191">
        <ele>112.64453125</ele>
        <time>2020-12-03T11:57:07Z</time>
      </trkpt>
      <trkpt lat="43.62573" lon="3.74206">
        <ele>113.015625</ele>
        <time>2020-12-03T11:57:17Z</time>
      </trkpt>
      <trkpt lat="43.62578" lon="3.74224">
        <ele>113.12109375</ele>
        <time>2020-12-03T11:57:30Z</time>
      </trkpt>
      <trkpt lat="43.6258" lon="3.74234">
        <ele>112.97265625</ele>
        <time>2020-12-03T11:57:37Z</time>
      </trkpt>
      <trkpt lat="43.62581" lon="3.74252">
        <ele>112.66015625</ele>
        <time>2020-12-03T11:57:50Z</time>
      </trkpt>
      <trkpt lat="43.62584" lon="3.74262">
        <ele>112.53515625</ele>
        <time>2020-12-03T11:57:59Z</time>
      </trkpt>
      <trkpt lat="43.62584" lon="3.74263">
        <ele>112.53125</ele>
        <time>2020-12-03T11:58:00Z</time>
      </trkpt>
      <trkpt lat="43.62586" lon="3.74277">
        <ele>112.38671875</ele>
        <time>2020-12-03T11:58:10Z</time>
      </trkpt>
      <trkpt lat="43.62585" lon="3.74292">
        <ele>112.375</ele>
        <time>2020-12-03T11:58:21Z</time>
      </trkpt>
      <trkpt lat="43.62585" lon="3.74304">
        <ele>112.3671875</ele>
        <time>2020-12-03T11:58:29Z</time>
      </trkpt>
      <trkpt lat="43.62585" lon="3.74305">
        <ele>112.37109375</ele>
        <time>2020-12-03T11:58:37Z</time>
      </trkpt>
      <trkpt lat="43.62584" lon="3.74311">
        <ele>112.3515625</ele>
        <time>2020-12-03T11:58:43Z</time>
      </trkpt>
      <trkpt lat="43.62583" lon="3.74329">
        <ele>112.34375</ele>
        <time>2020-12-03T11:58:55Z</time>
      </trkpt>
      <trkpt lat="43.62584" lon="3.74341">
        <ele>112.44140625</ele>
        <time>2020-12-03T11:59:04Z</time>
      </trkpt>
      <trkpt lat="43.62585" lon="3.74356">
        <ele>112.578125</ele>
        <time>2020-12-03T11:59:15Z</time>
      </trkpt>
      <trkpt lat="43.62586" lon="3.74371">
        <ele>112.69140625</ele>
        <time>2020-12-03T11:59:26Z</time>
      </trkpt>
      <trkpt lat="43.62587" lon="3.74383">
        <ele>112.8359375</ele>
        <time>2020-12-03T11:59:35Z</time>
      </trkpt>
      <trkpt lat="43.62589" lon="3.74397">
        <ele>112.90625</ele>
        <time>2020-12-03T11:59:44Z</time>
      </trkpt>
      <trkpt lat="43.62592" lon="3.74414">
        <ele>113.01953125</ele>
        <time>2020-12-03T11:59:57Z</time>
      </trkpt>
      <trkpt lat="43.62594" lon="3.74423">
        <ele>113.08984375</ele>
        <time>2020-12-03T12:00:04Z</time>
      </trkpt>
      <trkpt lat="43.62597" lon="3.74436">
        <ele>113.19140625</ele>
        <time>2020-12-03T12:00:13Z</time>
      </trkpt>
      <trkpt lat="43.626" lon="3.74449">
        <ele>113.35546875</ele>
        <time>2020-12-03T12:00:21Z</time>
      </trkpt>
      <trkpt lat="43.62602" lon="3.74468">
        <ele>113.53125</ele>
        <time>2020-12-03T12:00:33Z</time>
      </trkpt>
      <trkpt lat="43.62601" lon="3.74482">
        <ele>113.5859375</ele>
        <time>2020-12-03T12:00:43Z</time>
      </trkpt>
      <trkpt lat="43.62601" lon="3.74497">
        <ele>113.76953125</ele>
        <time>2020-12-03T12:00:53Z</time>
      </trkpt>
      <trkpt lat="43.62601" lon="3.74513">
        <ele>114.3515625</ele>
        <time>2020-12-03T12:01:04Z</time>
      </trkpt>
      <trkpt lat="43.62599" lon="3.74526">
        <ele>114.78515625</ele>
        <time>2020-12-03T12:01:14Z</time>
      </trkpt>
      <trkpt lat="43.62597" lon="3.7454">
        <ele>115.25390625</ele>
        <time>2020-12-03T12:01:25Z</time>
      </trkpt>
      <trkpt lat="43.62595" lon="3.74556">
        <ele>116.12109375</ele>
        <time>2020-12-03T12:01:38Z</time>
      </trkpt>
      <trkpt lat="43.62593" lon="3.74571">
        <ele>117.39453125</ele>
        <time>2020-12-03T12:01:51Z</time>
      </trkpt>
      <trkpt lat="43.62592" lon="3.74575">
        <ele>117.828125</ele>
        <time>2020-12-03T12:02:01Z</time>
      </trkpt>
      <trkpt lat="43.62591" lon="3.74577">
        <ele>117.99609375</ele>
        <time>2020-12-03T12:02:10Z</time>
      </trkpt>
      <trkpt lat="43.62591" lon="3.74578">
        <ele>118.015625</ele>
        <time>2020-12-03T12:02:19Z</time>
      </trkpt>
      <trkpt lat="43.62591" lon="3.74584">
        <ele>118.6484375</ele>
        <time>2020-12-03T12:02:31Z</time>
      </trkpt>
      <trkpt lat="43.62588" lon="3.74592">
        <ele>119.33984375</ele>
        <time>2020-12-03T12:02:41Z</time>
      </trkpt>
      <trkpt lat="43.62588" lon="3.74591">
        <ele>119.29296875</ele>
        <time>2020-12-03T12:02:57Z</time>
      </trkpt>
      <trkpt lat="43.62587" lon="3.74589">
        <ele>119.05859375</ele>
        <time>2020-12-03T12:03:20Z</time>
      </trkpt>
      <trkpt lat="43.62587" lon="3.74589">
        <ele>119.0546875</ele>
        <time>2020-12-03T12:03:44Z</time>
      </trkpt>
      <trkpt lat="43.62586" lon="3.7459">
        <ele>119.19921875</ele>
        <time>2020-12-03T12:03:56Z</time>
      </trkpt>
      <trkpt lat="43.62582" lon="3.74601">
        <ele>120.23828125</ele>
        <time>2020-12-03T12:04:06Z</time>
      </trkpt>
      <trkpt lat="43.62579" lon="3.74613">
        <ele>121.90625</ele>
        <time>2020-12-03T12:04:19Z</time>
      </trkpt>
      <trkpt lat="43.62575" lon="3.74624">
        <ele>123.6328125</ele>
        <time>2020-12-03T12:04:31Z</time>
      </trkpt>
      <trkpt lat="43.62572" lon="3.74633">
        <ele>124.91796875</ele>
        <time>2020-12-03T12:04:43Z</time>
      </trkpt>
      <trkpt lat="43.62564" lon="3.74634">
        <ele>125.18359375</ele>
        <time>2020-12-03T12:04:53Z</time>
      </trkpt>
      <trkpt lat="43.62562" lon="3.74642">
        <ele>126.45703125</ele>
        <time>2020-12-03T12:05:01Z</time>
      </trkpt>
      <trkpt lat="43.62567" lon="3.74651">
        <ele>127.5390625</ele>
        <time>2020-12-03T12:05:12Z</time>
      </trkpt>
      <trkpt lat="43.62572" lon="3.74658">
        <ele>128.55078125</ele>
        <time>2020-12-03T12:05:22Z</time>
      </trkpt>
      <trkpt lat="43.62578" lon="3.74668">
        <ele>130.1640625</ele>
        <time>2020-12-03T12:05:35Z</time>
      </trkpt>
      <trkpt lat="43.62584" lon="3.74675">
        <ele>131.2421875</ele>
        <time>2020-12-03T12:05:46Z</time>
      </trkpt>
      <trkpt lat="43.62589" lon="3.74682">
        <ele>132.1953125</ele>
        <time>2020-12-03T12:05:56Z</time>
      </trkpt>
      <trkpt lat="43.62592" lon="3.74691">
        <ele>133.609375</ele>
        <time>2020-12-03T12:06:06Z</time>
      </trkpt>
      <trkpt lat="43.62594" lon="3.74696">
        <ele>134.37109375</ele>
        <time>2020-12-03T12:06:13Z</time>
      </trkpt>
      <trkpt lat="43.62592" lon="3.74702">
        <ele>135.41015625</ele>
        <time>2020-12-03T12:06:21Z</time>
      </trkpt>
      <trkpt lat="43.62592" lon="3.74715">
        <ele>137.3203125</ele>
        <time>2020-12-03T12:06:34Z</time>
      </trkpt>
      <trkpt lat="43.6259" lon="3.74724">
        <ele>138.81640625</ele>
        <time>2020-12-03T12:06:46Z</time>
      </trkpt>
      <trkpt lat="43.62589" lon="3.74734">
        <ele>140.2578125</ele>
        <time>2020-12-03T12:06:59Z</time>
      </trkpt>
      <trkpt lat="43.62589" lon="3.74739">
        <ele>141.09375</ele>
        <time>2020-12-03T12:07:10Z</time>
      </trkpt>
      <trkpt lat="43.62589" lon="3.74745">
        <ele>142.078125</ele>
        <time>2020-12-03T12:07:21Z</time>
      </trkpt>
      <trkpt lat="43.62592" lon="3.74752">
        <ele>143.375</ele>
        <time>2020-12-03T12:07:31Z</time>
      </trkpt>
      <trkpt lat="43.6259" lon="3.74762">
        <ele>144.76171875</ele>
        <time>2020-12-03T12:07:42Z</time>
      </trkpt>
      <trkpt lat="43.62586" lon="3.74774">
        <ele>146.4921875</ele>
        <time>2020-12-03T12:07:55Z</time>
      </trkpt>
      <trkpt lat="43.62579" lon="3.74783">
        <ele>147.21484375</ele>
        <time>2020-12-03T12:08:06Z</time>
      </trkpt>
      <trkpt lat="43.62574" lon="3.74792">
        <ele>148.0625</ele>
        <time>2020-12-03T12:08:16Z</time>
      </trkpt>
      <trkpt lat="43.62568" lon="3.74804">
        <ele>149.296875</ele>
        <time>2020-12-03T12:08:28Z</time>
      </trkpt>
      <trkpt lat="43.62564" lon="3.74813">
        <ele>150.2421875</ele>
        <time>2020-12-03T12:08:37Z</time>
      </trkpt>
      <trkpt lat="43.62559" lon="3.74827">
        <ele>151.46875</ele>
        <time>2020-12-03T12:08:49Z</time>
      </trkpt>
      <trkpt lat="43.62553" lon="3.74836">
        <ele>151.6328125</ele>
        <time>2020-12-03T12:09:01Z</time>
      </trkpt>
      <trkpt lat="43.62551" lon="3.74837">
        <ele>151.5</ele>
        <time>2020-12-03T12:09:11Z</time>
      </trkpt>
      <trkpt lat="43.62551" lon="3.74836">
        <ele>151.41015625</ele>
        <time>2020-12-03T12:09:28Z</time>
      </trkpt>
      <trkpt lat="43.62547" lon="3.74838">
        <ele>151.1484375</ele>
        <time>2020-12-03T12:09:33Z</time>
      </trkpt>
      <trkpt lat="43.6254" lon="3.74838">
        <ele>150.48828125</ele>
        <time>2020-12-03T12:09:44Z</time>
      </trkpt>
      <trkpt lat="43.62539" lon="3.74839">
        <ele>150.5078125</ele>
        <time>2020-12-03T12:10:08Z</time>
      </trkpt>
      <trkpt lat="43.62542" lon="3.74841">
        <ele>150.828125</ele>
        <time>2020-12-03T12:10:23Z</time>
      </trkpt>
      <trkpt lat="43.62545" lon="3.74838">
        <ele>150.97265625</ele>
        <time>2020-12-03T12:10:33Z</time>
      </trkpt>
      <trkpt lat="43.62545" lon="3.74837">
        <ele>150.96875</ele>
        <time>2020-12-03T12:10:57Z</time>
      </trkpt>
      <trkpt lat="43.62546" lon="3.74836">
        <ele>150.93359375</ele>
        <time>2020-12-03T12:11:19Z</time>
      </trkpt>
      <trkpt lat="43.62546" lon="3.74836">
        <ele>150.9375</ele>
        <time>2020-12-03T12:11:40Z</time>
      </trkpt>
      <trkpt lat="43.62545" lon="3.74836">
        <ele>150.9140625</ele>
        <time>2020-12-03T12:11:59Z</time>
      </trkpt>
      <trkpt lat="43.62545" lon="3.74837">
        <ele>150.921875</ele>
        <time>2020-12-03T12:12:16Z</time>
      </trkpt>
      <trkpt lat="43.62543" lon="3.74839">
        <ele>150.92578125</ele>
        <time>2020-12-03T12:12:39Z</time>
      </trkpt>
      <trkpt lat="43.62539" lon="3.74847">
        <ele>150.96484375</ele>
        <time>2020-12-03T12:12:47Z</time>
      </trkpt>
      <trkpt lat="43.62534" lon="3.74861">
        <ele>151.375</ele>
        <time>2020-12-03T12:13:00Z</time>
      </trkpt>
      <trkpt lat="43.62532" lon="3.74867">
        <ele>151.5625</ele>
        <time>2020-12-03T12:13:07Z</time>
      </trkpt>
      <trkpt lat="43.6253" lon="3.74878">
        <ele>151.99609375</ele>
        <time>2020-12-03T12:13:16Z</time>
      </trkpt>
      <trkpt lat="43.62529" lon="3.74883">
        <ele>152.27734375</ele>
        <time>2020-12-03T12:13:25Z</time>
      </trkpt>
      <trkpt lat="43.62529" lon="3.7489">
        <ele>152.6953125</ele>
        <time>2020-12-03T12:13:34Z</time>
      </trkpt>
      <trkpt lat="43.62529" lon="3.7489">
        <ele>152.76171875</ele>
        <time>2020-12-03T12:13:44Z</time>
      </trkpt>
      <trkpt lat="43.62528" lon="3.74897">
        <ele>153.171875</ele>
        <time>2020-12-03T12:13:55Z</time>
      </trkpt>
      <trkpt lat="43.62528" lon="3.74907">
        <ele>153.8828125</ele>
        <time>2020-12-03T12:14:03Z</time>
      </trkpt>
      <trkpt lat="43.6253" lon="3.74924">
        <ele>155.2734375</ele>
        <time>2020-12-03T12:14:16Z</time>
      </trkpt>
      <trkpt lat="43.62536" lon="3.74937">
        <ele>156.82421875</ele>
        <time>2020-12-03T12:14:28Z</time>
      </trkpt>
      <trkpt lat="43.6254" lon="3.7495">
        <ele>158.7734375</ele>
        <time>2020-12-03T12:14:39Z</time>
      </trkpt>
      <trkpt lat="43.62545" lon="3.74964">
        <ele>160.76171875</ele>
        <time>2020-12-03T12:14:51Z</time>
      </trkpt>
      <trkpt lat="43.62552" lon="3.74975">
        <ele>162.484375</ele>
        <time>2020-12-03T12:15:02Z</time>
      </trkpt>
      <trkpt lat="43.62564" lon="3.74986">
        <ele>164.28515625</ele>
        <time>2020-12-03T12:15:16Z</time>
      </trkpt>
      <trkpt lat="43.6257" lon="3.75002">
        <ele>165.75</ele>
        <time>2020-12-03T12:15:29Z</time>
      </trkpt>
      <trkpt lat="43.62571" lon="3.75019">
        <ele>167.2265625</ele>
        <time>2020-12-03T12:15:42Z</time>
      </trkpt>
      <trkpt lat="43.62569" lon="3.75033">
        <ele>168.46484375</ele>
        <time>2020-12-03T12:15:53Z</time>
      </trkpt>
      <trkpt lat="43.62566" lon="3.75038">
        <ele>168.95703125</ele>
        <time>2020-12-03T12:16:02Z</time>
      </trkpt>
      <trkpt lat="43.62566" lon="3.75038">
        <ele>168.92578125</ele>
        <time>2020-12-03T12:16:25Z</time>
      </trkpt>
      <trkpt lat="43.62565" lon="3.75039">
        <ele>169.1015625</ele>
        <time>2020-12-03T12:16:27Z</time>
      </trkpt>
      <trkpt lat="43.62562" lon="3.75044">
        <ele>169.4765625</ele>
        <time>2020-12-03T12:16:34Z</time>
      </trkpt>
      <trkpt lat="43.62555" lon="3.75055">
        <ele>170.33984375</ele>
        <time>2020-12-03T12:16:46Z</time>
      </trkpt>
      <trkpt lat="43.62552" lon="3.75063">
        <ele>171.0234375</ele>
        <time>2020-12-03T12:16:55Z</time>
      </trkpt>
      <trkpt lat="43.62551" lon="3.75067">
        <ele>171.34375</ele>
        <time>2020-12-03T12:17:01Z</time>
      </trkpt>
      <trkpt lat="43.62549" lon="3.75072">
        <ele>171.734375</ele>
        <time>2020-12-03T12:17:05Z</time>
      </trkpt>
      <trkpt lat="43.62544" lon="3.75085">
        <ele>172.875</ele>
        <time>2020-12-03T12:17:17Z</time>
      </trkpt>
      <trkpt lat="43.62543" lon="3.75095">
        <ele>173.75390625</ele>
        <time>2020-12-03T12:17:25Z</time>
      </trkpt>
      <trkpt lat="43.62543" lon="3.75107">
        <ele>174.71484375</ele>
        <time>2020-12-03T12:17:36Z</time>
      </trkpt>
      <trkpt lat="43.62544" lon="3.75115">
        <ele>174.99609375</ele>
        <time>2020-12-03T12:17:44Z</time>
      </trkpt>
      <trkpt lat="43.62545" lon="3.75116">
        <ele>175.03515625</ele>
        <time>2020-12-03T12:17:50Z</time>
      </trkpt>
      <trkpt lat="43.62545" lon="3.75115">
        <ele>175.03125</ele>
        <time>2020-12-03T12:17:52Z</time>
      </trkpt>
      <trkpt lat="43.62544" lon="3.75115">
        <ele>175.00390625</ele>
        <time>2020-12-03T12:18:02Z</time>
      </trkpt>
      <trkpt lat="43.62544" lon="3.75115">
        <ele>175.01953125</ele>
        <time>2020-12-03T12:18:03Z</time>
      </trkpt>
      <trkpt lat="43.62545" lon="3.75124">
        <ele>175.35546875</ele>
        <time>2020-12-03T12:18:09Z</time>
      </trkpt>
      <trkpt lat="43.62545" lon="3.7513">
        <ele>175.5625</ele>
        <time>2020-12-03T12:18:14Z</time>
      </trkpt>
      <trkpt lat="43.62546" lon="3.75133">
        <ele>175.6953125</ele>
        <time>2020-12-03T12:18:22Z</time>
      </trkpt>
      <trkpt lat="43.62546" lon="3.7514">
        <ele>175.9453125</ele>
        <time>2020-12-03T12:18:26Z</time>
      </trkpt>
      <trkpt lat="43.62541" lon="3.75162">
        <ele>176.61328125</ele>
        <time>2020-12-03T12:18:39Z</time>
      </trkpt>
      <trkpt lat="43.62539" lon="3.75179">
        <ele>176.87890625</ele>
        <time>2020-12-03T12:18:50Z</time>
      </trkpt>
      <trkpt lat="43.62538" lon="3.75182">
        <ele>176.93359375</ele>
        <time>2020-12-03T12:18:55Z</time>
      </trkpt>
      <trkpt lat="43.62538" lon="3.75185">
        <ele>176.9765625</ele>
        <time>2020-12-03T12:18:57Z</time>
      </trkpt>
      <trkpt lat="43.6254" lon="3.75208">
        <ele>177.42578125</ele>
        <time>2020-12-03T12:19:12Z</time>
      </trkpt>
      <trkpt lat="43.62541" lon="3.75226">
        <ele>177.39453125</ele>
        <time>2020-12-03T12:19:25Z</time>
      </trkpt>
      <trkpt lat="43.62541" lon="3.75229">
        <ele>177.359375</ele>
        <time>2020-12-03T12:19:27Z</time>
      </trkpt>
      <trkpt lat="43.62542" lon="3.75246">
        <ele>177.04296875</ele>
        <time>2020-12-03T12:19:40Z</time>
      </trkpt>
      <trkpt lat="43.62542" lon="3.75255">
        <ele>176.88671875</ele>
        <time>2020-12-03T12:19:48Z</time>
      </trkpt>
      <trkpt lat="43.62542" lon="3.75266">
        <ele>176.6796875</ele>
        <time>2020-12-03T12:19:57Z</time>
      </trkpt>
      <trkpt lat="43.62542" lon="3.75289">
        <ele>176.28125</ele>
        <time>2020-12-03T12:20:12Z</time>
      </trkpt>
      <trkpt lat="43.62543" lon="3.75295">
        <ele>176.17578125</ele>
        <time>2020-12-03T12:20:20Z</time>
      </trkpt>
      <trkpt lat="43.62545" lon="3.75311">
        <ele>175.93359375</ele>
        <time>2020-12-03T12:20:31Z</time>
      </trkpt>
      <trkpt lat="43.62548" lon="3.75333">
        <ele>175.52734375</ele>
        <time>2020-12-03T12:20:45Z</time>
      </trkpt>
      <trkpt lat="43.62552" lon="3.75351">
        <ele>175.01953125</ele>
        <time>2020-12-03T12:20:58Z</time>
      </trkpt>
      <trkpt lat="43.62553" lon="3.75361">
        <ele>174.69921875</ele>
        <time>2020-12-03T12:21:05Z</time>
      </trkpt>
      <trkpt lat="43.62554" lon="3.75366">
        <ele>174.53125</ele>
        <time>2020-12-03T12:21:10Z</time>
      </trkpt>
      <trkpt lat="43.62553" lon="3.75387">
        <ele>173.76953125</ele>
        <time>2020-12-03T12:21:24Z</time>
      </trkpt>
      <trkpt lat="43.6255" lon="3.75413">
        <ele>172.5</ele>
        <time>2020-12-03T12:21:41Z</time>
      </trkpt>
      <trkpt lat="43.62547" lon="3.7543">
        <ele>171.68359375</ele>
        <time>2020-12-03T12:21:54Z</time>
      </trkpt>
      <trkpt lat="43.62544" lon="3.7545">
        <ele>170.65625</ele>
        <time>2020-12-03T12:22:08Z</time>
      </trkpt>
      <trkpt lat="43.62542" lon="3.75465">
        <ele>169.8515625</ele>
        <time>2020-12-03T12:22:19Z</time>
      </trkpt>
      <trkpt lat="43.62538" lon="3.75481">
        <ele>169.13671875</ele>
        <time>2020-12-03T12:22:31Z</time>
      </trkpt>
      <trkpt lat="43.62532" lon="3.75498">
        <ele>168.484375</ele>
        <time>2020-12-03T12:22:43Z</time>
      </trkpt>
      <trkpt lat="43.62528" lon="3.75515">
        <ele>167.78515625</ele>
        <time>2020-12-03T12:22:56Z</time>
      </trkpt>
      <trkpt lat="43.62523" lon="3.75535">
        <ele>167.01171875</ele>
        <time>2020-12-03T12:23:10Z</time>
      </trkpt>
      <trkpt lat="43.62519" lon="3.75551">
        <ele>166.328125</ele>
        <time>2020-12-03T12:23:21Z</time>
      </trkpt>
      <trkpt lat="43.62516" lon="3.75565">
        <ele>165.9453125</ele>
        <time>2020-12-03T12:23:31Z</time>
      </trkpt>
      <trkpt lat="43.62514" lon="3.75582">
        <ele>165.46875</ele>
        <time>2020-12-03T12:23:42Z</time>
      </trkpt>
      <trkpt lat="43.62509" lon="3.75607">
        <ele>164.8046875</ele>
        <time>2020-12-03T12:23:58Z</time>
      </trkpt>
      <trkpt lat="43.62503" lon="3.75631">
        <ele>163.52734375</ele>
        <time>2020-12-03T12:24:14Z</time>
      </trkpt>
      <trkpt lat="43.62499" lon="3.75651">
        <ele>162.4453125</ele>
        <time>2020-12-03T12:24:28Z</time>
      </trkpt>
      <trkpt lat="43.62496" lon="3.75673">
        <ele>161.72265625</ele>
        <time>2020-12-03T12:24:42Z</time>
      </trkpt>
      <trkpt lat="43.62494" lon="3.75692">
        <ele>161.26171875</ele>
        <time>2020-12-03T12:24:55Z</time>
      </trkpt>
      <trkpt lat="43.62492" lon="3.75708">
        <ele>160.88671875</ele>
        <time>2020-12-03T12:25:07Z</time>
      </trkpt>
      <trkpt lat="43.62492" lon="3.75707">
        <ele>160.890625</ele>
        <time>2020-12-03T12:25:15Z</time>
      </trkpt>
      <trkpt lat="43.62491" lon="3.7571">
        <ele>160.82421875</ele>
        <time>2020-12-03T12:25:25Z</time>
      </trkpt>
      <trkpt lat="43.6249" lon="3.75708">
        <ele>160.8359375</ele>
        <time>2020-12-03T12:25:46Z</time>
      </trkpt>
      <trkpt lat="43.62489" lon="3.75709">
        <ele>160.80859375</ele>
        <time>2020-12-03T12:26:00Z</time>
      </trkpt>
      <trkpt lat="43.62488" lon="3.75711">
        <ele>160.734375</ele>
        <time>2020-12-03T12:26:07Z</time>
      </trkpt>
      <trkpt lat="43.62488" lon="3.75716">
        <ele>160.625</ele>
        <time>2020-12-03T12:26:17Z</time>
      </trkpt>
      <trkpt lat="43.62487" lon="3.75721">
        <ele>160.4140625</ele>
        <time>2020-12-03T12:26:21Z</time>
      </trkpt>
      <trkpt lat="43.62485" lon="3.75735">
        <ele>159.87109375</ele>
        <time>2020-12-03T12:26:31Z</time>
      </trkpt>
      <trkpt lat="43.62484" lon="3.75743">
        <ele>159.5546875</ele>
        <time>2020-12-03T12:26:39Z</time>
      </trkpt>
      <trkpt lat="43.6248" lon="3.75758">
        <ele>158.96875</ele>
        <time>2020-12-03T12:26:51Z</time>
      </trkpt>
      <trkpt lat="43.62479" lon="3.75767">
        <ele>158.60546875</ele>
        <time>2020-12-03T12:26:58Z</time>
      </trkpt>
      <trkpt lat="43.62478" lon="3.75775">
        <ele>158.2109375</ele>
        <time>2020-12-03T12:27:07Z</time>
      </trkpt>
      <trkpt lat="43.62477" lon="3.75782">
        <ele>157.796875</ele>
        <time>2020-12-03T12:27:15Z</time>
      </trkpt>
      <trkpt lat="43.62475" lon="3.758">
        <ele>156.71484375</ele>
        <time>2020-12-03T12:27:27Z</time>
      </trkpt>
      <trkpt lat="43.62473" lon="3.75815">
        <ele>155.75390625</ele>
        <time>2020-12-03T12:27:37Z</time>
      </trkpt>
      <trkpt lat="43.62473" lon="3.75817">
        <ele>155.65625</ele>
        <time>2020-12-03T12:27:38Z</time>
      </trkpt>
      <trkpt lat="43.62468" lon="3.75834">
        <ele>154.375</ele>
        <time>2020-12-03T12:27:50Z</time>
      </trkpt>
      <trkpt lat="43.62464" lon="3.75845">
        <ele>153.52734375</ele>
        <time>2020-12-03T12:28:00Z</time>
      </trkpt>
      <trkpt lat="43.62459" lon="3.75859">
        <ele>152.546875</ele>
        <time>2020-12-03T12:28:10Z</time>
      </trkpt>
      <trkpt lat="43.62456" lon="3.75872">
        <ele>151.66796875</ele>
        <time>2020-12-03T12:28:20Z</time>
      </trkpt>
      <trkpt lat="43.62449" lon="3.75889">
        <ele>150.26171875</ele>
        <time>2020-12-03T12:28:34Z</time>
      </trkpt>
      <trkpt lat="43.62443" lon="3.75898">
        <ele>149.3828125</ele>
        <time>2020-12-03T12:28:44Z</time>
      </trkpt>
      <trkpt lat="43.62434" lon="3.75912">
        <ele>148.18359375</ele>
        <time>2020-12-03T12:28:57Z</time>
      </trkpt>
      <trkpt lat="43.62423" lon="3.75926">
        <ele>147.05078125</ele>
        <time>2020-12-03T12:29:11Z</time>
      </trkpt>
      <trkpt lat="43.62413" lon="3.75942">
        <ele>146.06640625</ele>
        <time>2020-12-03T12:29:23Z</time>
      </trkpt>
      <trkpt lat="43.62405" lon="3.7595">
        <ele>145.4453125</ele>
        <time>2020-12-03T12:29:32Z</time>
      </trkpt>
      <trkpt lat="43.62394" lon="3.75951">
        <ele>144.5859375</ele>
        <time>2020-12-03T12:29:41Z</time>
      </trkpt>
      <trkpt lat="43.62383" lon="3.75945">
        <ele>143.05859375</ele>
        <time>2020-12-03T12:29:50Z</time>
      </trkpt>
      <trkpt lat="43.62373" lon="3.75937">
        <ele>141.6015625</ele>
        <time>2020-12-03T12:30:01Z</time>
      </trkpt>
      <trkpt lat="43.62368" lon="3.75938">
        <ele>140.7109375</ele>
        <time>2020-12-03T12:30:11Z</time>
      </trkpt>
      <trkpt lat="43.62368" lon="3.75939">
        <ele>140.66796875</ele>
        <time>2020-12-03T12:30:22Z</time>
      </trkpt>
      <trkpt lat="43.62368" lon="3.75939">
        <ele>140.65234375</ele>
        <time>2020-12-03T12:30:50Z</time>
      </trkpt>
      <trkpt lat="43.62368" lon="3.75938">
        <ele>140.625</ele>
        <time>2020-12-03T12:31:00Z</time>
      </trkpt>
      <trkpt lat="43.62368" lon="3.75938">
        <ele>140.65625</ele>
        <time>2020-12-03T12:31:27Z</time>
      </trkpt>
      <trkpt lat="43.62368" lon="3.75938">
        <ele>140.71484375</ele>
        <time>2020-12-03T12:31:54Z</time>
      </trkpt>
      <trkpt lat="43.62368" lon="3.75938">
        <ele>140.73046875</ele>
        <time>2020-12-03T12:32:11Z</time>
      </trkpt>
      <trkpt lat="43.62367" lon="3.75939">
        <ele>140.48828125</ele>
        <time>2020-12-03T12:32:39Z</time>
      </trkpt>
      <trkpt lat="43.62363" lon="3.75946">
        <ele>139.3828125</ele>
        <time>2020-12-03T12:32:48Z</time>
      </trkpt>
      <trkpt lat="43.62359" lon="3.75952">
        <ele>138.49609375</ele>
        <time>2020-12-03T12:32:57Z</time>
      </trkpt>
      <trkpt lat="43.62358" lon="3.75954">
        <ele>138.2734375</ele>
        <time>2020-12-03T12:32:59Z</time>
      </trkpt>
      <trkpt lat="43.62356" lon="3.75958">
        <ele>137.70703125</ele>
        <time>2020-12-03T12:33:03Z</time>
      </trkpt>
      <trkpt lat="43.62349" lon="3.75971">
        <ele>135.875</ele>
        <time>2020-12-03T12:33:15Z</time>
      </trkpt>
      <trkpt lat="43.62342" lon="3.75992">
        <ele>134.0859375</ele>
        <time>2020-12-03T12:33:30Z</time>
      </trkpt>
      <trkpt lat="43.62339" lon="3.76008">
        <ele>133.00390625</ele>
        <time>2020-12-03T12:33:42Z</time>
      </trkpt>
      <trkpt lat="43.62337" lon="3.76028">
        <ele>132.109375</ele>
        <time>2020-12-03T12:33:55Z</time>
      </trkpt>
      <trkpt lat="43.62334" lon="3.76049">
        <ele>131.19921875</ele>
        <time>2020-12-03T12:34:08Z</time>
      </trkpt>
      <trkpt lat="43.6233" lon="3.76065">
        <ele>130.10546875</ele>
        <time>2020-12-03T12:34:19Z</time>
      </trkpt>
      <trkpt lat="43.62326" lon="3.76081">
        <ele>129.03125</ele>
        <time>2020-12-03T12:34:30Z</time>
      </trkpt>
      <trkpt lat="43.62322" lon="3.76093">
        <ele>128.015625</ele>
        <time>2020-12-03T12:34:40Z</time>
      </trkpt>
      <trkpt lat="43.62319" lon="3.76102">
        <ele>127.359375</ele>
        <time>2020-12-03T12:34:48Z</time>
      </trkpt>
      <trkpt lat="43.62316" lon="3.76113">
        <ele>126.81640625</ele>
        <time>2020-12-03T12:34:56Z</time>
      </trkpt>
      <trkpt lat="43.62313" lon="3.76126">
        <ele>126.31640625</ele>
        <time>2020-12-03T12:35:06Z</time>
      </trkpt>
      <trkpt lat="43.62309" lon="3.76133">
        <ele>125.71484375</ele>
        <time>2020-12-03T12:35:14Z</time>
      </trkpt>
      <trkpt lat="43.62306" lon="3.76148">
        <ele>125.3046875</ele>
        <time>2020-12-03T12:35:24Z</time>
      </trkpt>
      <trkpt lat="43.62301" lon="3.76161">
        <ele>124.90234375</ele>
        <time>2020-12-03T12:35:34Z</time>
      </trkpt>
      <trkpt lat="43.62296" lon="3.76176">
        <ele>124.6328125</ele>
        <time>2020-12-03T12:35:45Z</time>
      </trkpt>
      <trkpt lat="43.6229" lon="3.76194">
        <ele>124.546875</ele>
        <time>2020-12-03T12:35:58Z</time>
      </trkpt>
      <trkpt lat="43.62289" lon="3.76195">
        <ele>124.5</ele>
        <time>2020-12-03T12:35:59Z</time>
      </trkpt>
      <trkpt lat="43.62285" lon="3.76195">
        <ele>124.30859375</ele>
        <time>2020-12-03T12:36:03Z</time>
      </trkpt>
      <trkpt lat="43.62283" lon="3.76194">
        <ele>124.27734375</ele>
        <time>2020-12-03T12:36:05Z</time>
      </trkpt>
      <trkpt lat="43.6228" lon="3.76186">
        <ele>124.0078125</ele>
        <time>2020-12-03T12:36:12Z</time>
      </trkpt>
      <trkpt lat="43.62281" lon="3.76186">
        <ele>124.01171875</ele>
        <time>2020-12-03T12:36:29Z</time>
      </trkpt>
      <trkpt lat="43.62282" lon="3.76186">
        <ele>123.9921875</ele>
        <time>2020-12-03T12:36:45Z</time>
      </trkpt>
      <trkpt lat="43.62281" lon="3.76187">
        <ele>124.015625</ele>
        <time>2020-12-03T12:37:03Z</time>
      </trkpt>
      <trkpt lat="43.62282" lon="3.76186">
        <ele>124</ele>
        <time>2020-12-03T12:37:14Z</time>
      </trkpt>
      <trkpt lat="43.62281" lon="3.76185">
        <ele>123.94921875</ele>
        <time>2020-12-03T12:37:16Z</time>
      </trkpt>
      <trkpt lat="43.6228" lon="3.76178">
        <ele>123.65625</ele>
        <time>2020-12-03T12:37:21Z</time>
      </trkpt>
      <trkpt lat="43.62281" lon="3.76159">
        <ele>122.8671875</ele>
        <time>2020-12-03T12:37:34Z</time>
      </trkpt>
      <trkpt lat="43.62281" lon="3.76143">
        <ele>122.15234375</ele>
        <time>2020-12-03T12:37:46Z</time>
      </trkpt>
      <trkpt lat="43.6228" lon="3.76126">
        <ele>121.38671875</ele>
        <time>2020-12-03T12:37:57Z</time>
      </trkpt>
      <trkpt lat="43.6228" lon="3.76109">
        <ele>120.6015625</ele>
        <time>2020-12-03T12:38:09Z</time>
      </trkpt>
      <trkpt lat="43.6228" lon="3.7609">
        <ele>120.04296875</ele>
        <time>2020-12-03T12:38:22Z</time>
      </trkpt>
      <trkpt lat="43.62281" lon="3.76072">
        <ele>119.55859375</ele>
        <time>2020-12-03T12:38:35Z</time>
      </trkpt>
      <trkpt lat="43.62281" lon="3.76055">
        <ele>119.12109375</ele>
        <time>2020-12-03T12:38:46Z</time>
      </trkpt>
      <trkpt lat="43.6228" lon="3.76035">
        <ele>119.015625</ele>
        <time>2020-12-03T12:39:00Z</time>
      </trkpt>
      <trkpt lat="43.62281" lon="3.76013">
        <ele>119.2421875</ele>
        <time>2020-12-03T12:39:14Z</time>
      </trkpt>
      <trkpt lat="43.62281" lon="3.76003">
        <ele>119.40625</ele>
        <time>2020-12-03T12:39:21Z</time>
      </trkpt>
      <trkpt lat="43.6228" lon="3.75988">
        <ele>119.5625</ele>
        <time>2020-12-03T12:39:31Z</time>
      </trkpt>
      <trkpt lat="43.62281" lon="3.75971">
        <ele>120.31640625</ele>
        <time>2020-12-03T12:39:43Z</time>
      </trkpt>
      <trkpt lat="43.62281" lon="3.75953">
        <ele>121.0703125</ele>
        <time>2020-12-03T12:39:56Z</time>
      </trkpt>
      <trkpt lat="43.62281" lon="3.75937">
        <ele>121.46875</ele>
        <time>2020-12-03T12:40:07Z</time>
      </trkpt>
      <trkpt lat="43.62279" lon="3.75914">
        <ele>121.56640625</ele>
        <time>2020-12-03T12:40:22Z</time>
      </trkpt>
      <trkpt lat="43.62277" lon="3.75893">
        <ele>121.72265625</ele>
        <time>2020-12-03T12:40:36Z</time>
      </trkpt>
      <trkpt lat="43.62277" lon="3.7587">
        <ele>121.39453125</ele>
        <time>2020-12-03T12:40:51Z</time>
      </trkpt>
      <trkpt lat="43.62279" lon="3.7585">
        <ele>120.97265625</ele>
        <time>2020-12-03T12:41:04Z</time>
      </trkpt>
      <trkpt lat="43.62281" lon="3.75831">
        <ele>121.1171875</ele>
        <time>2020-12-03T12:41:17Z</time>
      </trkpt>
      <trkpt lat="43.62283" lon="3.75812">
        <ele>121.18359375</ele>
        <time>2020-12-03T12:41:30Z</time>
      </trkpt>
      <trkpt lat="43.62284" lon="3.75794">
        <ele>120.86328125</ele>
        <time>2020-12-03T12:41:42Z</time>
      </trkpt>
      <trkpt lat="43.62285" lon="3.75782">
        <ele>120.5390625</ele>
        <time>2020-12-03T12:41:50Z</time>
      </trkpt>
      <trkpt lat="43.62284" lon="3.75761">
        <ele>119.890625</ele>
        <time>2020-12-03T12:42:04Z</time>
      </trkpt>
      <trkpt lat="43.62283" lon="3.7574">
        <ele>119.72265625</ele>
        <time>2020-12-03T12:42:19Z</time>
      </trkpt>
      <trkpt lat="43.62281" lon="3.75718">
        <ele>119.2734375</ele>
        <time>2020-12-03T12:42:33Z</time>
      </trkpt>
      <trkpt lat="43.62279" lon="3.75701">
        <ele>119.47265625</ele>
        <time>2020-12-03T12:42:45Z</time>
      </trkpt>
      <trkpt lat="43.62276" lon="3.75681">
        <ele>119.71875</ele>
        <time>2020-12-03T12:42:59Z</time>
      </trkpt>
      <trkpt lat="43.62273" lon="3.75663">
        <ele>119.8203125</ele>
        <time>2020-12-03T12:43:12Z</time>
      </trkpt>
      <trkpt lat="43.6227" lon="3.75649">
        <ele>120.40625</ele>
        <time>2020-12-03T12:43:23Z</time>
      </trkpt>
      <trkpt lat="43.62266" lon="3.75637">
        <ele>121.37109375</ele>
        <time>2020-12-03T12:43:34Z</time>
      </trkpt>
      <trkpt lat="43.62261" lon="3.75619">
        <ele>122.90234375</ele>
        <time>2020-12-03T12:43:48Z</time>
      </trkpt>
      <trkpt lat="43.62256" lon="3.75605">
        <ele>124.1484375</ele>
        <time>2020-12-03T12:44:00Z</time>
      </trkpt>
      <trkpt lat="43.62249" lon="3.75587">
        <ele>124.04296875</ele>
        <time>2020-12-03T12:44:15Z</time>
      </trkpt>
      <trkpt lat="43.62242" lon="3.75572">
        <ele>123.9296875</ele>
        <time>2020-12-03T12:44:28Z</time>
      </trkpt>
      <trkpt lat="43.62235" lon="3.75558">
        <ele>123.8984375</ele>
        <time>2020-12-03T12:44:41Z</time>
      </trkpt>
      <trkpt lat="43.62227" lon="3.75544">
        <ele>123.6171875</ele>
        <time>2020-12-03T12:44:54Z</time>
      </trkpt>
      <trkpt lat="43.62217" lon="3.75527">
        <ele>122.90234375</ele>
        <time>2020-12-03T12:45:10Z</time>
      </trkpt>
      <trkpt lat="43.62208" lon="3.75513">
        <ele>122.30078125</ele>
        <time>2020-12-03T12:45:24Z</time>
      </trkpt>
      <trkpt lat="43.622" lon="3.75499">
        <ele>121.9140625</ele>
        <time>2020-12-03T12:45:37Z</time>
      </trkpt>
      <trkpt lat="43.62192" lon="3.75486">
        <ele>121.22265625</ele>
        <time>2020-12-03T12:45:49Z</time>
      </trkpt>
      <trkpt lat="43.62184" lon="3.75474">
        <ele>120.30078125</ele>
        <time>2020-12-03T12:46:01Z</time>
      </trkpt>
      <trkpt lat="43.62176" lon="3.75459">
        <ele>119.28125</ele>
        <time>2020-12-03T12:46:14Z</time>
      </trkpt>
      <trkpt lat="43.62172" lon="3.75454">
        <ele>118.83203125</ele>
        <time>2020-12-03T12:46:22Z</time>
      </trkpt>
      <trkpt lat="43.62166" lon="3.75441">
        <ele>118.10546875</ele>
        <time>2020-12-03T12:46:33Z</time>
      </trkpt>
      <trkpt lat="43.62158" lon="3.75425">
        <ele>117.2890625</ele>
        <time>2020-12-03T12:46:47Z</time>
      </trkpt>
      <trkpt lat="43.62147" lon="3.75402">
        <ele>116.2265625</ele>
        <time>2020-12-03T12:47:05Z</time>
      </trkpt>
      <trkpt lat="43.6214" lon="3.75385">
        <ele>115.515625</ele>
        <time>2020-12-03T12:47:19Z</time>
      </trkpt>
      <trkpt lat="43.62132" lon="3.75367">
        <ele>114.90234375</ele>
        <time>2020-12-03T12:47:33Z</time>
      </trkpt>
      <trkpt lat="43.62123" lon="3.75346">
        <ele>114.46875</ele>
        <time>2020-12-03T12:47:49Z</time>
      </trkpt>
      <trkpt lat="43.62115" lon="3.75327">
        <ele>114.55859375</ele>
        <time>2020-12-03T12:48:04Z</time>
      </trkpt>
      <trkpt lat="43.62108" lon="3.75307">
        <ele>114.95703125</ele>
        <time>2020-12-03T12:48:19Z</time>
      </trkpt>
      <trkpt lat="43.621" lon="3.75286">
        <ele>115.37109375</ele>
        <time>2020-12-03T12:48:35Z</time>
      </trkpt>
      <trkpt lat="43.62093" lon="3.75268">
        <ele>115.734375</ele>
        <time>2020-12-03T12:48:49Z</time>
      </trkpt>
      <trkpt lat="43.62086" lon="3.75247">
        <ele>115.96484375</ele>
        <time>2020-12-03T12:49:04Z</time>
      </trkpt>
      <trkpt lat="43.62083" lon="3.75237">
        <ele>116.1328125</ele>
        <time>2020-12-03T12:49:11Z</time>
      </trkpt>
      <trkpt lat="43.62078" lon="3.75222">
        <ele>116.18359375</ele>
        <time>2020-12-03T12:49:21Z</time>
      </trkpt>
      <trkpt lat="43.62072" lon="3.75202">
        <ele>115.7578125</ele>
        <time>2020-12-03T12:49:35Z</time>
      </trkpt>
      <trkpt lat="43.62069" lon="3.75184">
        <ele>115.0625</ele>
        <time>2020-12-03T12:49:47Z</time>
      </trkpt>
      <trkpt lat="43.62065" lon="3.75161">
        <ele>114.16796875</ele>
        <time>2020-12-03T12:50:02Z</time>
      </trkpt>
      <trkpt lat="43.62065" lon="3.75154">
        <ele>113.703125</ele>
        <time>2020-12-03T12:50:08Z</time>
      </trkpt>
      <trkpt lat="43.62068" lon="3.7515">
        <ele>114.0546875</ele>
        <time>2020-12-03T12:50:17Z</time>
      </trkpt>
      <trkpt lat="43.62069" lon="3.7515">
        <ele>114.20703125</ele>
        <time>2020-12-03T12:50:33Z</time>
      </trkpt>
      <trkpt lat="43.6207" lon="3.75149">
        <ele>114.35546875</ele>
        <time>2020-12-03T12:50:49Z</time>
      </trkpt>
      <trkpt lat="43.62067" lon="3.75148">
        <ele>113.86328125</ele>
        <time>2020-12-03T12:50:54Z</time>
      </trkpt>
      <trkpt lat="43.62064" lon="3.75135">
        <ele>112.60546875</ele>
        <time>2020-12-03T12:51:02Z</time>
      </trkpt>
      <trkpt lat="43.62063" lon="3.75134">
        <ele>112.50390625</ele>
        <time>2020-12-03T12:51:03Z</time>
      </trkpt>
      <trkpt lat="43.62061" lon="3.7512">
        <ele>111.51171875</ele>
        <time>2020-12-03T12:51:12Z</time>
      </trkpt>
      <trkpt lat="43.6206" lon="3.75105">
        <ele>110.5</ele>
        <time>2020-12-03T12:51:22Z</time>
      </trkpt>
      <trkpt lat="43.6206" lon="3.75088">
        <ele>109.640625</ele>
        <time>2020-12-03T12:51:33Z</time>
      </trkpt>
      <trkpt lat="43.62059" lon="3.75074">
        <ele>108.8046875</ele>
        <time>2020-12-03T12:51:43Z</time>
      </trkpt>
      <trkpt lat="43.62062" lon="3.75054">
        <ele>108.01171875</ele>
        <time>2020-12-03T12:51:57Z</time>
      </trkpt>
      <trkpt lat="43.62068" lon="3.75028">
        <ele>107.15625</ele>
        <time>2020-12-03T12:52:14Z</time>
      </trkpt>
      <trkpt lat="43.62073" lon="3.75009">
        <ele>106.57421875</ele>
        <time>2020-12-03T12:52:27Z</time>
      </trkpt>
      <trkpt lat="43.62077" lon="3.74993">
        <ele>105.9609375</ele>
        <time>2020-12-03T12:52:38Z</time>
      </trkpt>
      <trkpt lat="43.62081" lon="3.74973">
        <ele>105.90234375</ele>
        <time>2020-12-03T12:52:53Z</time>
      </trkpt>
      <trkpt lat="43.62083" lon="3.74959">
        <ele>105.57421875</ele>
        <time>2020-12-03T12:53:03Z</time>
      </trkpt>
      <trkpt lat="43.62084" lon="3.74946">
        <ele>105.11328125</ele>
        <time>2020-12-03T12:53:15Z</time>
      </trkpt>
      <trkpt lat="43.62084" lon="3.74946">
        <ele>105.1015625</ele>
        <time>2020-12-03T12:53:31Z</time>
      </trkpt>
      <trkpt lat="43.62084" lon="3.74946">
        <ele>105.11328125</ele>
        <time>2020-12-03T12:53:57Z</time>
      </trkpt>
      <trkpt lat="43.62084" lon="3.74947">
        <ele>105.1640625</ele>
        <time>2020-12-03T12:54:16Z</time>
      </trkpt>
      <trkpt lat="43.62084" lon="3.74946">
        <ele>105.12109375</ele>
        <time>2020-12-03T12:54:45Z</time>
      </trkpt>
      <trkpt lat="43.62084" lon="3.74947">
        <ele>105.14453125</ele>
        <time>2020-12-03T12:55:01Z</time>
      </trkpt>
      <trkpt lat="43.62085" lon="3.74947">
        <ele>105.19921875</ele>
        <time>2020-12-03T12:55:16Z</time>
      </trkpt>
      <trkpt lat="43.62085" lon="3.74947">
        <ele>105.2265625</ele>
        <time>2020-12-03T12:55:37Z</time>
      </trkpt>
      <trkpt lat="43.62085" lon="3.74948">
        <ele>105.27734375</ele>
        <time>2020-12-03T12:55:51Z</time>
      </trkpt>
      <trkpt lat="43.62085" lon="3.74947">
        <ele>105.21875</ele>
        <time>2020-12-03T12:56:07Z</time>
      </trkpt>
      <trkpt lat="43.62085" lon="3.74948">
        <ele>105.34375</ele>
        <time>2020-12-03T12:56:25Z</time>
      </trkpt>
      <trkpt lat="43.62086" lon="3.74948">
        <ele>105.375</ele>
        <time>2020-12-03T12:56:45Z</time>
      </trkpt>
      <trkpt lat="43.62087" lon="3.74943">
        <ele>105.19140625</ele>
        <time>2020-12-03T12:56:58Z</time>
      </trkpt>
      <trkpt lat="43.62087" lon="3.74943">
        <ele>105.23828125</ele>
        <time>2020-12-03T12:57:07Z</time>
      </trkpt>
      <trkpt lat="43.62088" lon="3.74945">
        <ele>105.48046875</ele>
        <time>2020-12-03T12:57:26Z</time>
      </trkpt>
      <trkpt lat="43.62088" lon="3.74946">
        <ele>105.46484375</ele>
        <time>2020-12-03T12:57:40Z</time>
      </trkpt>
      <trkpt lat="43.62087" lon="3.74943">
        <ele>105.296875</ele>
        <time>2020-12-03T12:57:56Z</time>
      </trkpt>
      <trkpt lat="43.62087" lon="3.74943">
        <ele>105.26953125</ele>
        <time>2020-12-03T12:58:12Z</time>
      </trkpt>
      <trkpt lat="43.62087" lon="3.74943">
        <ele>105.25390625</ele>
        <time>2020-12-03T12:58:27Z</time>
      </trkpt>
      <trkpt lat="43.62087" lon="3.74944">
        <ele>105.2734375</ele>
        <time>2020-12-03T12:58:45Z</time>
      </trkpt>
      <trkpt lat="43.62087" lon="3.74944">
        <ele>105.30859375</ele>
        <time>2020-12-03T12:59:03Z</time>
      </trkpt>
      <trkpt lat="43.62087" lon="3.74944">
        <ele>105.2734375</ele>
        <time>2020-12-03T12:59:20Z</time>
      </trkpt>
      <trkpt lat="43.62087" lon="3.74943">
        <ele>105.3203125</ele>
        <time>2020-12-03T12:59:36Z</time>
      </trkpt>
      <trkpt lat="43.62087" lon="3.74944">
        <ele>105.28515625</ele>
        <time>2020-12-03T12:59:55Z</time>
      </trkpt>
      <trkpt lat="43.62087" lon="3.74945">
        <ele>105.33984375</ele>
        <time>2020-12-03T13:00:08Z</time>
      </trkpt>
      <trkpt lat="43.62087" lon="3.74944">
        <ele>105.29296875</ele>
        <time>2020-12-03T13:00:26Z</time>
      </trkpt>
      <trkpt lat="43.62086" lon="3.74944">
        <ele>105.2421875</ele>
        <time>2020-12-03T13:00:44Z</time>
      </trkpt>
      <trkpt lat="43.62087" lon="3.74944">
        <ele>105.29296875</ele>
        <time>2020-12-03T13:01:01Z</time>
      </trkpt>
      <trkpt lat="43.62087" lon="3.74944">
        <ele>105.3359375</ele>
        <time>2020-12-03T13:01:21Z</time>
      </trkpt>
      <trkpt lat="43.62087" lon="3.74945">
        <ele>105.3984375</ele>
        <time>2020-12-03T13:01:36Z</time>
      </trkpt>
      <trkpt lat="43.62087" lon="3.74944">
        <ele>105.35546875</ele>
        <time>2020-12-03T13:01:54Z</time>
      </trkpt>
      <trkpt lat="43.6209" lon="3.74937">
        <ele>105.23828125</ele>
        <time>2020-12-03T13:02:10Z</time>
      </trkpt>
      <trkpt lat="43.62091" lon="3.74933">
        <ele>105.2890625</ele>
        <time>2020-12-03T13:02:14Z</time>
      </trkpt>
      <trkpt lat="43.62096" lon="3.74915">
        <ele>105.10546875</ele>
        <time>2020-12-03T13:02:30Z</time>
      </trkpt>
      <trkpt lat="43.62097" lon="3.7491">
        <ele>105.02734375</ele>
        <time>2020-12-03T13:02:34Z</time>
      </trkpt>
      <trkpt lat="43.62101" lon="3.74885">
        <ele>104.42578125</ele>
        <time>2020-12-03T13:02:51Z</time>
      </trkpt>
      <trkpt lat="43.62105" lon="3.74872">
        <ele>104.3125</ele>
        <time>2020-12-03T13:03:00Z</time>
      </trkpt>
      <trkpt lat="43.62107" lon="3.74859">
        <ele>104.203125</ele>
        <time>2020-12-03T13:03:10Z</time>
      </trkpt>
      <trkpt lat="43.62109" lon="3.74848">
        <ele>104.10546875</ele>
        <time>2020-12-03T13:03:20Z</time>
      </trkpt>
      <trkpt lat="43.62109" lon="3.74832">
        <ele>103.87109375</ele>
        <time>2020-12-03T13:03:32Z</time>
      </trkpt>
      <trkpt lat="43.62104" lon="3.74827">
        <ele>103.71875</ele>
        <time>2020-12-03T13:03:42Z</time>
      </trkpt>
      <trkpt lat="43.62095" lon="3.74824">
        <ele>103.5859375</ele>
        <time>2020-12-03T13:03:52Z</time>
      </trkpt>
      <trkpt lat="43.62088" lon="3.74811">
        <ele>103.5546875</ele>
        <time>2020-12-03T13:04:05Z</time>
      </trkpt>
      <trkpt lat="43.62091" lon="3.74791">
        <ele>103.78125</ele>
        <time>2020-12-03T13:04:21Z</time>
      </trkpt>
      <trkpt lat="43.62089" lon="3.74774">
        <ele>103.875</ele>
        <time>2020-12-03T13:04:35Z</time>
      </trkpt>
      <trkpt lat="43.62089" lon="3.74768">
        <ele>104</ele>
        <time>2020-12-03T13:04:46Z</time>
      </trkpt>
      <trkpt lat="43.62089" lon="3.74753">
        <ele>104.40234375</ele>
        <time>2020-12-03T13:05:00Z</time>
      </trkpt>
      <trkpt lat="43.6209" lon="3.74737">
        <ele>104.859375</ele>
        <time>2020-12-03T13:05:12Z</time>
      </trkpt>
      <trkpt lat="43.62089" lon="3.74714">
        <ele>105.45703125</ele>
        <time>2020-12-03T13:05:29Z</time>
      </trkpt>
      <trkpt lat="43.62087" lon="3.74711">
        <ele>105.48046875</ele>
        <time>2020-12-03T13:05:31Z</time>
      </trkpt>
      <trkpt lat="43.6208" lon="3.74702">
        <ele>105.58203125</ele>
        <time>2020-12-03T13:05:41Z</time>
      </trkpt>
      <trkpt lat="43.62068" lon="3.74693">
        <ele>105.80859375</ele>
        <time>2020-12-03T13:05:56Z</time>
      </trkpt>
      <trkpt lat="43.62063" lon="3.74694">
        <ele>105.8984375</ele>
        <time>2020-12-03T13:06:06Z</time>
      </trkpt>
      <trkpt lat="43.6206" lon="3.74693">
        <ele>106.21484375</ele>
        <time>2020-12-03T13:06:15Z</time>
      </trkpt>
      <trkpt lat="43.62048" lon="3.7469">
        <ele>107.37890625</ele>
        <time>2020-12-03T13:06:30Z</time>
      </trkpt>
      <trkpt lat="43.62046" lon="3.74683">
        <ele>107.84765625</ele>
        <time>2020-12-03T13:06:42Z</time>
      </trkpt>
      <trkpt lat="43.6205" lon="3.74674">
        <ele>107.86328125</ele>
        <time>2020-12-03T13:06:49Z</time>
      </trkpt>
      <trkpt lat="43.62052" lon="3.74665">
        <ele>108.015625</ele>
        <time>2020-12-03T13:06:56Z</time>
      </trkpt>
      <trkpt lat="43.62057" lon="3.74654">
        <ele>107.8828125</ele>
        <time>2020-12-03T13:07:05Z</time>
      </trkpt>
      <trkpt lat="43.62057" lon="3.74647">
        <ele>108.15625</ele>
        <time>2020-12-03T13:07:10Z</time>
      </trkpt>
      <trkpt lat="43.6205" lon="3.74636">
        <ele>109.29296875</ele>
        <time>2020-12-03T13:07:22Z</time>
      </trkpt>
      <trkpt lat="43.62042" lon="3.74636">
        <ele>110.09765625</ele>
        <time>2020-12-03T13:07:32Z</time>
      </trkpt>
      <trkpt lat="43.62034" lon="3.74637">
        <ele>110.875</ele>
        <time>2020-12-03T13:07:42Z</time>
      </trkpt>
      <trkpt lat="43.62026" lon="3.74637">
        <ele>111.66796875</ele>
        <time>2020-12-03T13:07:52Z</time>
      </trkpt>
      <trkpt lat="43.62017" lon="3.74636">
        <ele>112.55078125</ele>
        <time>2020-12-03T13:08:02Z</time>
      </trkpt>
      <trkpt lat="43.62006" lon="3.74636">
        <ele>113.54296875</ele>
        <time>2020-12-03T13:08:14Z</time>
      </trkpt>
      <trkpt lat="43.61994" lon="3.74636">
        <ele>114.29296875</ele>
        <time>2020-12-03T13:08:26Z</time>
      </trkpt>
      <trkpt lat="43.61983" lon="3.74636">
        <ele>115.02734375</ele>
        <time>2020-12-03T13:08:39Z</time>
      </trkpt>
      <trkpt lat="43.61977" lon="3.74635">
        <ele>115.39453125</ele>
        <time>2020-12-03T13:08:47Z</time>
      </trkpt>
      <trkpt lat="43.61967" lon="3.74635">
        <ele>116.046875</ele>
        <time>2020-12-03T13:08:59Z</time>
      </trkpt>
      <trkpt lat="43.61963" lon="3.74635">
        <ele>116.30078125</ele>
        <time>2020-12-03T13:09:07Z</time>
      </trkpt>
      <trkpt lat="43.61953" lon="3.74634">
        <ele>116.953125</ele>
        <time>2020-12-03T13:09:18Z</time>
      </trkpt>
      <trkpt lat="43.61941" lon="3.74631">
        <ele>117.28515625</ele>
        <time>2020-12-03T13:09:31Z</time>
      </trkpt>
      <trkpt lat="43.61934" lon="3.74628">
        <ele>117.5234375</ele>
        <time>2020-12-03T13:09:40Z</time>
      </trkpt>
      <trkpt lat="43.61922" lon="3.74625">
        <ele>117.84765625</ele>
        <time>2020-12-03T13:09:53Z</time>
      </trkpt>
      <trkpt lat="43.61911" lon="3.74624">
        <ele>118.09765625</ele>
        <time>2020-12-03T13:10:06Z</time>
      </trkpt>
      <trkpt lat="43.61902" lon="3.74624">
        <ele>118.24609375</ele>
        <time>2020-12-03T13:10:16Z</time>
      </trkpt>
      <trkpt lat="43.61892" lon="3.74623">
        <ele>118.33984375</ele>
        <time>2020-12-03T13:10:29Z</time>
      </trkpt>
      <trkpt lat="43.61885" lon="3.74622">
        <ele>118.41796875</ele>
        <time>2020-12-03T13:10:38Z</time>
      </trkpt>
      <trkpt lat="43.61877" lon="3.74622">
        <ele>118.421875</ele>
        <time>2020-12-03T13:10:49Z</time>
      </trkpt>
      <trkpt lat="43.61872" lon="3.74624">
        <ele>118.32421875</ele>
        <time>2020-12-03T13:10:56Z</time>
      </trkpt>
      <trkpt lat="43.61863" lon="3.74624">
        <ele>118.32421875</ele>
        <time>2020-12-03T13:11:06Z</time>
      </trkpt>
      <trkpt lat="43.61853" lon="3.74627">
        <ele>118.046875</ele>
        <time>2020-12-03T13:11:18Z</time>
      </trkpt>
      <trkpt lat="43.61848" lon="3.74622">
        <ele>118.45703125</ele>
        <time>2020-12-03T13:16:36Z</time>
      </trkpt>
      <trkpt lat="43.61849" lon="3.74618">
        <ele>118.79296875</ele>
        <time>2020-12-03T13:16:40Z</time>
      </trkpt>
      <trkpt lat="43.61847" lon="3.74615">
        <ele>119.07421875</ele>
        <time>2020-12-03T13:16:43Z</time>
      </trkpt>
      <trkpt lat="43.61841" lon="3.74606">
        <ele>120.01171875</ele>
        <time>2020-12-03T13:16:52Z</time>
      </trkpt>
      <trkpt lat="43.61836" lon="3.74596">
        <ele>121.44140625</ele>
        <time>2020-12-03T13:17:01Z</time>
      </trkpt>
      <trkpt lat="43.61833" lon="3.74588">
        <ele>122.53125</ele>
        <time>2020-12-03T13:17:08Z</time>
      </trkpt>
      <trkpt lat="43.61834" lon="3.7458">
        <ele>123.3515625</ele>
        <time>2020-12-03T13:17:16Z</time>
      </trkpt>
      <trkpt lat="43.61833" lon="3.74569">
        <ele>124.68359375</ele>
        <time>2020-12-03T13:17:27Z</time>
      </trkpt>
      <trkpt lat="43.61834" lon="3.74561">
        <ele>125.57421875</ele>
        <time>2020-12-03T13:17:36Z</time>
      </trkpt>
      <trkpt lat="43.61835" lon="3.74548">
        <ele>126.90625</ele>
        <time>2020-12-03T13:17:48Z</time>
      </trkpt>
      <trkpt lat="43.61835" lon="3.7454">
        <ele>127.8515625</ele>
        <time>2020-12-03T13:17:57Z</time>
      </trkpt>
      <trkpt lat="43.61833" lon="3.74527">
        <ele>129.4921875</ele>
        <time>2020-12-03T13:18:09Z</time>
      </trkpt>
      <trkpt lat="43.61833" lon="3.74518">
        <ele>130.60546875</ele>
        <time>2020-12-03T13:18:19Z</time>
      </trkpt>
      <trkpt lat="43.61831" lon="3.74507">
        <ele>132.08203125</ele>
        <time>2020-12-03T13:18:29Z</time>
      </trkpt>
      <trkpt lat="43.61827" lon="3.74495">
        <ele>133.79296875</ele>
        <time>2020-12-03T13:18:43Z</time>
      </trkpt>
      <trkpt lat="43.61821" lon="3.74483">
        <ele>135.40234375</ele>
        <time>2020-12-03T13:18:55Z</time>
      </trkpt>
      <trkpt lat="43.61818" lon="3.74473">
        <ele>136.640625</ele>
        <time>2020-12-03T13:19:06Z</time>
      </trkpt>
      <trkpt lat="43.61814" lon="3.74463">
        <ele>137.90625</ele>
        <time>2020-12-03T13:19:18Z</time>
      </trkpt>
      <trkpt lat="43.6181" lon="3.74452">
        <ele>139.171875</ele>
        <time>2020-12-03T13:19:31Z</time>
      </trkpt>
      <trkpt lat="43.61804" lon="3.74446">
        <ele>139.921875</ele>
        <time>2020-12-03T13:19:42Z</time>
      </trkpt>
      <trkpt lat="43.61802" lon="3.74438">
        <ele>140.8203125</ele>
        <time>2020-12-03T13:19:51Z</time>
      </trkpt>
      <trkpt lat="43.61796" lon="3.74426">
        <ele>142</ele>
        <time>2020-12-03T13:20:04Z</time>
      </trkpt>
      <trkpt lat="43.61794" lon="3.74418">
        <ele>142.75</ele>
        <time>2020-12-03T13:20:17Z</time>
      </trkpt>
      <trkpt lat="43.61796" lon="3.74418">
        <ele>142.72265625</ele>
        <time>2020-12-03T13:20:33Z</time>
      </trkpt>
      <trkpt lat="43.61794" lon="3.74418">
        <ele>142.7734375</ele>
        <time>2020-12-03T13:20:51Z</time>
      </trkpt>
      <trkpt lat="43.61791" lon="3.74416">
        <ele>143.0078125</ele>
        <time>2020-12-03T13:21:09Z</time>
      </trkpt>
      <trkpt lat="43.61791" lon="3.74417">
        <ele>142.91015625</ele>
        <time>2020-12-03T13:21:27Z</time>
      </trkpt>
      <trkpt lat="43.61789" lon="3.74415">
        <ele>143.12890625</ele>
        <time>2020-12-03T13:21:37Z</time>
      </trkpt>
      <trkpt lat="43.61787" lon="3.74413">
        <ele>143.25</ele>
        <time>2020-12-03T13:21:54Z</time>
      </trkpt>
      <trkpt lat="43.61787" lon="3.7441">
        <ele>143.55859375</ele>
        <time>2020-12-03T13:22:12Z</time>
      </trkpt>
      <trkpt lat="43.6179" lon="3.74409">
        <ele>143.64453125</ele>
        <time>2020-12-03T13:22:31Z</time>
      </trkpt>
      <trkpt lat="43.61791" lon="3.74409">
        <ele>143.64453125</ele>
        <time>2020-12-03T13:22:48Z</time>
      </trkpt>
      <trkpt lat="43.61791" lon="3.74407">
        <ele>143.796875</ele>
        <time>2020-12-03T13:23:04Z</time>
      </trkpt>
      <trkpt lat="43.61785" lon="3.74405">
        <ele>143.84765625</ele>
        <time>2020-12-03T13:23:19Z</time>
      </trkpt>
      <trkpt lat="43.61782" lon="3.74399">
        <ele>144.0234375</ele>
        <time>2020-12-03T13:23:32Z</time>
      </trkpt>
      <trkpt lat="43.61778" lon="3.74387">
        <ele>144.5390625</ele>
        <time>2020-12-03T13:23:47Z</time>
      </trkpt>
      <trkpt lat="43.61775" lon="3.74377">
        <ele>144.8203125</ele>
        <time>2020-12-03T13:24:02Z</time>
      </trkpt>
      <trkpt lat="43.61773" lon="3.74363">
        <ele>145.30859375</ele>
        <time>2020-12-03T13:24:15Z</time>
      </trkpt>
      <trkpt lat="43.61771" lon="3.74346">
        <ele>145.96875</ele>
        <time>2020-12-03T13:24:29Z</time>
      </trkpt>
      <trkpt lat="43.61765" lon="3.74338">
        <ele>145.625</ele>
        <time>2020-12-03T13:24:41Z</time>
      </trkpt>
      <trkpt lat="43.61763" lon="3.74327">
        <ele>145.94921875</ele>
        <time>2020-12-03T13:24:53Z</time>
      </trkpt>
      <trkpt lat="43.61763" lon="3.74313">
        <ele>146.1953125</ele>
        <time>2020-12-03T13:25:07Z</time>
      </trkpt>
      <trkpt lat="43.61766" lon="3.74302">
        <ele>146.703125</ele>
        <time>2020-12-03T13:25:19Z</time>
      </trkpt>
      <trkpt lat="43.61771" lon="3.74294">
        <ele>147.31640625</ele>
        <time>2020-12-03T13:25:31Z</time>
      </trkpt>
      <trkpt lat="43.61775" lon="3.74285">
        <ele>147.87109375</ele>
        <time>2020-12-03T13:25:43Z</time>
      </trkpt>
      <trkpt lat="43.61786" lon="3.7427">
        <ele>148.765625</ele>
        <time>2020-12-03T13:25:56Z</time>
      </trkpt>
      <trkpt lat="43.61792" lon="3.74256">
        <ele>147.82421875</ele>
        <time>2020-12-03T13:26:10Z</time>
      </trkpt>
      <trkpt lat="43.61799" lon="3.74245">
        <ele>147.30078125</ele>
        <time>2020-12-03T13:26:22Z</time>
      </trkpt>
      <trkpt lat="43.61805" lon="3.74233">
        <ele>146.80859375</ele>
        <time>2020-12-03T13:26:34Z</time>
      </trkpt>
      <trkpt lat="43.61811" lon="3.74223">
        <ele>146.5859375</ele>
        <time>2020-12-03T13:26:44Z</time>
      </trkpt>
      <trkpt lat="43.61812" lon="3.74221">
        <ele>146.5546875</ele>
        <time>2020-12-03T13:26:46Z</time>
      </trkpt>
      <trkpt lat="43.61817" lon="3.7421">
        <ele>146.15625</ele>
        <time>2020-12-03T13:26:56Z</time>
      </trkpt>
      <trkpt lat="43.61821" lon="3.74201">
        <ele>145.8515625</ele>
        <time>2020-12-03T13:27:07Z</time>
      </trkpt>
      <trkpt lat="43.61827" lon="3.74189">
        <ele>145.609375</ele>
        <time>2020-12-03T13:27:19Z</time>
      </trkpt>
      <trkpt lat="43.61832" lon="3.74176">
        <ele>145.37890625</ele>
        <time>2020-12-03T13:27:31Z</time>
      </trkpt>
      <trkpt lat="43.61837" lon="3.74165">
        <ele>145.38671875</ele>
        <time>2020-12-03T13:27:42Z</time>
      </trkpt>
      <trkpt lat="43.61847" lon="3.74156">
        <ele>146.171875</ele>
        <time>2020-12-03T13:27:55Z</time>
      </trkpt>
      <trkpt lat="43.61854" lon="3.7415">
        <ele>146.5390625</ele>
        <time>2020-12-03T13:28:05Z</time>
      </trkpt>
      <trkpt lat="43.61865" lon="3.74144">
        <ele>147.2734375</ele>
        <time>2020-12-03T13:28:18Z</time>
      </trkpt>
      <trkpt lat="43.61872" lon="3.74139">
        <ele>147.80859375</ele>
        <time>2020-12-03T13:28:29Z</time>
      </trkpt>
      <trkpt lat="43.61876" lon="3.74132">
        <ele>148.26953125</ele>
        <time>2020-12-03T13:28:38Z</time>
      </trkpt>
      <trkpt lat="43.61877" lon="3.74117">
        <ele>148.6015625</ele>
        <time>2020-12-03T13:28:51Z</time>
      </trkpt>
      <trkpt lat="43.61875" lon="3.74106">
        <ele>148.55859375</ele>
        <time>2020-12-03T13:29:02Z</time>
      </trkpt>
      <trkpt lat="43.61876" lon="3.74107">
        <ele>148.5859375</ele>
        <time>2020-12-03T13:29:21Z</time>
      </trkpt>
      <trkpt lat="43.61876" lon="3.74107">
        <ele>148.640625</ele>
        <time>2020-12-03T13:29:47Z</time>
      </trkpt>
      <trkpt lat="43.61878" lon="3.74107">
        <ele>148.765625</ele>
        <time>2020-12-03T13:30:01Z</time>
      </trkpt>
      <trkpt lat="43.61878" lon="3.74108">
        <ele>148.80078125</ele>
        <time>2020-12-03T13:30:27Z</time>
      </trkpt>
      <trkpt lat="43.61878" lon="3.74108">
        <ele>148.75</ele>
        <time>2020-12-03T13:30:40Z</time>
      </trkpt>
      <trkpt lat="43.61876" lon="3.74108">
        <ele>148.625</ele>
        <time>2020-12-03T13:30:54Z</time>
      </trkpt>
      <trkpt lat="43.61876" lon="3.74106">
        <ele>148.58984375</ele>
        <time>2020-12-03T13:31:10Z</time>
      </trkpt>
      <trkpt lat="43.61876" lon="3.74107">
        <ele>148.62890625</ele>
        <time>2020-12-03T13:31:24Z</time>
      </trkpt>
      <trkpt lat="43.61877" lon="3.74108">
        <ele>148.72265625</ele>
        <time>2020-12-03T13:31:43Z</time>
      </trkpt>
      <trkpt lat="43.61877" lon="3.74108">
        <ele>148.69140625</ele>
        <time>2020-12-03T13:31:56Z</time>
      </trkpt>
      <trkpt lat="43.61875" lon="3.74107">
        <ele>148.4921875</ele>
        <time>2020-12-03T13:32:17Z</time>
      </trkpt>
      <trkpt lat="43.61875" lon="3.74105">
        <ele>148.53515625</ele>
        <time>2020-12-03T13:32:19Z</time>
      </trkpt>
      <trkpt lat="43.61875" lon="3.74095">
        <ele>149.42578125</ele>
        <time>2020-12-03T13:32:27Z</time>
      </trkpt>
      <trkpt lat="43.61867" lon="3.74083">
        <ele>149.671875</ele>
        <time>2020-12-03T13:32:41Z</time>
      </trkpt>
      <trkpt lat="43.61868" lon="3.74083">
        <ele>149.76953125</ele>
        <time>2020-12-03T13:33:12Z</time>
      </trkpt>
      <trkpt lat="43.61869" lon="3.74087">
        <ele>149.5625</ele>
        <time>2020-12-03T13:33:23Z</time>
      </trkpt>
      <trkpt lat="43.61873" lon="3.74092">
        <ele>149.453125</ele>
        <time>2020-12-03T13:33:34Z</time>
      </trkpt>
      <trkpt lat="43.61874" lon="3.74094">
        <ele>149.46875</ele>
        <time>2020-12-03T13:34:24Z</time>
      </trkpt>
      <trkpt lat="43.61873" lon="3.74093">
        <ele>149.40625</ele>
        <time>2020-12-03T13:35:07Z</time>
      </trkpt>
      <trkpt lat="43.61875" lon="3.74092">
        <ele>149.62109375</ele>
        <time>2020-12-03T13:35:51Z</time>
      </trkpt>
      <trkpt lat="43.61876" lon="3.74093">
        <ele>149.69140625</ele>
        <time>2020-12-03T13:36:28Z</time>
      </trkpt>
      <trkpt lat="43.61878" lon="3.74096">
        <ele>149.60546875</ele>
        <time>2020-12-03T13:36:38Z</time>
      </trkpt>
      <trkpt lat="43.61877" lon="3.74094">
        <ele>149.7890625</ele>
        <time>2020-12-03T13:36:50Z</time>
      </trkpt>
      <trkpt lat="43.61871" lon="3.74089">
        <ele>149.515625</ele>
        <time>2020-12-03T13:36:59Z</time>
      </trkpt>
      <trkpt lat="43.61866" lon="3.7409">
        <ele>148.9609375</ele>
        <time>2020-12-03T13:37:07Z</time>
      </trkpt>
      <trkpt lat="43.6186" lon="3.74089">
        <ele>148.484375</ele>
        <time>2020-12-03T13:37:16Z</time>
      </trkpt>
      <trkpt lat="43.61851" lon="3.74083">
        <ele>148.28515625</ele>
        <time>2020-12-03T13:37:27Z</time>
      </trkpt>
      <trkpt lat="43.61849" lon="3.74081">
        <ele>148.28125</ele>
        <time>2020-12-03T13:37:35Z</time>
      </trkpt>
      <trkpt lat="43.61845" lon="3.74075">
        <ele>148.53125</ele>
        <time>2020-12-03T13:37:45Z</time>
      </trkpt>
      <trkpt lat="43.6184" lon="3.74067">
        <ele>148.6875</ele>
        <time>2020-12-03T13:37:53Z</time>
      </trkpt>
      <trkpt lat="43.61836" lon="3.74059">
        <ele>148.78125</ele>
        <time>2020-12-03T13:38:03Z</time>
      </trkpt>
      <trkpt lat="43.61831" lon="3.74052">
        <ele>148.7578125</ele>
        <time>2020-12-03T13:38:10Z</time>
      </trkpt>
      <trkpt lat="43.61821" lon="3.74038">
        <ele>148.59765625</ele>
        <time>2020-12-03T13:38:25Z</time>
      </trkpt>
      <trkpt lat="43.61811" lon="3.74026">
        <ele>148.4375</ele>
        <time>2020-12-03T13:38:39Z</time>
      </trkpt>
      <trkpt lat="43.61803" lon="3.74013">
        <ele>148.70703125</ele>
        <time>2020-12-03T13:38:51Z</time>
      </trkpt>
      <trkpt lat="43.61794" lon="3.74001">
        <ele>148.53125</ele>
        <time>2020-12-03T13:39:03Z</time>
      </trkpt>
      <trkpt lat="43.61787" lon="3.73992">
        <ele>148.25</ele>
        <time>2020-12-03T13:39:13Z</time>
      </trkpt>
      <trkpt lat="43.61783" lon="3.73986">
        <ele>147.9453125</ele>
        <time>2020-12-03T13:39:22Z</time>
      </trkpt>
      <trkpt lat="43.61774" lon="3.73981">
        <ele>147.01953125</ele>
        <time>2020-12-03T13:39:32Z</time>
      </trkpt>
      <trkpt lat="43.61764" lon="3.73974">
        <ele>145.859375</ele>
        <time>2020-12-03T13:39:42Z</time>
      </trkpt>
      <trkpt lat="43.61756" lon="3.73967">
        <ele>144.984375</ele>
        <time>2020-12-03T13:39:51Z</time>
      </trkpt>
      <trkpt lat="43.61749" lon="3.73952">
        <ele>144.62890625</ele>
        <time>2020-12-03T13:40:02Z</time>
      </trkpt>
      <trkpt lat="43.61746" lon="3.73938">
        <ele>144.6953125</ele>
        <time>2020-12-03T13:40:14Z</time>
      </trkpt>
      <trkpt lat="43.61747" lon="3.73935">
        <ele>144.82421875</ele>
        <time>2020-12-03T13:40:16Z</time>
      </trkpt>
      <trkpt lat="43.6175" lon="3.73923">
        <ele>145.74609375</ele>
        <time>2020-12-03T13:40:25Z</time>
      </trkpt>
      <trkpt lat="43.61753" lon="3.73912">
        <ele>146.421875</ele>
        <time>2020-12-03T13:40:34Z</time>
      </trkpt>
      <trkpt lat="43.61754" lon="3.73908">
        <ele>146.6328125</ele>
        <time>2020-12-03T13:40:43Z</time>
      </trkpt>
      <trkpt lat="43.61756" lon="3.73889">
        <ele>147.41015625</ele>
        <time>2020-12-03T13:41:01Z</time>
      </trkpt>
      <trkpt lat="43.61756" lon="3.73872">
        <ele>147.921875</ele>
        <time>2020-12-03T13:41:15Z</time>
      </trkpt>
      <trkpt lat="43.61754" lon="3.73866">
        <ele>147.85546875</ele>
        <time>2020-12-03T13:41:25Z</time>
      </trkpt>
      <trkpt lat="43.61751" lon="3.7385">
        <ele>148.0546875</ele>
        <time>2020-12-03T13:41:39Z</time>
      </trkpt>
      <trkpt lat="43.61748" lon="3.73834">
        <ele>148.3203125</ele>
        <time>2020-12-03T13:41:52Z</time>
      </trkpt>
      <trkpt lat="43.61746" lon="3.73822">
        <ele>148.5234375</ele>
        <time>2020-12-03T13:42:03Z</time>
      </trkpt>
      <trkpt lat="43.61746" lon="3.73824">
        <ele>148.4921875</ele>
        <time>2020-12-03T13:42:20Z</time>
      </trkpt>
      <trkpt lat="43.61747" lon="3.73826">
        <ele>148.62109375</ele>
        <time>2020-12-03T13:42:47Z</time>
      </trkpt>
      <trkpt lat="43.61746" lon="3.73827">
        <ele>148.41796875</ele>
        <time>2020-12-03T13:43:02Z</time>
      </trkpt>
      <trkpt lat="43.61743" lon="3.73817">
        <ele>148.23046875</ele>
        <time>2020-12-03T13:43:12Z</time>
      </trkpt>
      <trkpt lat="43.61735" lon="3.73801">
        <ele>147.171875</ele>
        <time>2020-12-03T13:43:27Z</time>
      </trkpt>
      <trkpt lat="43.61727" lon="3.73792">
        <ele>146.29296875</ele>
        <time>2020-12-03T13:43:38Z</time>
      </trkpt>
      <trkpt lat="43.61721" lon="3.73779">
        <ele>145.7890625</ele>
        <time>2020-12-03T13:43:50Z</time>
      </trkpt>
      <trkpt lat="43.61717" lon="3.73775">
        <ele>145.390625</ele>
        <time>2020-12-03T13:43:55Z</time>
      </trkpt>
      <trkpt lat="43.61711" lon="3.73764">
        <ele>144.35546875</ele>
        <time>2020-12-03T13:44:06Z</time>
      </trkpt>
      <trkpt lat="43.61708" lon="3.73753">
        <ele>143.53515625</ele>
        <time>2020-12-03T13:44:17Z</time>
      </trkpt>
      <trkpt lat="43.61705" lon="3.73742">
        <ele>142.5546875</ele>
        <time>2020-12-03T13:44:29Z</time>
      </trkpt>
      <trkpt lat="43.61701" lon="3.7373">
        <ele>141.34375</ele>
        <time>2020-12-03T13:44:43Z</time>
      </trkpt>
      <trkpt lat="43.61698" lon="3.7372">
        <ele>140.35546875</ele>
        <time>2020-12-03T13:44:54Z</time>
      </trkpt>
      <trkpt lat="43.61694" lon="3.73712">
        <ele>140.1796875</ele>
        <time>2020-12-03T13:45:05Z</time>
      </trkpt>
      <trkpt lat="43.6169" lon="3.73701">
        <ele>140.64453125</ele>
        <time>2020-12-03T13:45:17Z</time>
      </trkpt>
      <trkpt lat="43.61687" lon="3.73686">
        <ele>141.734375</ele>
        <time>2020-12-03T13:45:30Z</time>
      </trkpt>
      <trkpt lat="43.61685" lon="3.73678">
        <ele>142.3125</ele>
        <time>2020-12-03T13:45:40Z</time>
      </trkpt>
      <trkpt lat="43.61681" lon="3.73673">
        <ele>142.25390625</ele>
        <time>2020-12-03T13:45:49Z</time>
      </trkpt>
      <trkpt lat="43.61676" lon="3.73672">
        <ele>141.875</ele>
        <time>2020-12-03T13:45:56Z</time>
      </trkpt>
      <trkpt lat="43.61669" lon="3.73674">
        <ele>141.01953125</ele>
        <time>2020-12-03T13:46:03Z</time>
      </trkpt>
      <trkpt lat="43.61665" lon="3.73674">
        <ele>140.6484375</ele>
        <time>2020-12-03T13:46:09Z</time>
      </trkpt>
      <trkpt lat="43.6166" lon="3.73673">
        <ele>140.2109375</ele>
        <time>2020-12-03T13:46:17Z</time>
      </trkpt>
      <trkpt lat="43.61655" lon="3.73675">
        <ele>139.5390625</ele>
        <time>2020-12-03T13:46:24Z</time>
      </trkpt>
      <trkpt lat="43.6165" lon="3.73676">
        <ele>138.98046875</ele>
        <time>2020-12-03T13:46:31Z</time>
      </trkpt>
      <trkpt lat="43.61643" lon="3.73676">
        <ele>138.3359375</ele>
        <time>2020-12-03T13:46:38Z</time>
      </trkpt>
      <trkpt lat="43.61637" lon="3.73677">
        <ele>137.60546875</ele>
        <time>2020-12-03T13:46:45Z</time>
      </trkpt>
      <trkpt lat="43.61633" lon="3.73678">
        <ele>137.09375</ele>
        <time>2020-12-03T13:46:51Z</time>
      </trkpt>
      <trkpt lat="43.61628" lon="3.73679">
        <ele>136.51953125</ele>
        <time>2020-12-03T13:46:59Z</time>
      </trkpt>
      <trkpt lat="43.61624" lon="3.73681">
        <ele>135.8984375</ele>
        <time>2020-12-03T13:47:09Z</time>
      </trkpt>
      <trkpt lat="43.61619" lon="3.73681">
        <ele>135.37109375</ele>
        <time>2020-12-03T13:47:18Z</time>
      </trkpt>
      <trkpt lat="43.61612" lon="3.73682">
        <ele>134.00390625</ele>
        <time>2020-12-03T13:47:27Z</time>
      </trkpt>
      <trkpt lat="43.61609" lon="3.73683">
        <ele>133.3515625</ele>
        <time>2020-12-03T13:47:33Z</time>
      </trkpt>
      <trkpt lat="43.61603" lon="3.73684">
        <ele>132.328125</ele>
        <time>2020-12-03T13:47:41Z</time>
      </trkpt>
      <trkpt lat="43.61595" lon="3.73684">
        <ele>131.0625</ele>
        <time>2020-12-03T13:47:54Z</time>
      </trkpt>
      <trkpt lat="43.61589" lon="3.73684">
        <ele>129.83984375</ele>
        <time>2020-12-03T13:48:01Z</time>
      </trkpt>
      <trkpt lat="43.61583" lon="3.73693">
        <ele>128.1640625</ele>
        <time>2020-12-03T13:48:08Z</time>
      </trkpt>
      <trkpt lat="43.61576" lon="3.73698">
        <ele>126.44921875</ele>
        <time>2020-12-03T13:48:19Z</time>
      </trkpt>
      <trkpt lat="43.61568" lon="3.73706">
        <ele>124.46484375</ele>
        <time>2020-12-03T13:48:31Z</time>
      </trkpt>
      <trkpt lat="43.61563" lon="3.73708">
        <ele>123.74609375</ele>
        <time>2020-12-03T13:48:42Z</time>
      </trkpt>
      <trkpt lat="43.61562" lon="3.73718">
        <ele>122.921875</ele>
        <time>2020-12-03T13:48:52Z</time>
      </trkpt>
      <trkpt lat="43.61558" lon="3.73734">
        <ele>122.5390625</ele>
        <time>2020-12-03T13:49:05Z</time>
      </trkpt>
      <trkpt lat="43.61554" lon="3.73749">
        <ele>122.1328125</ele>
        <time>2020-12-03T13:49:17Z</time>
      </trkpt>
      <trkpt lat="43.6155" lon="3.73766">
        <ele>121.59765625</ele>
        <time>2020-12-03T13:49:32Z</time>
      </trkpt>
      <trkpt lat="43.61546" lon="3.73783">
        <ele>121.15234375</ele>
        <time>2020-12-03T13:49:46Z</time>
      </trkpt>
      <trkpt lat="43.61542" lon="3.73799">
        <ele>120.7109375</ele>
        <time>2020-12-03T13:50:02Z</time>
      </trkpt>
      <trkpt lat="43.61538" lon="3.7381">
        <ele>120.359375</ele>
        <time>2020-12-03T13:50:13Z</time>
      </trkpt>
      <trkpt lat="43.61535" lon="3.73818">
        <ele>120.1015625</ele>
        <time>2020-12-03T13:50:21Z</time>
      </trkpt>
      <trkpt lat="43.61533" lon="3.73826">
        <ele>119.8828125</ele>
        <time>2020-12-03T13:50:28Z</time>
      </trkpt>
      <trkpt lat="43.61529" lon="3.73836">
        <ele>119.51171875</ele>
        <time>2020-12-03T13:50:38Z</time>
      </trkpt>
      <trkpt lat="43.61525" lon="3.73838">
        <ele>119.28515625</ele>
        <time>2020-12-03T13:50:43Z</time>
      </trkpt>
      <trkpt lat="43.61517" lon="3.73837">
        <ele>118.99609375</ele>
        <time>2020-12-03T13:50:51Z</time>
      </trkpt>
      <trkpt lat="43.61513" lon="3.73835">
        <ele>118.9140625</ele>
        <time>2020-12-03T13:50:56Z</time>
      </trkpt>
      <trkpt lat="43.61512" lon="3.73832">
        <ele>118.94140625</ele>
        <time>2020-12-03T13:51:05Z</time>
      </trkpt>
      <trkpt lat="43.61511" lon="3.73833">
        <ele>118.86328125</ele>
        <time>2020-12-03T13:51:23Z</time>
      </trkpt>
      <trkpt lat="43.61513" lon="3.73834">
        <ele>118.94921875</ele>
        <time>2020-12-03T13:51:35Z</time>
      </trkpt>
      <trkpt lat="43.61515" lon="3.73835">
        <ele>118.98828125</ele>
        <time>2020-12-03T13:51:45Z</time>
      </trkpt>
      <trkpt lat="43.61514" lon="3.73834">
        <ele>118.94140625</ele>
        <time>2020-12-03T13:52:14Z</time>
      </trkpt>
      <trkpt lat="43.61505" lon="3.73827">
        <ele>119.16015625</ele>
        <time>2020-12-03T13:52:26Z</time>
      </trkpt>
      <trkpt lat="43.61499" lon="3.73822">
        <ele>119.5234375</ele>
        <time>2020-12-03T13:52:35Z</time>
      </trkpt>
      <trkpt lat="43.61489" lon="3.73814">
        <ele>120.125</ele>
        <time>2020-12-03T13:52:48Z</time>
      </trkpt>
      <trkpt lat="43.61482" lon="3.73808">
        <ele>120.6796875</ele>
        <time>2020-12-03T13:53:00Z</time>
      </trkpt>
      <trkpt lat="43.61476" lon="3.73801">
        <ele>121.296875</ele>
        <time>2020-12-03T13:53:10Z</time>
      </trkpt>
      <trkpt lat="43.61472" lon="3.73793">
        <ele>121.828125</ele>
        <time>2020-12-03T13:53:21Z</time>
      </trkpt>
      <trkpt lat="43.6147" lon="3.73793">
        <ele>121.953125</ele>
        <time>2020-12-03T13:53:23Z</time>
      </trkpt>
      <trkpt lat="43.61463" lon="3.7379">
        <ele>122.44921875</ele>
        <time>2020-12-03T13:53:29Z</time>
      </trkpt>
      <trkpt lat="43.61459" lon="3.73788">
        <ele>122.83203125</ele>
        <time>2020-12-03T13:53:34Z</time>
      </trkpt>
      <trkpt lat="43.61452" lon="3.73779">
        <ele>123.76171875</ele>
        <time>2020-12-03T13:53:44Z</time>
      </trkpt>
      <trkpt lat="43.61443" lon="3.73771">
        <ele>125.10546875</ele>
        <time>2020-12-03T13:53:56Z</time>
      </trkpt>
      <trkpt lat="43.61434" lon="3.73762">
        <ele>126.69921875</ele>
        <time>2020-12-03T13:54:08Z</time>
      </trkpt>
      <trkpt lat="43.61424" lon="3.73753">
        <ele>128.4453125</ele>
        <time>2020-12-03T13:54:20Z</time>
      </trkpt>
      <trkpt lat="43.61417" lon="3.73741">
        <ele>130.35546875</ele>
        <time>2020-12-03T13:54:33Z</time>
      </trkpt>
      <trkpt lat="43.61411" lon="3.73733">
        <ele>131.75390625</ele>
        <time>2020-12-03T13:54:43Z</time>
      </trkpt>
      <trkpt lat="43.61402" lon="3.73731">
        <ele>133.015625</ele>
        <time>2020-12-03T13:54:54Z</time>
      </trkpt>
      <trkpt lat="43.61391" lon="3.73739">
        <ele>133.4296875</ele>
        <time>2020-12-03T13:55:07Z</time>
      </trkpt>
      <trkpt lat="43.61383" lon="3.73749">
        <ele>133.296875</ele>
        <time>2020-12-03T13:55:18Z</time>
      </trkpt>
      <trkpt lat="43.61373" lon="3.73757">
        <ele>133.46875</ele>
        <time>2020-12-03T13:55:31Z</time>
      </trkpt>
      <trkpt lat="43.61371" lon="3.73757">
        <ele>133.69921875</ele>
        <time>2020-12-03T13:55:33Z</time>
      </trkpt>
      <trkpt lat="43.6136" lon="3.73751">
        <ele>135.625</ele>
        <time>2020-12-03T13:55:46Z</time>
      </trkpt>
      <trkpt lat="43.61351" lon="3.73747">
        <ele>137.2734375</ele>
        <time>2020-12-03T13:55:58Z</time>
      </trkpt>
      <trkpt lat="43.61343" lon="3.73745">
        <ele>138.421875</ele>
        <time>2020-12-03T13:56:07Z</time>
      </trkpt>
      <trkpt lat="43.61334" lon="3.73746">
        <ele>139.27734375</ele>
        <time>2020-12-03T13:56:17Z</time>
      </trkpt>
      <trkpt lat="43.61327" lon="3.73754">
        <ele>139.2265625</ele>
        <time>2020-12-03T13:56:27Z</time>
      </trkpt>
      <trkpt lat="43.6132" lon="3.73768">
        <ele>138.421875</ele>
        <time>2020-12-03T13:56:41Z</time>
      </trkpt>
      <trkpt lat="43.61315" lon="3.73776">
        <ele>138.125</ele>
        <time>2020-12-03T13:56:50Z</time>
      </trkpt>
      <trkpt lat="43.6131" lon="3.73779">
        <ele>138.4375</ele>
        <time>2020-12-03T13:56:59Z</time>
      </trkpt>
      <trkpt lat="43.61303" lon="3.73778">
        <ele>139.23046875</ele>
        <time>2020-12-03T13:57:10Z</time>
      </trkpt>
      <trkpt lat="43.61297" lon="3.73778">
        <ele>140.01953125</ele>
        <time>2020-12-03T13:57:19Z</time>
      </trkpt>
      <trkpt lat="43.61297" lon="3.73777">
        <ele>140.125</ele>
        <time>2020-12-03T13:57:20Z</time>
      </trkpt>
      <trkpt lat="43.61294" lon="3.73776">
        <ele>140.6875</ele>
        <time>2020-12-03T13:57:31Z</time>
      </trkpt>
      <trkpt lat="43.61293" lon="3.73774">
        <ele>141.04296875</ele>
        <time>2020-12-03T13:57:39Z</time>
      </trkpt>
      <trkpt lat="43.61294" lon="3.73772">
        <ele>141.2578125</ele>
        <time>2020-12-03T13:58:06Z</time>
      </trkpt>
      <trkpt lat="43.61294" lon="3.73771">
        <ele>141.1875</ele>
        <time>2020-12-03T13:58:38Z</time>
      </trkpt>
      <trkpt lat="43.61294" lon="3.73771">
        <ele>141.265625</ele>
        <time>2020-12-03T13:59:07Z</time>
      </trkpt>
      <trkpt lat="43.61294" lon="3.73771">
        <ele>141.29296875</ele>
        <time>2020-12-03T13:59:36Z</time>
      </trkpt>
      <trkpt lat="43.61293" lon="3.73765">
        <ele>141.98828125</ele>
        <time>2020-12-03T13:59:50Z</time>
      </trkpt>
      <trkpt lat="43.61291" lon="3.73757">
        <ele>143.28515625</ele>
        <time>2020-12-03T14:00:00Z</time>
      </trkpt>
      <trkpt lat="43.61287" lon="3.73752">
        <ele>144.21875</ele>
        <time>2020-12-03T14:00:08Z</time>
      </trkpt>
      <trkpt lat="43.61284" lon="3.73739">
        <ele>145.6875</ele>
        <time>2020-12-03T14:00:22Z</time>
      </trkpt>
      <trkpt lat="43.61282" lon="3.73728">
        <ele>146.92578125</ele>
        <time>2020-12-03T14:00:33Z</time>
      </trkpt>
      <trkpt lat="43.61274" lon="3.7372">
        <ele>148.15234375</ele>
        <time>2020-12-03T14:00:47Z</time>
      </trkpt>
      <trkpt lat="43.61264" lon="3.73717">
        <ele>148.83984375</ele>
        <time>2020-12-03T14:01:00Z</time>
      </trkpt>
      <trkpt lat="43.61253" lon="3.73714">
        <ele>149.37890625</ele>
        <time>2020-12-03T14:01:14Z</time>
      </trkpt>
      <trkpt lat="43.61244" lon="3.7371">
        <ele>149.84765625</ele>
        <time>2020-12-03T14:01:28Z</time>
      </trkpt>
      <trkpt lat="43.61238" lon="3.73709">
        <ele>150.10546875</ele>
        <time>2020-12-03T14:01:40Z</time>
      </trkpt>
      <trkpt lat="43.61226" lon="3.73704">
        <ele>150.828125</ele>
        <time>2020-12-03T14:01:53Z</time>
      </trkpt>
      <trkpt lat="43.61216" lon="3.737">
        <ele>151.58984375</ele>
        <time>2020-12-03T14:02:06Z</time>
      </trkpt>
      <trkpt lat="43.61203" lon="3.73694">
        <ele>152.4375</ele>
        <time>2020-12-03T14:02:20Z</time>
      </trkpt>
      <trkpt lat="43.61195" lon="3.7369">
        <ele>152.953125</ele>
        <time>2020-12-03T14:02:31Z</time>
      </trkpt>
      <trkpt lat="43.6119" lon="3.73688">
        <ele>153.23046875</ele>
        <time>2020-12-03T14:02:41Z</time>
      </trkpt>
      <trkpt lat="43.61192" lon="3.73691">
        <ele>153.12109375</ele>
        <time>2020-12-03T14:02:49Z</time>
      </trkpt>
      <trkpt lat="43.61188" lon="3.7369">
        <ele>153.3359375</ele>
        <time>2020-12-03T14:02:59Z</time>
      </trkpt>
      <trkpt lat="43.61182" lon="3.73687">
        <ele>153.71484375</ele>
        <time>2020-12-03T14:03:09Z</time>
      </trkpt>
      <trkpt lat="43.6118" lon="3.73687">
        <ele>153.8046875</ele>
        <time>2020-12-03T14:03:24Z</time>
      </trkpt>
      <trkpt lat="43.61176" lon="3.73685">
        <ele>154.01953125</ele>
        <time>2020-12-03T14:03:33Z</time>
      </trkpt>
      <trkpt lat="43.61174" lon="3.73688">
        <ele>154.0625</ele>
        <time>2020-12-03T14:03:40Z</time>
      </trkpt>
      <trkpt lat="43.61171" lon="3.73694">
        <ele>154.1875</ele>
        <time>2020-12-03T14:03:49Z</time>
      </trkpt>
      <trkpt lat="43.61166" lon="3.73702">
        <ele>154.37109375</ele>
        <time>2020-12-03T14:03:59Z</time>
      </trkpt>
      <trkpt lat="43.61159" lon="3.73711">
        <ele>154.6015625</ele>
        <time>2020-12-03T14:04:09Z</time>
      </trkpt>
      <trkpt lat="43.61156" lon="3.73716">
        <ele>154.71875</ele>
        <time>2020-12-03T14:04:17Z</time>
      </trkpt>
      <trkpt lat="43.6115" lon="3.73725">
        <ele>154.47265625</ele>
        <time>2020-12-03T14:04:26Z</time>
      </trkpt>
      <trkpt lat="43.61143" lon="3.73734">
        <ele>154.328125</ele>
        <time>2020-12-03T14:04:36Z</time>
      </trkpt>
      <trkpt lat="43.61133" lon="3.73745">
        <ele>154.30078125</ele>
        <time>2020-12-03T14:04:49Z</time>
      </trkpt>
      <trkpt lat="43.61123" lon="3.73754">
        <ele>154.50390625</ele>
        <time>2020-12-03T14:05:01Z</time>
      </trkpt>
      <trkpt lat="43.61112" lon="3.73766">
        <ele>153.4609375</ele>
        <time>2020-12-03T14:05:15Z</time>
      </trkpt>
      <trkpt lat="43.61105" lon="3.73779">
        <ele>152.14453125</ele>
        <time>2020-12-03T14:05:27Z</time>
      </trkpt>
      <trkpt lat="43.61101" lon="3.73791">
        <ele>150.98828125</ele>
        <time>2020-12-03T14:05:38Z</time>
      </trkpt>
      <trkpt lat="43.61098" lon="3.73799">
        <ele>150.2421875</ele>
        <time>2020-12-03T14:05:45Z</time>
      </trkpt>
      <trkpt lat="43.61093" lon="3.73816">
        <ele>148.75</ele>
        <time>2020-12-03T14:05:59Z</time>
      </trkpt>
      <trkpt lat="43.61088" lon="3.73836">
        <ele>147.01171875</ele>
        <time>2020-12-03T14:06:15Z</time>
      </trkpt>
      <trkpt lat="43.61082" lon="3.73852">
        <ele>145.3515625</ele>
        <time>2020-12-03T14:06:28Z</time>
      </trkpt>
      <trkpt lat="43.61076" lon="3.73866">
        <ele>143.921875</ele>
        <time>2020-12-03T14:06:41Z</time>
      </trkpt>
      <trkpt lat="43.61068" lon="3.73876">
        <ele>142.6875</ele>
        <time>2020-12-03T14:06:52Z</time>
      </trkpt>
      <trkpt lat="43.61063" lon="3.7388">
        <ele>142.21875</ele>
        <time>2020-12-03T14:06:58Z</time>
      </trkpt>
      <trkpt lat="43.61055" lon="3.73873">
        <ele>142.53515625</ele>
        <time>2020-12-03T14:07:07Z</time>
      </trkpt>
      <trkpt lat="43.6105" lon="3.73861">
        <ele>143.22265625</ele>
        <time>2020-12-03T14:07:17Z</time>
      </trkpt>
      <trkpt lat="43.61046" lon="3.73854">
        <ele>143.625</ele>
        <time>2020-12-03T14:07:23Z</time>
      </trkpt>
      <trkpt lat="43.61045" lon="3.73851">
        <ele>143.765625</ele>
        <time>2020-12-03T14:07:25Z</time>
      </trkpt>
      <trkpt lat="43.61037" lon="3.7384">
        <ele>144.26171875</ele>
        <time>2020-12-03T14:07:35Z</time>
      </trkpt>
      <trkpt lat="43.6103" lon="3.7383">
        <ele>144.59375</ele>
        <time>2020-12-03T14:07:43Z</time>
      </trkpt>
      <trkpt lat="43.61028" lon="3.73827">
        <ele>144.70703125</ele>
        <time>2020-12-03T14:07:46Z</time>
      </trkpt>
      <trkpt lat="43.61025" lon="3.73823">
        <ele>144.69140625</ele>
        <time>2020-12-03T14:07:49Z</time>
      </trkpt>
      <trkpt lat="43.61023" lon="3.7382">
        <ele>144.6875</ele>
        <time>2020-12-03T14:07:52Z</time>
      </trkpt>
      <trkpt lat="43.61021" lon="3.73817">
        <ele>144.69921875</ele>
        <time>2020-12-03T14:07:55Z</time>
      </trkpt>
      <trkpt lat="43.61015" lon="3.73809">
        <ele>144.6015625</ele>
        <time>2020-12-03T14:08:03Z</time>
      </trkpt>
      <trkpt lat="43.61003" lon="3.73807">
        <ele>144.44921875</ele>
        <time>2020-12-03T14:08:13Z</time>
      </trkpt>
      <trkpt lat="43.60995" lon="3.73809">
        <ele>144.5078125</ele>
        <time>2020-12-03T14:08:21Z</time>
      </trkpt>
      <trkpt lat="43.6099" lon="3.73813">
        <ele>144.5234375</ele>
        <time>2020-12-03T14:08:27Z</time>
      </trkpt>
      <trkpt lat="43.60988" lon="3.73816">
        <ele>144.5234375</ele>
        <time>2020-12-03T14:08:35Z</time>
      </trkpt>
      <trkpt lat="43.60986" lon="3.73818">
        <ele>144.53125</ele>
        <time>2020-12-03T14:08:38Z</time>
      </trkpt>
      <trkpt lat="43.60979" lon="3.73823">
        <ele>144.58984375</ele>
        <time>2020-12-03T14:08:47Z</time>
      </trkpt>
      <trkpt lat="43.60975" lon="3.73826">
        <ele>144.6328125</ele>
        <time>2020-12-03T14:08:51Z</time>
      </trkpt>
      <trkpt lat="43.60962" lon="3.73836">
        <ele>144.56640625</ele>
        <time>2020-12-03T14:09:04Z</time>
      </trkpt>
      <trkpt lat="43.60945" lon="3.73839">
        <ele>144.47265625</ele>
        <time>2020-12-03T14:09:18Z</time>
      </trkpt>
      <trkpt lat="43.60929" lon="3.73843">
        <ele>144.12109375</ele>
        <time>2020-12-03T14:09:33Z</time>
      </trkpt>
      <trkpt lat="43.60927" lon="3.73844">
        <ele>144.078125</ele>
        <time>2020-12-03T14:09:35Z</time>
      </trkpt>
      <trkpt lat="43.60923" lon="3.73841">
        <ele>144.08984375</ele>
        <time>2020-12-03T14:09:42Z</time>
      </trkpt>
      <trkpt lat="43.60921" lon="3.73837">
        <ele>144.15234375</ele>
        <time>2020-12-03T14:09:49Z</time>
      </trkpt>
      <trkpt lat="43.6092" lon="3.73837">
        <ele>144.15625</ele>
        <time>2020-12-03T14:09:51Z</time>
      </trkpt>
      <trkpt lat="43.60913" lon="3.73836">
        <ele>144.07421875</ele>
        <time>2020-12-03T14:10:02Z</time>
      </trkpt>
      <trkpt lat="43.60905" lon="3.73836">
        <ele>143.94140625</ele>
        <time>2020-12-03T14:10:11Z</time>
      </trkpt>
      <trkpt lat="43.60905" lon="3.73835">
        <ele>143.95703125</ele>
        <time>2020-12-03T14:10:17Z</time>
      </trkpt>
      <trkpt lat="43.60905" lon="3.73834">
        <ele>143.984375</ele>
        <time>2020-12-03T14:10:30Z</time>
      </trkpt>
      <trkpt lat="43.60906" lon="3.73831">
        <ele>144.0625</ele>
        <time>2020-12-03T14:10:37Z</time>
      </trkpt>
      <trkpt lat="43.60907" lon="3.73831">
        <ele>144.08203125</ele>
        <time>2020-12-03T14:10:44Z</time>
      </trkpt>
      <trkpt lat="43.60906" lon="3.73831">
        <ele>144.06640625</ele>
        <time>2020-12-03T14:10:50Z</time>
      </trkpt>
    </trkseg>
  </trk>
</gpx>